[[{"header":{"parameterUnit":"m.s-1","parameterCategory":1,"la1":30.6,"la2":28.766,"lo1":-90.7593,"lo2":-88.6598,"dx":0.0162,"dy":0.0183,"nx":116,"ny":114,"refTime":"2022-12-24T18:00:00:Z","depth":0,"parameterNumber":2,"parameterNumberName":"U-component_of_WINDS"},"data":[0.0,0.0,0.0,0.0,0.0,0.0,0.0,0.0,0.0,0.0,0.0,0.0,0.0,0.0,0.0,0.0,0.0,0.0,0.0,0.0,0.0,0.0,0.0,0.0,0.0,0.0,0.0,0.0,0.0,0.0,0.0,0.0,0.0,0.0,0.0,0.0,0.0,0.0,0.0,0.0,0.0,0.0,0.0,0.0,0.0,0.0,0.0,0.0,0.0,0.0,0.0,0.0,0.0,0.0,0.0,0.0,0.0,0.0,0.0,0.0,0.0,0.0,0.0,0.0,0.0,0.0,0.0,0.0,0.0,0.0,0.0,0.0,0.0,0.0,0.0,0.0,0.0,0.0,0.0,0.0,0.0,0.0,0.0,0.0,0.0,0.0,0.0,0.0,0.0,0.0,0.0,0.0,0.0,0.0,0.0,0.0,0.0,0.0,0.0,0.0,0.0,0.0,0.0,0.0,0.0,0.0,0.0,0.0,0.0,0.0,0.0,0.0,0.0,0.0,0.0,0.0,0.0,0.0,0.0,0.0,0.0,0.0,0.0,0.0,0.0,0.0,0.0,0.0,0.0,0.0,0.0,0.0,0.0,0.0,0.0,0.0,0.0,0.0,0.0,0.0,0.0,0.0,0.0,0.0,0.0,0.0,0.0,0.0,0.0,0.0,0.0,0.0,0.0,0.0,0.0,0.0,0.0,0.0,0.0,0.0,0.0,0.0,0.0,0.0,0.0,0.0,0.0,0.0,0.0,0.0,0.0,0.0,0.0,0.0,0.0,0.0,0.0,0.0,0.0,0.0,0.0,0.0,0.0,0.0,0.0,0.0,0.0,0.0,0.0,0.0,0.0,0.0,0.0,0.0,0.0,0.0,0.0,0.0,0.0,0.0,0.0,0.0,0.0,0.0,0.0,0.0,0.0,0.0,0.0,0.0,0.0,0.0,0.0,0.0,0.0,0.0,0.0,0.0,0.0,0.0,0.0,0.0,0.0,0.0,0.0,0.0,0.0,0.0,0.0,0.0,0.0,0.0,0.0,0.0,0.0,0.0,0.0,0.0,0.0,0.0,0.0,0.0,0.0,0.0,0.0,0.0,0.0,0.0,0.0,0.0,0.0,0.0,0.0,0.0,0.0,0.0,0.0,0.0,0.0,0.0,0.0,0.0,0.0,0.0,0.0,0.0,0.0,0.0,0.0,0.0,0.0,0.0,0.0,0.0,0.0,0.0,0.0,0.0,0.0,0.0,0.0,0.0,0.0,0.0,0.0,0.0,0.0,0.0,0.0,0.0,0.0,0.0,0.0,0.0,0.0,0.0,0.0,0.0,0.0,0.0,0.0,0.0,0.0,0.0,0.0,0.0,0.0,0.0,0.0,0.0,0.0,0.0,0.0,0.0,0.0,0.0,0.0,0.0,0.0,0.0,0.0,0.0,0.0,0.0,0.0,0.0,0.0,0.0,0.0,0.0,0.0,0.0,0.0,0.0,0.0,0.0,0.0,0.0,0.0,0.0,0.0,0.0,0.0,0.0,0.0,0.0,0.0,0.0,0.0,0.0,0.0,0.0,0.0,0.0,0.0,0.0,0.0,0.0,0.0,0.0,0.0,0.0,0.0,0.0,0.0,0.0,0.0,0.0,0.0,0.0,0.0,0.0,0.0,0.0,0.0,0.0,0.0,0.0,0.0,0.0,0.0,0.0,0.0,0.0,0.0,0.0,0.0,0.0,0.0,0.0,0.0,0.0,0.0,0.0,0.0,0.0,0.0,0.0,0.0,0.0,0.0,0.0,0.0,0.0,0.0,0.0,0.0,0.0,0.0,0.0,0.0,0.0,0.0,0.0,0.0,0.0,0.0,0.0,0.0,0.0,0.0,0.0,0.0,0.0,0.0,0.0,0.0,0.0,0.0,0.0,0.0,0.0,0.0,0.0,0.0,0.0,0.0,0.0,0.0,0.0,0.0,0.0,0.0,0.0,0.0,0.0,0.0,0.0,0.0,0.0,0.0,0.0,0.0,0.0,0.0,0.0,0.0,0.0,0.0,0.0,0.0,0.0,0.0,0.0,0.0,0.0,0.0,0.0,0.0,0.0,0.0,0.0,0.0,0.0,0.0,0.0,0.0,0.0,0.0,0.0,0.0,0.0,0.0,0.0,0.0,0.0,0.0,0.0,0.0,0.0,0.0,0.0,0.0,0.0,0.0,0.0,0.0,0.0,0.0,0.0,0.0,0.0,0.0,0.0,0.0,0.0,0.0,0.0,0.0,0.0,0.0,0.0,0.0,0.0,0.0,0.0,0.0,0.0,0.0,0.0,0.0,0.0,0.0,0.0,0.0,0.0,0.0,0.0,0.0,0.0,0.0,0.0,0.0,0.0,0.0,0.0,0.0,0.0,0.0,0.0,0.0,0.0,0.0,0.0,0.0,0.0,0.0,0.0,0.0,0.0,0.0,0.0,0.0,0.0,0.0,0.0,0.0,0.0,0.0,0.0,0.0,0.0,0.0,0.0,0.0,0.0,0.0,0.0,0.0,0.0,0.0,0.0,0.0,0.0,0.0,0.0,0.0,0.0,0.0,0.0,0.0,0.0,0.0,0.0,0.0,0.0,0.0,0.0,0.0,0.0,0.0,0.0,0.0,0.0,0.0,0.0,0.0,0.0,0.0,0.0,0.0,0.0,0.0,0.0,0.0,0.0,0.0,0.0,0.0,0.0,0.0,0.0,0.0,0.0,0.0,0.0,0.0,0.0,0.0,0.0,0.0,0.0,0.0,0.0,0.0,0.0,0.0,0.0,0.0,0.0,0.0,0.0,0.0,0.0,0.0,0.0,0.0,0.0,0.0,0.0,0.0,0.0,0.0,0.0,0.0,0.0,0.0,0.0,0.0,0.0,0.0,0.0,0.0,0.0,0.0,0.0,0.0,0.0,0.0,0.0,0.0,0.0,0.0,0.0,0.0,0.0,0.0,0.0,0.0,0.0,0.0,0.0,0.0,0.0,0.0,0.0,0.0,0.0,0.0,0.0,0.0,0.0,0.0,0.0,0.0,0.0,0.0,0.0,0.0,0.0,0.0,0.0,0.0,0.0,0.0,0.0,0.0,0.0,0.0,0.0,0.0,0.0,0.0,0.0,0.0,0.0,0.0,0.0,0.0,0.0,0.0,0.0,0.0,0.0,0.0,0.0,0.0,0.0,0.0,0.0,0.0,0.0,0.0,0.0,0.0,0.0,0.0,0.0,0.0,0.0,0.0,0.0,0.0,0.0,0.0,0.0,0.0,0.0,0.0,0.0,0.0,0.0,0.0,0.0,0.0,0.0,0.0,0.0,0.0,0.0,0.0,0.0,0.0,0.0,0.0,0.0,0.0,0.0,0.0,0.0,0.0,0.0,0.0,0.0,0.0,0.0,0.0,0.0,0.0,0.0,0.0,0.0,0.0,0.0,0.0,0.0,0.0,0.0,0.0,0.0,0.0,0.0,0.0,0.0,0.0,0.0,0.0,0.0,0.0,0.0,0.0,0.0,0.0,0.0,0.0,0.0,0.0,0.0,0.0,0.0,0.0,0.0,0.0,0.0,0.0,0.0,0.0,0.0,0.0,0.0,0.0,0.0,0.0,0.0,0.0,0.0,0.0,0.0,0.0,0.0,0.0,0.0,0.0,0.0,0.0,0.0,0.0,0.0,0.0,0.0,0.0,0.0,0.0,0.0,0.0,0.0,0.0,0.0,0.0,0.0,0.0,0.0,0.0,0.0,0.0,0.0,0.0,0.0,0.0,0.0,0.0,0.0,0.0,0.0,0.0,0.0,0.0,0.0,0.0,0.0,0.0,0.0,0.0,0.0,0.0,0.0,0.0,0.0,0.0,0.0,0.0,0.0,0.0,0.0,0.0,0.0,0.0,0.0,0.0,0.0,0.0,0.0,0.0,0.0,0.0,0.0,0.0,0.0,0.0,0.0,0.0,0.0,0.0,0.0,0.0,0.0,0.0,0.0,0.0,0.0,0.0,0.0,0.0,0.0,0.0,0.0,0.0,0.0,0.0,0.0,0.0,0.0,0.0,0.0,0.0,0.0,0.0,0.0,0.0,0.0,0.0,0.0,0.0,0.0,0.0,0.0,0.0,0.0,0.0,0.0,0.0,0.0,0.0,0.0,0.0,0.0,0.0,0.0,0.0,0.0,0.0,0.0,0.0,0.0,0.0,0.0,0.0,0.0,0.0,0.0,0.0,0.0,0.0,0.0,0.0,0.0,0.0,0.0,0.0,0.0,0.0,0.0,0.0,0.0,0.0,0.0,0.0,0.0,0.0,0.0,0.0,0.0,0.0,0.0,0.0,0.0,0.0,0.0,0.0,0.0,0.0,0.0,0.0,0.0,0.0,0.0,0.0,0.0,0.0,0.0,0.0,0.0,0.0,0.0,0.0,0.0,0.0,0.0,0.0,0.0,0.0,0.0,0.0,0.0,0.0,0.0,0.0,0.0,0.0,0.0,0.0,0.0,0.0,0.0,0.0,0.0,0.0,0.0,0.0,0.0,0.0,0.0,0.0,0.0,0.0,0.0,0.0,0.0,0.0,0.0,0.0,0.0,0.0,0.0,0.0,0.0,0.0,0.0,0.0,0.0,0.0,0.0,0.0,0.0,0.0,0.0,0.0,0.0,0.0,0.0,0.0,0.0,0.0,0.0,0.0,0.0,0.0,0.0,0.0,0.0,0.0,0.0,0.0,0.0,0.0,0.0,0.0,0.0,0.0,0.0,0.0,0.0,0.0,0.0,0.0,0.0,0.0,0.0,0.0,0.0,0.0,0.0,0.0,0.0,0.0,0.0,0.0,0.0,0.0,0.0,0.0,0.0,0.0,0.0,0.0,0.0,0.0,0.0,0.0,0.0,0.0,0.0,0.0,0.0,0.0,0.0,0.0,0.0,0.0,0.0,0.0,0.0,0.0,0.0,0.0,0.0,0.0,0.0,0.0,0.0,0.0,0.0,0.0,0.0,0.0,0.0,0.0,0.0,0.0,0.0,0.0,0.0,0.0,0.0,0.0,0.0,0.0,0.0,0.0,0.0,0.0,0.0,0.0,0.0,0.0,0.0,0.0,0.0,0.0,0.0,0.0,0.0,0.0,0.0,0.0,0.0,0.0,0.0,0.0,0.0,0.0,0.0,0.0,0.0,0.0,0.0,0.0,0.0,0.0,0.0,0.0,0.0,0.0,0.0,0.0,0.0,0.0,0.0,0.0,0.0,0.0,0.0,0.0,0.0,0.0,0.0,0.0,0.0,0.0,0.0,0.0,0.0,0.0,0.0,0.0,0.0,0.0,0.0,0.0,0.0,0.0,0.0,0.0,0.0,0.0,0.0,0.0,0.0,0.0,0.0,0.0,0.0,0.0,0.0,0.0,0.0,0.0,0.0,0.0,0.0,0.0,0.0,0.0,0.0,0.0,0.0,0.0,0.0,0.0,0.0,0.0,0.0,0.0,0.0,0.0,0.0,0.0,0.0,0.0,0.0,0.0,0.0,0.0,0.0,0.0,0.0,0.0,0.0,0.0,0.0,0.0,0.0,0.0,0.0,0.0,0.0,0.0,0.0,0.0,0.0,0.0,0.0,0.0,0.0,0.0,0.0,0.0,0.0,0.0,0.0,0.0,0.0,0.0,0.0,0.0,0.0,0.0,0.0,0.0,0.0,0.0,0.0,0.0,0.0,0.0,0.0,0.0,0.0,0.0,0.0,0.0,0.0,0.0,0.0,0.0,0.0,0.0,0.0,0.0,0.0,0.0,0.0,0.0,0.0,0.0,0.0,0.0,0.0,0.0,0.0,0.0,0.0,0.0,0.0,0.0,0.0,0.0,0.0,0.0,0.0,0.0,0.0,0.0,0.0,0.0,0.0,0.0,0.0,0.0,0.0,0.0,0.0,0.0,0.0,0.0,0.0,0.0,0.0,0.0,0.0,0.0,0.0,0.0,0.0,0.0,0.0,0.0,0.0,0.0,0.0,0.0,0.0,0.0,0.0,0.0,0.0,0.0,0.0,0.0,0.0,0.0,0.0,0.0,0.0,0.0,0.0,0.0,0.0,0.0,0.0,0.0,0.0,0.0,0.0,0.0,0.0,0.0,0.0,0.0,0.0,-5.5195,-5.4609,0.0,0.0,0.0,0.0,0.0,0.0,0.0,0.0,0.0,0.0,0.0,0.0,0.0,0.0,0.0,0.0,0.0,0.0,0.0,0.0,0.0,0.0,0.0,0.0,0.0,0.0,0.0,0.0,0.0,0.0,0.0,0.0,0.0,0.0,0.0,0.0,-4.5229,-4.5664,-4.6207,-4.7471,-4.9475,-4.8585,-4.7537,-4.6355,0.0,0.0,0.0,0.0,0.0,0.0,0.0,0.0,0.0,0.0,0.0,0.0,0.0,0.0,0.0,0.0,0.0,0.0,0.0,0.0,0.0,0.0,0.0,0.0,0.0,0.0,0.0,0.0,0.0,0.0,0.0,0.0,0.0,0.0,0.0,0.0,0.0,0.0,0.0,0.0,0.0,0.0,0.0,0.0,0.0,0.0,0.0,0.0,0.0,0.0,0.0,0.0,0.0,0.0,0.0,0.0,0.0,0.0,0.0,0.0,0.0,0.0,0.0,0.0,0.0,0.0,0.0,0.0,0.0,0.0,-5.7972,-5.6709,0.0,0.0,0.0,0.0,0.0,0.0,0.0,0.0,0.0,0.0,0.0,0.0,0.0,0.0,0.0,0.0,0.0,0.0,0.0,0.0,0.0,0.0,0.0,-4.4818,-4.4852,-4.4987,-4.4987,-4.4987,0.0,0.0,0.0,0.0,0.0,0.0,-4.5906,-4.6481,-4.6866,-4.7087,-4.7803,-4.8986,-5.0588,-5.1764,-5.0303,-4.6654,-4.6562,0.0,0.0,0.0,0.0,0.0,0.0,0.0,0.0,0.0,0.0,0.0,0.0,0.0,0.0,0.0,0.0,0.0,0.0,0.0,0.0,0.0,0.0,0.0,0.0,0.0,0.0,0.0,0.0,0.0,0.0,0.0,0.0,0.0,0.0,0.0,0.0,0.0,0.0,0.0,0.0,0.0,0.0,0.0,0.0,0.0,0.0,0.0,0.0,0.0,0.0,0.0,0.0,0.0,0.0,0.0,0.0,0.0,0.0,0.0,0.0,0.0,0.0,0.0,-6.2002,-6.2271,-6.2301,-6.2759,-6.1936,-6.0242,-6.0194,-5.8345,-5.5517,-5.7285,0.0,0.0,0.0,0.0,0.0,0.0,0.0,0.0,0.0,0.0,0.0,0.0,0.0,0.0,0.0,0.0,0.0,0.0,0.0,0.0,0.0,-4.5568,-4.5805,-4.6447,-4.6515,-4.6515,-4.6515,0.0,0.0,0.0,0.0,-4.665,-4.665,-4.6752,-4.7239,-4.8198,-5.0505,-5.2045,-5.2872,-5.3063,-5.1914,-4.9702,-5.0734,-5.0452,-4.9127,0.0,0.0,0.0,0.0,0.0,0.0,0.0,0.0,0.0,0.0,0.0,0.0,0.0,0.0,0.0,0.0,0.0,0.0,0.0,0.0,0.0,0.0,0.0,0.0,0.0,0.0,0.0,0.0,0.0,0.0,0.0,0.0,0.0,0.0,0.0,0.0,0.0,0.0,0.0,0.0,0.0,-4.9956,-5.0046,0.0,0.0,0.0,0.0,0.0,0.0,0.0,0.0,0.0,0.0,0.0,0.0,0.0,-6.0805,-6.1583,-6.1672,-6.2091,-6.281,-6.2899,-6.2959,-6.2989,-6.2606,-6.1434,-5.9709,-5.9278,0.0,-5.7259,-5.6632,0.0,0.0,0.0,0.0,0.0,0.0,0.0,0.0,0.0,0.0,0.0,0.0,0.0,0.0,0.0,0.0,0.0,0.0,0.0,0.0,0.0,-4.7056,-4.7699,-4.8003,-4.8409,-4.8477,-4.8071,-4.7665,0.0,0.0,-4.7192,-4.7631,-4.8037,-4.8849,-5.0023,-5.155,-5.2448,-5.3133,-5.3608,-5.3383,-5.2733,-5.1935,-5.2475,-5.1133,-4.847,-4.8255,0.0,0.0,0.0,0.0,0.0,0.0,0.0,0.0,0.0,0.0,0.0,0.0,0.0,0.0,0.0,0.0,0.0,0.0,0.0,0.0,0.0,0.0,0.0,0.0,0.0,0.0,0.0,0.0,0.0,0.0,0.0,0.0,0.0,0.0,0.0,0.0,0.0,0.0,0.0,-5.0361,-5.105,-5.1798,-5.2157,-5.2875,0.0,0.0,0.0,0.0,0.0,0.0,0.0,0.0,0.0,-6.0894,-6.1762,-6.254,-6.3169,-6.3169,-6.3498,-6.4186,-6.4545,-6.4725,-6.4695,-6.3852,-6.2458,-6.0689,-5.9429,-5.814,-5.6876,-5.7072,-5.7406,-5.8012,0.0,0.0,0.0,0.0,-5.7246,-5.7223,0.0,0.0,0.0,0.0,0.0,0.0,0.0,0.0,0.0,0.0,0.0,0.0,-4.7564,-4.8781,-4.9729,-5.0135,-5.0304,-5.0236,-4.9864,-4.9357,-4.8781,-4.8206,-4.8951,-4.9492,-4.983,-5.1024,-5.2394,-5.3992,-5.3463,-5.3412,-5.3878,-5.3209,-5.2935,-5.2935,-5.2935,-5.1289,-4.8596,-4.8895,-4.8476,-4.7549,0.0,0.0,0.0,0.0,0.0,0.0,0.0,0.0,0.0,0.0,0.0,0.0,0.0,0.0,0.0,0.0,0.0,0.0,0.0,0.0,0.0,0.0,0.0,0.0,0.0,0.0,0.0,0.0,0.0,0.0,0.0,0.0,0.0,0.0,0.0,0.0,0.0,-5.1498,-5.2546,-5.3354,-5.3892,-5.491,0.0,0.0,0.0,0.0,0.0,0.0,-6.1553,-6.2241,-6.281,-6.3288,-6.3498,-6.3887,-6.4515,-6.4515,-6.4844,-6.5533,-6.6011,-6.6251,-6.622,-6.4399,-6.2887,-6.1461,-5.9183,-5.7498,-5.6443,-5.7178,-5.7633,-5.7948,-5.9147,-6.0004,-6.0323,-5.8551,-5.7926,-5.7688,0.0,0.0,0.0,0.0,0.0,0.0,0.0,0.0,0.0,0.0,0.0,-4.912,-4.983,-5.0642,-5.1691,-5.3145,-5.1995,-5.1454,-5.2097,-5.2097,-5.2063,-5.2029,-5.2807,-5.2875,-5.2164,-5.2584,-5.3202,-5.3992,-5.3271,-5.3255,-5.3878,-5.2755,-5.2247,-5.2247,-5.2247,-5.2127,-5.1917,-5.1319,-5.102,-5.087,-4.9613,0.0,0.0,0.0,0.0,0.0,0.0,0.0,0.0,0.0,0.0,0.0,0.0,0.0,0.0,0.0,0.0,0.0,0.0,0.0,0.0,0.0,0.0,0.0,0.0,0.0,0.0,0.0,0.0,0.0,0.0,0.0,0.0,0.0,0.0,0.0,0.0,0.0,0.0,-5.4221,-5.5777,0.0,0.0,0.0,0.0,-6.1792,-6.251,-6.2899,-6.2989,-6.3558,-6.3917,-6.3947,-6.4575,-6.5233,-6.5892,-6.5892,-6.6251,-6.6879,-6.6939,-6.6939,-6.6816,-6.3346,-6.1663,-6.1394,-5.7895,-5.6568,-5.6947,-5.6468,-5.6616,-5.7095,-5.7143,-5.7496,-5.8075,-5.7926,-5.79,-5.7825,0.0,0.0,0.0,0.0,0.0,-4.4784,-4.5229,-4.5534,-4.6041,-4.6989,-4.824,-4.9458,-5.0676,-5.2367,-5.3788,-5.4837,-5.4871,-5.4735,-5.4499,-5.4025,-5.3348,-5.2334,-5.257,-5.3044,-5.3754,-5.4824,-5.5752,-5.6526,-5.5509,-5.481,-5.4335,-5.3183,-5.2245,-5.1558,-5.1558,-5.1558,-5.1588,-5.1768,-5.1618,-5.1199,-5.1169,-5.0511,0.0,0.0,0.0,0.0,0.0,0.0,0.0,0.0,0.0,0.0,0.0,0.0,0.0,0.0,0.0,0.0,0.0,0.0,0.0,0.0,0.0,0.0,0.0,0.0,0.0,0.0,0.0,0.0,0.0,0.0,0.0,0.0,0.0,0.0,0.0,0.0,0.0,-5.6047,-5.7453,0.0,-6.0266,-6.0984,-6.1912,-6.3228,-6.3528,-6.4036,-6.4904,-6.5173,-6.5473,-6.5922,-6.6161,-6.64,-6.664,-6.664,-6.655,-6.637,-6.637,-6.5761,-6.4556,-6.2099,-6.0565,-5.9712,-5.7303,-5.652,-5.7022,-5.6821,-5.7072,-5.7625,-5.7976,-5.8027,-5.7951,-5.8303,-5.7976,-5.7323,0.0,0.0,0.0,0.0,-4.4818,-4.5128,-4.5635,-4.6143,-4.6989,-4.8443,-4.9492,-5.0879,-5.2875,-5.4228,-5.548,-5.6731,-5.6596,-5.6224,-5.5715,-5.5243,-5.4532,-5.3484,-5.3687,-5.4397,-5.5683,-5.6427,-5.7128,-5.7737,-5.6984,-5.618,-5.5335,-5.4129,-5.3207,-5.2439,-5.2047,-5.1887,-5.1917,-5.2336,-5.2157,-5.1618,-5.2276,-5.2007,-5.1139,0.0,0.0,0.0,0.0,0.0,0.0,0.0,0.0,0.0,0.0,0.0,0.0,0.0,0.0,0.0,0.0,0.0,0.0,0.0,0.0,0.0,0.0,0.0,0.0,0.0,0.0,0.0,0.0,0.0,0.0,0.0,0.0,0.0,0.0,-5.6196,-5.7244,-5.7423,-5.883,-6.0296,-6.1642,-6.2361,-6.3288,-6.4575,-6.4874,-6.5383,-6.6281,-6.634,-6.643,-6.664,-6.667,-6.646,-6.5981,-6.5981,-6.5652,-6.5024,-6.5024,-6.4484,-6.3502,-6.1079,-5.9706,-5.9055,-5.6667,-5.5968,-5.647,-5.647,-5.6821,-5.7399,-5.8152,-5.8227,-5.7926,-5.8077,-5.7675,-5.6923,0.0,0.0,0.0,-4.4649,-4.5229,-4.5737,-4.5771,-4.6959,-4.8443,-4.9932,-5.142,-5.3484,-5.6427,-5.619,-5.663,-5.8795,-5.7036,-5.5784,-5.575,-5.5784,-5.5784,-5.575,-5.6427,-5.7137,-5.7848,-5.7205,-5.7066,-5.7437,-5.747,-5.7274,-5.6841,-5.5642,-5.5083,-5.4992,-5.3789,-5.3271,-5.3271,-5.3223,-5.2815,-5.2276,-5.2935,-5.3174,-5.3025,0.0,0.0,0.0,0.0,0.0,0.0,0.0,0.0,0.0,0.0,0.0,0.0,0.0,0.0,0.0,0.0,0.0,0.0,0.0,0.0,0.0,0.0,0.0,0.0,0.0,0.0,0.0,0.0,0.0,0.0,0.0,0.0,0.0,-5.6436,-5.7902,-5.889,-5.8291,-5.9937,-6.1642,-6.2959,-6.3647,-6.4575,-6.5922,-6.661,-6.6999,-6.6999,-6.6999,-6.6729,-6.6101,-6.6041,-6.5413,-6.4096,-6.4036,-6.3707,-6.3109,-6.3139,-6.3438,-6.383,-6.0404,-5.9211,-5.9594,-5.6124,-5.4913,-5.5415,-5.5415,-5.5717,-5.6294,-5.7399,-5.7826,-5.775,-5.7198,-5.6972,-5.6872,-4.7134,-4.6385,-4.5959,-4.5479,-4.5568,-4.6075,-4.7128,-4.7635,-4.8615,-5.0642,-5.2232,-5.389,-5.5818,-5.6799,-5.7543,-5.8152,-5.7645,-5.707,-5.6528,-5.7002,-5.707,-5.6528,-5.6697,-5.69,-5.7103,-5.7949,-5.8444,-5.8551,-5.9089,-5.8885,-5.8043,-5.7679,-5.713,-5.6232,-5.5038,-5.4513,-5.4467,-5.3579,-5.3084,-5.2935,-5.3114,-5.2905,-5.2486,0.0,0.0,0.0,0.0,0.0,0.0,0.0,0.0,0.0,0.0,0.0,0.0,0.0,0.0,0.0,0.0,0.0,0.0,0.0,0.0,0.0,0.0,0.0,0.0,0.0,0.0,0.0,0.0,0.0,0.0,0.0,-5.856,-5.9249,-5.8411,-5.877,-5.9398,-6.0206,-6.1194,-6.2151,-6.2989,-6.4096,-6.5084,-6.5951,-6.661,-6.6999,-6.6999,-6.7448,-6.7627,-6.7448,-6.6969,-6.655,-6.6161,-6.5233,-6.4425,-6.3767,-6.4246,-6.3861,-6.2735,-6.0903,-5.9748,-5.9051,-5.677,-5.5842,-5.5993,-5.5993,-5.5842,-5.5691,-5.6394,-5.642,-5.6068,-5.5892,-5.5591,-5.529,-4.8813,-4.7796,-4.7042,-4.6644,-4.6583,-4.6891,-4.777,-4.8173,-4.939,-5.2266,-5.3145,-5.4532,-5.7273,-5.7746,-5.8017,-5.8321,-5.778,-5.7273,-5.6833,-5.7205,-5.7239,-5.6833,-5.7408,-5.7712,-5.7712,-5.8863,-5.9641,-5.9979,-6.0385,-6.0415,-6.0131,-5.9654,-5.9011,-5.8345,-5.7121,-5.6292,-5.5814,-5.5088,-5.434,-5.3623,-5.3623,-5.3384,-5.3084,-5.3473,-5.3623,-5.3563,-5.3294,-5.3174,-5.3114,-5.2725,0.0,0.0,0.0,0.0,0.0,0.0,0.0,0.0,0.0,0.0,0.0,0.0,0.0,0.0,0.0,0.0,0.0,0.0,0.0,0.0,0.0,0.0,0.0,0.0,-6.0266,-6.0894,-6.0775,-6.0535,-6.0655,-6.1433,-6.2121,-6.275,-6.3408,-6.4156,-6.4994,-6.5951,-6.661,-6.7119,-6.7388,-6.8046,-6.8256,-6.7986,-6.7328,-6.658,-6.5742,-6.4725,-6.3737,-6.281,-6.3468,-6.3357,-6.2606,-6.1485,-6.0335,-5.9195,-5.738,-5.6255,-5.5516,-5.5516,-5.5189,-5.4762,0.0,0.0,0.0,0.0,-5.4988,-5.4963,-5.1049,-4.9476,-4.8154,-4.8047,-4.8032,-4.8056,-4.8124,-4.8707,-5.0439,-5.4126,-5.416,-5.5446,-5.9539,-5.8863,-5.8321,-5.8829,-5.7543,-5.6697,-5.6697,-5.6765,-5.6867,-5.7036,-5.8321,-5.9066,-5.9133,-5.9844,-6.0588,-6.1298,-6.14,-6.1772,-6.2381,-6.1317,-6.0828,-6.0745,-5.9522,-5.8405,-5.7386,-5.7245,-5.6155,-5.451,-5.451,-5.44,-5.4221,-5.4281,-5.4371,-5.4371,-5.3803,-5.3563,-5.3503,-5.3443,0.0,0.0,0.0,0.0,0.0,0.0,0.0,0.0,0.0,0.0,0.0,0.0,0.0,0.0,0.0,0.0,0.0,0.0,0.0,0.0,0.0,0.0,0.0,0.0,-6.1942,-6.257,-6.3019,-6.263,-6.2301,-6.2211,-6.272,-6.3288,-6.3827,-6.4036,-6.4635,-6.5922,-6.67,-6.7388,-6.8046,-6.8734,0.0,0.0,0.0,-6.6251,-6.4455,-6.3677,-6.266,-6.1463,-6.2181,-6.281,-6.326,-6.2249,-6.1125,-5.9928,-5.8228,-5.6435,-5.4662,-5.4662,-5.4361,-5.3959,-5.4787,-5.4838,-5.4461,-5.4461,-5.4813,-5.5315,-5.1357,-5.0662,-5.0223,-4.9655,-4.9087,-4.8935,-4.9528,-4.9786,-5.1014,-5.4194,-5.5513,-5.6934,-5.8998,-5.9505,-5.9235,-5.8186,-5.6765,-5.5919,-5.5919,-5.6461,-5.734,-5.8524,-5.8863,-5.9302,-5.9877,-6.0655,-6.1129,-6.1298,-6.1907,-6.2245,-6.2381,-6.215,-6.207,-6.1991,-6.0787,-6.0085,-5.9827,-5.8857,-5.7698,-5.6471,-5.6471,-5.5567,-5.4281,-5.479,-5.5329,-5.5837,-5.6196,-5.6017,-5.5559,-5.4999,-5.4431,-5.3922,-5.3354,-5.3084,0.0,0.0,0.0,0.0,0.0,0.0,0.0,0.0,0.0,0.0,0.0,0.0,0.0,0.0,0.0,0.0,0.0,0.0,0.0,-6.26,-6.3677,-6.4126,-6.3199,-6.3408,-6.3438,-6.2959,-6.2989,-6.3139,-6.3228,-6.4216,-6.5173,-6.5951,-6.7119,-6.8076,-6.8764,-6.9423,-6.9722,-6.9542,-6.8405,-6.7597,-6.7208,-6.5503,-6.4246,-6.3468,-6.4665,0.0,-6.4635,-6.4027,-6.2798,-6.117,-5.9391,-5.7299,-5.5239,-5.5239,-5.5164,-5.4938,-5.3833,-5.3582,-5.3858,-5.3858,-5.4235,-5.4787,-5.2937,-5.2078,-5.1429,-5.1095,-5.0494,-5.0266,-5.101,-5.1192,-5.2146,-5.4752,-5.5436,-5.6132,-5.7192,-5.7658,-5.7611,-5.6867,-5.6799,-5.6494,-5.5749,-5.6731,-5.7848,-5.8964,-5.937,-5.9911,-6.0689,-6.1467,-6.1839,-6.1839,-6.2212,-6.2381,-6.2381,-6.2381,-6.2381,-6.2381,-6.1756,-6.1193,-6.0544,-5.9989,-5.9229,-5.8451,-5.8451,-5.8123,-5.7439,-5.6184,-5.6077,-5.6675,-5.6974,-5.6885,-5.6585,-5.6256,-5.5927,-5.5598,-5.5239,-5.494,-5.461,0.0,0.0,0.0,0.0,0.0,0.0,0.0,0.0,0.0,0.0,0.0,0.0,0.0,0.0,-6.0505,-6.1852,0.0,-6.3378,-6.4366,-6.4814,-6.4814,-6.4156,-6.4006,-6.3767,-6.3139,-6.3079,-6.3199,-6.3498,-6.4126,-6.5084,-6.64,-6.7418,-6.8405,-6.9423,-7.0081,-7.044,-7.041,-6.9153,-6.8315,-6.7956,-6.634,-6.5173,-6.4515,-6.5533,-6.5832,-6.5502,-6.5601,-6.4694,-6.2887,-6.1056,-5.9093,-5.7055,-5.5897,-5.5541,-5.5691,-5.4587,-5.4486,-5.4963,-5.4963,-5.5315,-5.5842,-5.4656,-5.3622,-5.2697,-5.2371,-5.1884,-5.1744,-5.2384,-5.2635,-5.3422,-5.5356,-5.5254,-5.5216,-5.5761,-5.5858,-5.5755,-5.531,-5.6765,-5.707,-5.5581,-5.7002,-5.8287,-5.9201,-5.9776,-6.0554,-6.1501,-6.2076,-6.2381,-6.2381,-6.2381,-6.2381,-6.2381,-6.2381,-6.2381,-6.2381,-6.2381,-6.1837,-6.0953,-6.0953,-6.0683,-6.0245,-6.0245,-6.0637,-6.0848,-5.807,-5.7239,-5.7691,-5.7528,-5.7393,-5.7304,-5.7304,-5.7214,-5.7094,-5.7094,-5.6765,-5.6226,-5.5568,-5.5388,0.0,0.0,0.0,0.0,0.0,0.0,0.0,0.0,-5.889,-5.9279,-6.0565,-6.1403,-6.2241,-6.3438,-6.4066,-6.4784,-6.6011,-6.5742,-6.5323,-6.5054,-6.4545,-6.3977,-6.3318,-6.3258,-6.3468,-6.3947,-6.4246,-6.5114,-6.6849,-6.7717,-6.8704,-6.9931,-7.056,-7.0889,-7.0889,-6.9662,-6.8734,-6.8166,-6.6849,-6.5862,-6.5233,-6.5892,-6.6191,-6.6221,-6.6759,-6.6103,-6.439,-6.2053,-6.0318,-5.8894,-5.6637,-5.6093,-5.6646,-5.6219,-5.6369,-5.6821,-5.6495,-5.6721,-5.7198,-5.5611,-5.531,-5.4752,-5.3338,-5.3053,-5.3087,-5.3195,-5.3875,-5.4654,-5.5497,-5.6152,-5.6535,-5.6586,-5.6596,-5.582,-5.3924,-5.5683,-5.6292,-5.4803,-5.6697,-5.8524,-5.9911,-6.0047,-6.0791,-6.2245,-6.2347,-6.2381,-6.2381,-6.2381,-6.2381,-6.2381,-6.2381,-6.2381,-6.2381,-6.2381,-6.2341,-6.2223,-6.2223,-6.1955,-6.1511,-6.1511,-6.1638,-6.1726,-6.0241,-5.9723,-5.9675,-5.91,-5.8501,-5.8022,-5.8022,-5.7603,-5.7094,-5.7094,-5.7034,-5.6885,-5.6256,-5.6128,-5.6068,-5.5918,-5.6795,-5.7962,-5.862,-5.883,-5.9368,0.0,-6.1642,-6.2032,-6.3288,-6.4126,-6.4814,-6.5533,-6.5742,-6.6011,-6.6759,-6.6819,-6.637,-6.5203,-6.4964,-6.4665,-6.3977,-6.3887,-6.3917,-6.3977,-6.5084,-6.6131,-6.6939,-6.8166,-6.9213,-6.9931,-7.056,-7.0889,-7.0889,-6.9662,-6.8974,-6.8884,-6.7567,-6.655,-6.5922,-6.658,-6.6879,-6.6879,-6.6969,-6.6369,-6.4957,-6.0961,-5.9334,-5.9455,-5.7557,-5.7474,-5.8428,-5.8378,-5.8679,-5.8956,-5.7474,-5.7298,-5.7801,-5.6345,-5.5904,-5.539,-5.4693,-5.4605,-5.4811,-5.5285,-5.5632,-5.6005,-5.628,-5.5851,-5.5303,-5.4772,-5.475,-5.4439,-5.3585,-5.5513,-5.6359,-5.531,-5.7306,-5.8998,-6.0047,-6.0554,-6.1298,-6.2381,-6.2381,-6.2381,-6.2381,-6.2381,-6.2381,-6.2381,-6.2381,-6.2381,-6.2381,-6.2381,-6.2381,-6.2381,-6.2381,-6.2784,-6.3383,-6.3383,-6.3957,-6.4652,-6.3404,-6.2904,-6.2524,-5.9579,-5.8351,0.0,-5.8112,-5.7932,-5.7752,-5.8141,-5.7992,-5.7633,-5.7393,-5.7304,-5.7483,-5.8231,-5.856,-5.8949,-6.0027,-6.0565,-6.1164,-6.2391,-6.2959,-6.3468,-6.4395,-6.5144,-6.5682,-6.5951,-6.6311,-6.667,-6.6939,-6.6999,-6.652,-6.5203,-6.5353,-6.5203,-6.4126,-6.4695,-6.5173,-6.5173,-6.5682,-6.643,-6.7478,-6.8076,-6.8854,-6.9931,-7.0231,-7.053,-7.0889,-6.9662,-6.9004,-6.9004,-6.7657,-6.6849,-6.658,-6.7238,-6.7567,-6.7567,-6.7986,-6.7137,-6.5203,-6.3374,-6.1507,-5.9631,-5.8895,-5.8593,-5.873,-5.873,-5.9031,-5.9408,-5.873,-5.8629,-5.883,-5.7152,-5.6638,-5.6235,-5.6235,-5.6235,-5.6381,-5.6748,-5.7005,-5.6969,-5.6528,-5.5541,-5.446,-5.34,-5.3525,-5.3632,-5.3455,-5.5309,-5.6235,-5.5724,-5.756,-5.9084,-6.0047,-6.0858,-6.1637,-6.2381,-6.2381,-6.2381,-6.2381,-6.2381,-6.2381,-6.2381,-6.2381,-6.2381,-6.2381,-6.2381,-6.2381,-6.2381,-6.2381,-6.3226,-6.4613,-6.4613,-6.5493,-6.6686,-6.5426,-6.477,-6.41,-6.0063,-5.8662,-5.858,-5.8008,-5.7842,-5.7962,-5.862,-5.8501,-5.8112,-5.8112,-5.8112,-5.8381,-5.9518,-5.9877,-6.0206,-6.1373,-6.2271,-6.3019,-6.3498,-6.4096,-6.4695,-6.5203,-6.5832,-6.6281,-6.6281,-6.667,-6.6999,-6.6999,-6.6999,-6.661,-6.5473,-6.5712,-6.5652,-6.4665,-6.5413,-6.6071,-6.6251,-6.6281,-6.667,-6.7627,-6.7867,-6.8465,-6.9662,-6.9871,-7.026,-7.0889,-6.9662,-6.9004,-6.9004,-6.7657,-6.6999,-6.6999,-6.7478,-6.7897,-6.8286,-6.8944,-6.819,-6.6329,-6.5781,-6.4088,-6.1685,-6.1219,-6.0783,-6.042,-5.9945,-5.9947,-6.0227,-5.9714,-5.9483,-5.9483,-5.796,-5.7923,-5.7923,-5.7923,-5.7923,-5.7666,-5.6932,-5.7446,-5.7409,-5.5831,-5.5611,-5.4962,-5.34,-5.3958,-5.4161,-5.3364,-5.4741,-5.5624,-5.5588,-5.7011,-5.8495,-6.005,-6.0858,-6.1637,-6.2381,-6.2381,-6.2381,-6.2381,-6.2381,-6.2381,-6.2381,-6.2381,-6.2381,-6.2381,-6.2381,-6.2381,-6.2381,-6.2381,-6.3226,-6.4613,-6.4613,-6.5493,-6.6686,-6.5426,-6.4473,-6.349,-6.0938,-6.0059,-5.9734,-5.7773,-5.7124,-5.7244,-5.7932,-5.8141,-5.8112,-5.8112,-5.8112,-5.8261,-5.8949,-6.0535,-6.2181,-6.2839,-6.3977,-6.4934,-6.4964,-6.5473,-6.5951,-6.5981,-6.649,-6.6969,-6.6969,-6.6969,-6.6999,-6.6999,-6.6999,-6.6759,-6.6071,-6.6011,-6.5981,-6.5951,-6.5981,-6.6251,-6.6909,-6.6969,-6.6969,-6.7029,-6.7597,-6.8286,-6.9004,-6.9632,-7.026,-7.0889,-6.9662,-6.9004,-6.9004,-6.7657,-6.6999,-6.6999,-6.6999,-6.7717,-6.9004,-6.9662,-6.9572,-6.8754,-6.7028,-6.6528,-6.6777,-6.4944,-6.4536,-6.483,-6.2998,-6.2312,-6.2115,-6.0227,-5.9483,-5.9483,-5.7997,-5.7997,-5.7997,-5.7997,-5.7997,-5.7923,-5.7629,-5.7813,-5.7813,-5.7262,-5.6235,0.0,0.0,0.0,0.0,0.0,-5.4204,-5.4796,-5.4788,-5.7241,-5.8853,-5.9319,-6.1105,-6.2183,-6.242,-6.2381,-6.2381,-6.2381,-6.2381,-6.2381,-6.2381,-6.2381,-6.2381,-6.2381,-6.2381,-6.2381,-6.2381,-6.2381,-6.3226,-6.4613,-6.4613,-6.5493,-6.6669,-6.5245,-6.4841,-6.4638,0.0,-5.9693,-5.8499,-5.6988,-5.6765,-5.7214,-5.7902,-5.8112,-5.8201,-5.865,-5.9069,-5.9757,-6.1313,-6.2241,-6.3019,-6.4096,-6.5024,-6.5682,-6.5682,-6.6191,-6.667,-6.667,-6.649,-6.634,-6.634,-6.634,-6.634,-6.634,-6.67,-6.6909,-6.67,-6.667,-6.667,-6.667,-6.667,-6.6759,-6.6969,-6.6999,-6.6999,-6.6999,-6.7208,-6.7807,-6.8944,-6.9213,-6.9812,-7.0859,-6.9662,-6.9004,-6.9004,-6.7657,-6.6999,-6.6999,-6.7897,-6.9004,-7.026,-7.05,-7.026,-6.9632,-6.9025,-6.8144,-6.7036,-6.64,-6.578,-6.5143,-6.4499,-6.3511,-6.2338,-6.1666,-6.0584,-5.9483,-5.7997,-5.7997,-5.7997,-5.7997,-5.7997,0.0,0.0,0.0,0.0,0.0,0.0,0.0,0.0,0.0,0.0,0.0,0.0,-5.4418,-5.4411,-5.6517,-5.8048,-5.8574,-6.0559,-6.1814,-6.2037,-6.2314,-6.2451,-6.2451,-6.246,-6.2446,-6.2408,-6.2402,-6.2381,-6.2381,-6.2381,-6.2381,-6.2415,-6.2685,-6.3802,-6.5358,-6.4816,-6.5662,-6.7015,-6.5256,-6.4715,0.0,-6.1932,-6.0129,-5.8812,-5.7824,-5.7464,-5.7577,-5.8516,-5.8836,-5.8949,-5.9638,-6.0296,-6.1194,-6.2929,-6.3588,-6.4036,-6.5114,-6.5862,-6.637,-6.637,-6.67,-6.6999,-6.6999,-6.646,-6.6011,-6.6011,-6.6011,-6.5922,-6.5712,-6.64,-6.6999,-6.6999,-6.7208,-6.7358,-6.7358,-6.7358,-6.7238,-6.6999,-6.6999,-6.6999,-6.6999,-6.6999,-6.7597,-6.8944,-6.9004,-6.9482,-7.053,-6.9542,-6.8884,-6.8645,-6.7537,-6.6999,-6.6999,-6.8345,-6.9423,-7.0231,-7.0709,-7.0679,-7.032,-7.032,-6.9584,-6.8444,-6.8444,-6.7978,-6.7203,-6.6482,-6.5526,-6.431,-6.3684,-6.2163,-6.0457,-5.7997,-5.7997,-5.7997,0.0,0.0,0.0,0.0,0.0,0.0,0.0,0.0,0.0,0.0,0.0,0.0,0.0,0.0,0.0,-5.4398,-5.5188,-5.6286,-5.7765,-5.9425,-6.0627,-6.1302,-6.2178,-6.2567,-6.2567,-6.2543,-6.2471,-6.247,-6.2374,-6.2358,-6.2279,-6.2279,-6.2279,-6.2313,-6.3024,-6.458,-6.6474,-6.5019,-6.573,-6.7455,-6.5256,-6.4038,-6.3269,-6.2115,-6.1273,-6.06,-6.0109,-5.9144,-5.8399,-5.973,-6.0189,-6.0326,-6.1014,-6.1672,-6.248,-6.3767,-6.4575,-6.5233,-6.5892,-6.652,-6.6999,-6.6999,-6.6999,-6.6969,-6.6939,-6.643,-6.5951,-6.5922,-6.5951,-6.5742,-6.5114,-6.6131,-6.6999,-6.7089,-6.7567,-6.7956,-6.8016,-6.7956,-6.7687,-6.7059,-6.6999,-6.6999,-6.6999,-6.6999,-6.7597,-6.8944,-6.9004,-6.9303,-6.9961,-6.9333,-6.8675,-6.7986,-6.7328,-6.7029,-6.7119,-6.8375,-6.9034,-6.9153,-7.035,-7.0889,-7.0889,-7.0889,-7.0889,-7.0889,-7.0949,-7.0949,-7.0754,-6.9039,-6.8237,-6.7936,-6.6118,-6.4192,-6.2264,0.0,0.0,0.0,0.0,0.0,0.0,0.0,0.0,0.0,0.0,0.0,0.0,0.0,0.0,0.0,0.0,0.0,0.0,-5.4414,-5.6254,-5.7254,-5.703,-5.9673,-6.095,-6.0494,-6.1863,-6.2567,-6.2567,-6.2584,-6.226,-6.1674,-6.1632,-6.1297,-6.0689,-6.0689,-6.0689,-6.0689,-6.0892,-6.1975,-6.3429,-6.2516,-6.3159,-6.4444,-6.2787,-6.2381,-6.2578,-6.1694,-6.1648,-6.1736,-6.0376,-6.0012,-6.029,-6.0714,-6.1172,-6.1702,-6.2391,-6.3019,-6.3797,-6.5144,-6.5622,-6.5922,-6.658,-6.6879,-6.6999,-6.6999,-6.6999,-6.6849,-6.637,-6.5742,-6.5114,-6.4605,-6.4934,-6.5233,-6.5054,-6.6131,-6.7358,-6.8345,-6.7777,-6.7627,-6.8615,-6.7837,-6.7178,-6.6999,-6.6999,-6.6999,-6.6999,-6.6999,-6.7597,-6.8944,-6.9004,-6.9303,-6.9961,-6.9333,-6.8675,-6.7986,-6.7328,-6.7508,-6.8495,-6.8824,-6.9512,-7.044,-7.0769,-7.0889,-7.0889,-7.0889,-7.0889,-7.0949,-7.1427,-7.1637,-7.1631,-7.1711,-7.0526,-6.8803,-6.8291,-6.6552,-6.4427,0.0,0.0,0.0,0.0,0.0,0.0,0.0,0.0,0.0,0.0,0.0,0.0,0.0,0.0,0.0,0.0,0.0,0.0,0.0,-5.5354,-5.6164,-5.6721,-5.8464,-5.9697,-6.0272,-6.1523,-6.2163,-6.2163,-6.2493,-6.2244,-6.1453,-6.143,-6.115,-6.0642,-6.0269,-6.0114,-6.0148,-6.0825,-6.1975,0.0,0.0,-6.3159,-6.4275,-6.2482,-6.2042,-6.2347,-6.1907,-6.2651,-6.3728,-6.2835,-6.2652,-6.2711,-6.2135,-6.2263,-6.266,-6.3288,-6.4156,-6.5114,-6.6161,-6.643,-6.652,-6.6909,-6.6999,-6.6909,-6.664,-6.655,-6.637,-6.5712,-6.5293,-6.4904,-6.4515,-6.4755,-6.5024,-6.5024,-6.5892,-6.7029,-6.8375,-6.7897,-6.7807,-6.8884,-6.8076,-6.7298,-6.7029,-6.6999,-6.6999,-6.6999,-6.6999,-6.7597,-6.8944,-6.9004,-6.9183,-6.9542,-6.9183,-6.8525,-6.7537,-6.7178,-6.7508,-6.8555,-6.8854,-6.9542,-7.05,-7.0769,-7.0889,-7.0889,-7.0889,-7.0889,-7.0949,-7.1607,-7.1876,-7.1966,-7.2654,-7.2023,-7.0731,-7.0438,-6.8872,-6.6876,0.0,0.0,0.0,0.0,0.0,0.0,0.0,0.0,0.0,0.0,0.0,-5.5023,-5.4326,-5.4252,0.0,0.0,0.0,0.0,0.0,0.0,-5.4583,-5.6565,-5.6969,-5.807,-6.0052,-6.097,-6.1484,-6.1594,-6.2231,-6.2209,-6.152,-6.146,-6.1293,-6.1085,-6.0401,-6.0058,-6.0047,-6.1467,-6.2821,-6.3937,-6.3226,-6.3666,-6.4613,0.0,-6.2076,-6.211,-6.2415,-6.3971,-6.5867,-6.6101,-6.5766,-6.5026,-6.385,-6.3446,-6.3468,-6.4096,-6.5144,-6.6251,-6.6819,-6.6999,-6.6999,-6.6999,-6.6999,-6.6819,-6.6161,-6.6011,-6.5802,-6.5054,-6.4964,-6.4934,-6.4904,-6.5024,-6.5114,-6.5054,-6.5652,-6.658,-6.7807,-6.7956,-6.8226,-6.8914,-6.8405,-6.7717,-6.7059,-6.6999,-6.6999,-6.6999,-6.7059,-6.7657,-6.8944,-6.9004,-6.8944,-6.8854,-6.8764,-6.8166,-6.6999,-6.6999,-6.7358,-6.8106,-6.8704,-6.9393,-7.0111,-7.0649,-7.0889,-7.0889,-7.0889,-7.0889,-7.0949,-7.1607,-7.1876,-7.1966,-7.2744,-7.2984,-7.2864,-7.2355,-7.1095,-6.9504,0.0,0.0,0.0,0.0,0.0,0.0,0.0,0.0,0.0,0.0,-5.495,-5.3555,0.0,0.0,0.0,0.0,0.0,0.0,0.0,0.0,0.0,-5.5794,-5.774,-5.8694,-5.8437,-5.9869,-6.0933,-6.1594,-6.1727,-6.1699,-6.1576,-6.1573,-6.0848,-5.9527,-6.0048,-5.99,-5.9268,-6.0148,-6.0655,-6.0825,-6.008,-5.9945,-6.0182,-6.0419,-6.0486,0.0,-6.2651,-6.4749,-6.6703,-6.7334,-6.6799,-6.5867,-6.5669,-6.5159,-6.4814,-6.5473,-6.6221,-6.6849,-6.6969,-6.6999,-6.6999,-6.6999,-6.6999,-6.6819,-6.6161,-6.6011,-6.5652,-6.4425,-6.4635,-6.4844,-6.4276,-6.5084,-6.5652,-6.5114,-6.6041,-6.7089,-6.7867,-6.7956,-6.8226,-6.8914,-6.8405,-6.7717,-6.7059,-6.6999,-6.6999,-6.6999,-6.7478,-6.8166,-6.8944,-6.9004,-6.8734,-6.8166,-6.7627,-6.7238,-6.6999,-6.6999,-6.7597,-6.8824,-6.8944,-6.9602,-7.0739,-7.0859,-7.0889,-7.0889,-7.0889,-7.0889,-7.0949,-7.1607,-7.1876,-7.1996,-7.3253,-7.3402,-7.2954,-7.3402,-7.2992,-7.2127,0.0,0.0,0.0,0.0,0.0,0.0,0.0,-5.7005,-5.6528,-5.7336,-5.6051,-5.4913,-5.4509,-5.4069,-5.3995,0.0,0.0,0.0,0.0,0.0,0.0,-5.6822,-5.7556,-5.818,-5.8621,-5.9391,-5.9979,-6.0346,0.0,-6.0762,-6.0336,-5.9941,-5.9372,-5.858,-5.8496,-5.845,-5.849,-5.9201,-6.0013,-6.0655,-5.9877,-6.0047,-6.0757,-6.0757,-6.1197,0.0,-6.3565,-6.5256,-6.6914,-6.7658,-6.7575,-6.7296,-6.803,-6.7796,-6.7255,-6.7161,-6.7629,-6.7998,-6.7213,-6.6999,-6.6999,-6.6999,-6.6999,-6.6729,-6.5712,-6.5503,-6.5114,-6.3797,-6.4336,-6.4934,-6.4605,-6.5353,-6.5892,-6.5592,-6.6071,-6.6819,-6.7837,-6.7956,-6.8226,-6.8914,-6.8405,-6.7717,-6.7059,-6.6999,-6.6999,-6.6999,-6.7926,-6.8645,-6.8974,-6.9004,-6.8675,-6.7986,-6.7328,-6.6999,-6.6999,-6.7328,-6.8016,-6.9004,-6.9333,-6.9991,-7.0889,-7.0889,-7.0889,-7.0889,-7.0889,-7.0889,-7.0949,-7.1607,-7.1876,-7.2026,-7.3373,-7.3702,-7.3492,-7.4151,-7.421,-7.3881,0.0,0.0,0.0,0.0,0.0,0.0,0.0,-5.7593,-5.7409,-5.84,-5.7666,-5.6895,-5.6418,-5.55,-5.517,0.0,0.0,0.0,0.0,0.0,0.0,0.0,0.0,0.0,-5.8914,0.0,0.0,-5.9184,-5.9832,0.0,0.0,0.0,0.0,0.0,-5.7293,-5.735,-5.7949,-5.8863,-5.9844,0.0,0.0,-6.0723,-6.167,0.0,0.0,0.0,0.0,-6.5696,-6.6914,-6.7658,-6.8049,-6.8572,-7.0045,-6.9938,-6.9223,-6.8806,-6.9157,-6.9432,-6.8266,-6.7939,-6.7939,-6.7939,-6.7939,-6.7574,-6.6237,-6.5672,-6.5134,-6.3807,-6.433,-6.5024,-6.5024,-6.5682,-6.6131,-6.5832,-6.5922,-6.637,-6.7418,-6.7807,-6.8166,-6.8704,-6.8435,-6.7867,-6.7059,-6.7119,-6.7208,-6.7208,-6.8315,-6.9004,-6.9004,-6.9004,-6.8615,-6.7777,-6.7268,-6.6999,-6.6999,-6.7627,-6.8315,-6.9004,-6.9662,-7.032,-7.0889,-7.0889,-7.0889,-7.0889,-7.0889,-7.0889,-7.0949,-7.1457,-7.1757,-7.1996,-7.3223,-7.3762,-7.4001,-7.4809,-7.4988,-7.4899,0.0,0.0,0.0,0.0,0.0,0.0,0.0,-5.84,-5.8437,-5.9979,-5.8841,-5.8143,-5.8781,-5.7519,-5.6602,0.0,0.0,0.0,0.0,0.0,0.0,0.0,0.0,0.0,0.0,0.0,0.0,-5.9184,-5.9258,0.0,0.0,0.0,0.0,0.0,0.0,-5.7913,-5.7983,-5.9404,0.0,0.0,0.0,0.0,0.0,0.0,0.0,0.0,0.0,-6.6102,-6.6914,-6.7658,-6.8384,-6.9275,-7.0726,-7.0353,-6.9436,-6.9979,-7.0627,-7.1201,-7.1004,-7.1036,-7.1036,-7.1036,-7.1036,-7.0654,-6.9222,-6.7959,-6.6585,-6.5201,-6.4934,-6.5024,-6.5024,-6.6071,-6.652,-6.5323,-6.5622,-6.6041,-6.6161,-6.7208,-6.7986,-6.8046,-6.8555,-6.8405,-6.7119,-6.7537,-6.7897,-6.7897,-6.8585,-6.9004,-6.9004,-6.9004,-6.8405,-6.7119,-6.7029,-6.6999,-6.6999,-6.7627,-6.8315,-6.9004,-6.9662,-7.032,-7.0889,-7.0889,-7.0889,-7.0889,-7.0889,-7.0889,-7.0889,-7.0979,-7.1338,-7.1966,-7.2714,-7.3373,-7.4061,-7.5347,-7.5407,-7.4958,0.0,0.0,0.0,0.0,0.0,0.0,-5.9074,-5.851,-5.8731,-6.086,-6.0126,-5.9758,-6.0566,-5.9648,-5.8584,-5.7593,0.0,0.0,0.0,0.0,0.0,0.0,0.0,0.0,0.0,0.0,-5.9612,-5.9942,-5.9942,0.0,0.0,0.0,0.0,0.0,0.0,-5.7947,-5.7915,-5.8524,0.0,0.0,0.0,0.0,0.0,0.0,0.0,0.0,0.0,0.0,-6.6846,-6.7151,-6.8064,-6.9214,-6.9789,-7.0528,-7.1242,-7.1476,-7.174,-7.1909,-7.1509,-7.1388,-7.1388,-7.1388,-7.1068,-7.0492,-6.95,-6.8532,-6.7534,-6.6554,-6.6306,-6.625,-6.625,-6.6642,-6.655,-6.5233,-6.5592,-6.5862,-6.5473,-6.655,-6.7537,-6.7926,-6.8585,-6.8794,-6.8256,-6.8435,-6.8585,-6.8585,-6.8465,-6.8375,-6.8375,-6.8375,-6.7956,-6.7029,-6.6999,-6.6999,-6.6999,-6.8046,-6.8734,-6.9004,-7.0051,-7.0679,-7.0889,-7.0889,-7.0889,-7.0889,-7.0889,-7.0889,-7.0949,-7.1338,-7.1637,-7.1996,-7.3073,-7.3672,-7.4061,-7.5407,-7.5736,-7.5587,0.0,0.0,0.0,0.0,0.0,-5.8621,-5.9404,-5.9281,-5.9648,-6.1374,-6.1117,-6.097,-6.152,-6.0676,-5.9612,-5.8437,-5.8364,0.0,0.0,0.0,0.0,0.0,0.0,0.0,0.0,0.0,-6.0419,-6.0419,-6.0419,-6.0286,0.0,0.0,-5.8757,-5.7736,0.0,0.0,0.0,0.0,0.0,0.0,0.0,0.0,0.0,0.0,0.0,0.0,0.0,0.0,0.0,0.0,0.0,-6.9113,-6.9113,-7.0466,-7.211,-7.2356,-7.2696,-7.2929,-7.2456,-7.2541,-7.2704,-7.2704,-7.2098,-7.1382,-7.0717,-6.9645,-6.8627,-6.7935,-6.7758,-6.7738,-6.7738,-6.8042,-6.7867,-6.6464,-6.6647,-6.6739,-6.6067,-6.6755,-6.7487,-6.7941,-6.8447,-6.8615,-6.8435,-6.8585,-6.8794,-6.9004,-6.8375,-6.7956,-6.7956,-6.7777,-6.7478,-6.6999,-6.6999,-6.6999,-6.6999,-6.8315,-6.9004,-6.9004,-7.029,-7.0889,-7.0889,-7.0889,-7.0889,-7.0889,-7.0889,-7.1009,-7.1218,-7.1697,-7.2116,-7.2565,-7.3522,-7.4001,-7.433,-7.5497,-7.5766,-7.5707,0.0,0.0,0.0,0.0,0.0,0.0,-6.0272,-6.1043,-6.1557,-6.1594,-6.1594,-6.1594,-6.1594,-6.0162,-5.9184,-5.9184,-5.9184,0.0,0.0,0.0,0.0,0.0,0.0,0.0,0.0,0.0,-6.0419,-6.0419,-6.0419,-6.0028,-5.9311,-5.9275,-5.8438,-5.6923,0.0,0.0,0.0,0.0,0.0,0.0,0.0,0.0,-6.1535,0.0,0.0,0.0,0.0,0.0,0.0,0.0,0.0,0.0,0.0,-7.0128,-7.1481,-7.2191,-7.3397,-7.458,-7.458,-7.5087,-7.5662,-7.5662,-7.5087,-7.4343,-7.3599,-7.1785,-7.0074,-6.9349,-6.9242,-6.9276,-6.9276,-7.0406,-7.0885,-6.9479,-6.9255,-6.8999,-6.8275,-6.8092,-6.8126,-6.8126,-6.8031,-6.7717,-6.7089,-6.7597,-6.8256,-6.8944,-6.8375,-6.7956,-6.7956,-6.7358,-6.6999,-6.6999,-6.6999,-6.6999,-6.6999,-6.8315,-6.9004,-6.9004,-7.029,-7.0889,-7.0889,-7.0889,-7.0889,-7.0889,-7.0889,-7.1278,-7.1876,-7.1876,-7.2654,-7.3881,-7.3881,-7.43,-7.4958,-7.5647,-7.5467,-7.5078,0.0,0.0,0.0,0.0,0.0,0.0,0.0,-6.0162,-6.0162,-6.0713,-6.0309,-6.0382,-6.1484,-6.0162,-5.9845,-6.1496,-6.0676,0.0,0.0,0.0,0.0,0.0,0.0,0.0,0.0,-6.201,-6.201,-6.201,-6.201,-6.1935,-6.1697,-6.1697,-6.0818,-5.9284,-5.9284,-5.8656,0.0,0.0,0.0,0.0,0.0,-6.0892,-6.2245,0.0,0.0,0.0,0.0,0.0,0.0,0.0,0.0,0.0,0.0,0.0,0.0,-7.1447,-7.236,-7.3206,-7.3713,-7.4018,-7.4187,-7.4187,-7.3646,-7.3037,-7.28,-7.1849,-7.1056,-7.1324,-7.0977,-7.0787,-7.1327,-7.139,-7.094,-6.9532,-6.9276,-6.8575,-6.639,-6.6447,-6.6704,-6.6668,-6.7876,-6.8585,-6.8375,-6.8136,-6.8076,-6.8286,-6.7687,-6.7298,-6.7298,-6.7119,-6.6999,-6.6999,-6.6999,-6.6999,-6.6999,-6.8315,-6.9004,-6.9004,-7.029,-7.0889,-7.0889,-7.0889,-7.0889,-7.0919,-7.1368,-7.1697,-7.1966,-7.2894,-7.3522,-7.3941,-7.439,-7.4689,-7.4899,-7.5108,-7.5048,-7.4929,0.0,0.0,0.0,0.0,0.0,0.0,0.0,-6.0419,-6.0199,-6.0382,-5.9979,-6.0162,-6.1447,-6.0419,-6.0382,-6.2181,-6.1447,0.0,0.0,0.0,0.0,0.0,0.0,0.0,-6.278,-6.278,-6.278,-6.278,-6.278,-6.278,-6.278,-6.249,-6.1632,-6.0401,-6.0055,-5.9179,0.0,0.0,0.0,0.0,-6.0858,-6.1975,-6.2956,0.0,0.0,0.0,0.0,0.0,0.0,0.0,0.0,0.0,0.0,0.0,0.0,0.0,-7.1413,-7.2157,-7.2868,-7.3274,-7.3477,-7.3477,-7.2935,-7.2394,-7.2394,-7.1853,-7.1515,-7.2259,-7.225,-7.2344,-7.3125,-7.3123,-7.2527,-7.1138,-7.0859,-6.9881,-6.7046,-6.6805,-6.666,-6.6072,-6.7328,-6.8256,-6.8256,-6.7867,-6.7597,-6.7597,-6.7238,-6.6999,-6.6999,-6.6999,-6.6999,-6.6999,-6.6999,-6.7119,-6.7358,-6.8465,-6.9123,-6.9393,-7.041,-7.0889,-7.0889,-7.0889,-7.0889,-7.0949,-7.1607,-7.2026,0.0,-7.3432,-7.4031,-7.43,-7.4719,-7.4869,-7.4869,-7.4869,-7.4869,-7.4869,0.0,0.0,0.0,0.0,0.0,0.0,0.0,-6.1594,-6.13,-6.0529,-6.0419,-6.0713,-6.152,-6.0896,-6.075,-6.1594,0.0,0.0,0.0,0.0,0.0,0.0,0.0,0.0,-6.278,-6.278,-6.278,-6.278,-6.278,-6.278,-6.278,-6.1996,-6.1171,-6.0335,-5.9509,-5.8668,-5.8017,0.0,0.0,0.0,-6.255,-6.3497,0.0,0.0,0.0,0.0,0.0,0.0,0.0,0.0,0.0,0.0,0.0,0.0,0.0,0.0,0.0,0.0,0.0,-7.28,-7.3341,-7.3341,-7.2834,-7.2326,-7.2326,-7.1853,0.0,-7.2326,-7.3071,-7.3781,-7.4492,-7.5202,-7.5202,-7.3713,-7.3477,-7.2472,-6.9529,-6.8433,-6.7433,-6.6072,-6.655,-6.6999,-6.6999,-6.6999,-6.6999,-6.6999,-6.6999,-6.6999,-6.6999,-6.6999,-6.6999,-6.6999,-6.7029,-6.7358,-6.7956,-6.8645,-6.9333,-6.9991,-7.062,-7.0889,-7.0889,-7.0889,-7.0889,-7.0949,-7.1637,-7.2325,-7.2984,-7.3672,-7.433,-7.4869,-7.4869,-7.4869,-7.4869,-7.4869,-7.4869,-7.4869,0.0,0.0,0.0,0.0,0.0,0.0,0.0,0.0,0.0,0.0,-6.0419,-6.0713,-6.152,-6.0896,-6.097,0.0,0.0,0.0,0.0,0.0,0.0,0.0,0.0,0.0,-6.278,-6.278,-6.278,-6.278,-6.278,-6.278,-6.278,-6.1996,-6.1171,-6.0335,-5.9509,-5.8668,-5.7949,-5.9066,0.0,0.0,-6.1975,-6.3328,0.0,0.0,0.0,0.0,-6.6745,-6.6812,0.0,0.0,0.0,0.0,0.0,0.0,0.0,0.0,-7.0297,-7.0601,-7.1379,0.0,-7.1819,-7.1819,-7.1684,-7.1582,0.0,-7.1853,-7.236,-7.3071,-7.3815,-7.439,-7.4593,-7.5202,-7.5202,-7.3713,-7.3477,-7.2323,-6.8997,-6.6917,-6.5609,-6.5263,-6.6281,-6.6999,-6.6999,-6.6999,-6.6999,-6.6999,-6.6999,-6.6999,-6.6999,-6.6999,-6.6999,-6.6999,-6.7478,-6.7807,-6.7956,-6.8645,-6.9333,-6.9991,-7.062,-7.0889,-7.0889,-7.0889,-7.0889,-7.0979,-7.2146,-7.2774,-7.3013,-7.418,-7.4749,-7.4869,-7.4869,-7.4869,-7.4869,-7.4869,-7.4869,-7.4869,0.0,0.0,0.0,0.0,0.0,0.0,0.0,0.0,0.0,0.0,0.0,0.0,0.0,0.0,0.0,0.0,0.0,0.0,0.0,0.0,0.0,0.0,0.0,-6.3392,-6.3392,-6.3759,-6.3943,-6.3943,-6.3943,-6.3943,-6.3918,-6.3085,-6.2247,-6.1428,-6.0555,-6.0393,-6.0774,-6.1757,-6.2224,-6.2429,-6.3832,0.0,0.0,0.0,0.0,0.0,-6.6812,-6.6812,0.0,-6.6812,-6.6812,-6.688,0.0,0.0,0.0,0.0,-6.9654,-7.0297,-7.0703,-7.1041,-7.1312,-7.1312,-7.1312,-7.1312,-7.1312,-7.1887,-7.2597,-7.3341,-7.4086,-7.4728,-7.5033,-7.5168,-7.4931,-7.4119,-7.2875,-7.1024,-6.8197,-6.7331,-6.6735,-6.6049,-6.7177,-6.7759,-6.706,-6.6999,-6.6999,-6.6999,-6.6999,-6.6999,-6.6999,-6.6999,-6.7119,-6.7418,-6.7777,-6.8136,-6.8435,-6.9123,-6.9782,-7.041,-7.0739,-7.0889,-7.0889,-7.0889,-7.1068,-7.1427,-7.2445,-7.3073,-7.3432,-7.445,-7.4869,-7.4869,-7.4869,-7.4869,-7.4869,-7.4869,-7.4869,-7.4869,0.0,0.0,0.0,0.0,0.0,0.0,0.0,0.0,0.0,0.0,0.0,0.0,0.0,0.0,0.0,0.0,0.0,0.0,0.0,0.0,0.0,0.0,0.0,-6.4163,-6.4273,-6.4971,-6.5301,-6.5301,-6.5301,-6.5301,-6.5275,-6.4391,-6.3544,-6.2649,-6.1951,-6.2473,-6.3821,-6.5042,-6.5189,-6.4775,-6.6099,0.0,0.0,0.0,0.0,0.0,0.0,0.0,0.0,-6.6812,-6.6812,-6.6812,-6.6812,0.0,0.0,0.0,0.0,0.0,-7.0161,-7.0804,-7.1447,-7.1345,-7.1312,-7.1312,-7.1312,-7.1954,-7.2732,-7.3341,-7.4187,-7.4897,-7.527,-7.4965,-7.4559,-7.4322,-7.2037,-6.9665,-6.777,-6.8536,-6.8743,-6.7268,-6.8365,-6.859,-6.7152,-6.6999,-6.6999,-6.6999,-6.6999,-6.6999,-6.6999,-6.7089,-6.7388,-6.7956,-6.8166,-6.8555,-6.9153,-6.9692,-7.029,-7.0889,-7.0889,-7.0889,-7.0889,-7.0889,-7.1278,-7.1936,-7.2624,-7.3283,-7.3941,-7.4599,-7.4869,-7.4869,-7.4869,-7.4869,-7.4869,-7.4869,-7.4869,-7.4899,0.0,0.0,0.0,0.0,0.0,0.0,0.0,0.0,0.0,0.0,0.0,0.0,0.0,0.0,0.0,0.0,0.0,0.0,0.0,0.0,0.0,-6.3906,-6.4016,-6.442,-6.5118,-6.5264,-6.5301,-6.5301,-6.5301,-6.5301,-6.5275,-6.4391,-6.3494,-6.2614,-6.2508,-6.2492,-6.2715,-6.3543,-6.3804,-6.3838,-6.5304,0.0,0.0,0.0,0.0,0.0,0.0,0.0,0.0,-6.6812,-6.6812,-6.6812,-6.6812,0.0,0.0,0.0,0.0,0.0,-7.0026,-7.1176,-7.209,-7.1481,-7.1312,-7.1312,-7.1312,-7.236,-7.3341,-7.3477,-7.4559,-7.5168,-7.4052,-7.4255,-7.4187,-7.2935,-7.137,-6.9959,-6.9041,-6.9135,-6.8743,-6.7268,-6.8365,-6.859,-6.7152,-6.6999,-6.6999,-6.6999,-6.6999,-6.6999,-6.6999,-6.7508,-6.7867,-6.7956,-6.9093,-6.9722,-6.9842,-6.9931,-7.029,-7.0889,-7.0889,-7.0889,-7.0889,-7.0889,-7.1278,-7.1936,-7.2624,-7.3283,-7.3941,-7.4599,-7.4869,-7.4869,-7.4869,-7.4869,-7.4869,-7.4869,-7.4869,-7.4958,0.0,0.0,0.0,0.0,0.0,0.0,0.0,0.0,0.0,0.0,0.0,0.0,0.0,0.0,0.0,0.0,0.0,0.0,0.0,0.0,-6.4273,-6.4714,-6.5154,-6.5558,-6.5925,-6.6366,-6.6586,-6.6586,-6.6586,-6.6586,-6.6559,-6.5593,-6.5177,-6.5207,-6.4636,-6.4865,-6.5702,-6.5478,-6.5657,-6.6068,0.0,0.0,0.0,0.0,0.0,0.0,0.0,0.0,0.0,0.0,-6.6812,-6.6812,-6.6812,0.0,0.0,0.0,0.0,0.0,-6.9519,-7.0669,-7.1819,-7.1887,-7.2191,-7.2496,-7.2496,-7.3308,-7.3984,-7.3578,-7.4356,-7.4796,-7.368,-7.3443,-7.2806,-7.0978,-7.1111,-7.0923,-6.9412,-7.0567,-7.1009,-6.9539,-7.0685,-7.1004,-6.9516,-6.9375,-6.9027,-6.8266,-6.8206,-6.7819,-6.706,-6.8456,-6.9032,-6.8588,-7.0274,-7.1003,-7.047,-7.047,-7.062,-7.0889,-7.0889,-7.0889,-7.0889,-7.0889,-7.1457,-7.2445,-7.2774,-7.3492,-7.445,-7.4749,-7.4869,-7.4869,-7.4869,-7.4869,-7.4869,-7.4869,-7.5108,-7.5527,0.0,0.0,0.0,0.0,0.0,0.0,0.0,0.0,0.0,0.0,0.0,0.0,0.0,0.0,0.0,0.0,0.0,0.0,0.0,-6.3906,-6.4751,-6.5558,-6.6366,-6.6769,-6.6769,-6.7357,-6.7687,-6.7687,-6.7871,-6.7863,-6.767,-6.6796,-6.6672,-6.7085,-6.6456,-6.6855,-6.8034,-6.7281,-6.731,-6.7827,0.0,0.0,0.0,0.0,0.0,0.0,0.0,0.0,0.0,0.0,0.0,0.0,0.0,0.0,0.0,-6.6812,-6.7895,-6.9113,-6.9113,-7.0297,-7.1684,-7.2259,-7.28,-7.3274,-7.3443,-7.4052,-7.439,-7.3646,-7.4086,-7.4322,-7.3409,-7.2631,-7.1601,-6.9969,-7.109,-7.1635,-7.0154,-7.1962,-7.301,-7.1722,-7.2775,-7.3018,-7.1551,-7.1388,-7.0893,-6.9802,-6.9688,-6.9201,-6.8087,-6.9917,-7.0748,-7.0037,-7.1992,-7.2551,-7.1473,-7.1439,-7.1247,-7.0889,-7.0889,-7.0889,-7.0919,-7.1068,-7.1787,-7.2924,-7.3073,-7.3791,-7.4869,-7.4869,-7.4869,-7.4869,-7.4869,-7.4869,-7.4899,-7.5048,-7.5557,-7.6215,0.0,0.0,0.0,0.0,0.0,0.0,0.0,0.0,0.0,0.0,0.0,0.0,0.0,0.0,0.0,0.0,0.0,0.0,-6.3943,-6.4751,-6.5595,-6.6366,-6.7173,-6.7614,-6.7614,-6.765,-6.7687,-6.7687,-6.8458,-6.839,-6.7608,-6.7461,-6.6894,-6.6014,-6.6626,-6.6912,-6.692,-6.6837,-6.6829,-6.6862,-6.6812,0.0,0.0,0.0,0.0,0.0,0.0,0.0,0.0,0.0,0.0,0.0,0.0,0.0,-6.6812,-6.6812,-6.7895,-6.9113,-6.9113,-7.0669,-7.2326,-7.2394,-7.2428,-7.2665,-7.3341,-7.4052,-7.439,-7.3646,-7.4086,-7.4187,-7.2732,-7.1887,-7.1334,-7.1176,-7.1255,-7.1571,-7.2088,-7.2957,-7.3211,-7.2381,-7.3105,-7.2998,-7.1551,-7.1388,-7.1333,-7.1224,-7.1224,-7.1201,-7.1059,-7.2445,-7.3235,-7.3186,-7.464,-7.4581,-7.3046,-7.3046,-7.2299,-7.0889,-7.0889,-7.0889,-7.0919,-7.1547,-7.2206,-7.2954,-7.3552,-7.424,-7.4869,-7.4869,-7.4869,-7.4869,-7.4869,-7.4869,-7.4958,-7.5587,-7.6215,-7.6844,0.0,0.0,0.0,0.0,0.0,0.0,0.0,0.0,0.0,0.0,0.0,0.0,0.0,0.0,0.0,0.0,0.0,0.0,-6.4053,-6.5301,-6.6182,-6.6476,-6.7247,-6.7687,-6.7687,-6.7687,-6.7944,-6.8458,-6.8648,-6.8627,-6.8285,-6.7543,-6.6981,-6.6585,-6.6787,-6.6882,-6.6812,-6.6812,-6.6812,-6.6812,-6.6812,-6.6812,0.0,0.0,0.0,0.0,0.0,0.0,0.0,0.0,-6.6812,-6.6812,-6.6812,-6.6812,-6.6914,-6.7354,-6.8267,-6.9316,-7.0229,-7.1413,-7.2496,-7.2969,-7.3443,-7.3849,-7.4119,-7.439,-7.4525,-7.4255,-7.4052,-7.3612,-7.2597,-7.1819,-7.1447,-7.1921,-7.1988,-7.209,-7.236,-7.3443,-7.4067,-7.3826,-7.4448,-7.4687,-7.4156,-7.4073,-7.3719,-7.2861,-7.2757,-7.255,-7.2137,-7.389,-7.469,-7.4164,-7.6062,-7.6266,-7.4703,-7.4703,-7.4407,-7.3778,-7.1855,-7.0889,-7.0919,-7.1577,-7.2265,-7.2954,-7.3612,-7.427,-7.4869,-7.4869,-7.4869,-7.4869,-7.4869,-7.5138,-7.5557,-7.5826,-7.6544,-7.7472,0.0,0.0,0.0,0.0,0.0,0.0,0.0,0.0,0.0,0.0,0.0,0.0,0.0,0.0,0.0,0.0,0.0,0.0,-6.4824,-6.5888,-6.6623,-6.688,-6.7393,-6.7687,-6.7687,-6.7687,-6.8091,-6.8898,-6.879,-6.8399,-6.7845,-6.7258,-6.6846,-6.6603,-6.6731,-6.6812,-6.6779,-6.6542,-6.644,-6.644,-6.6203,-6.6136,0.0,0.0,0.0,0.0,0.0,0.0,0.0,0.0,-6.6271,-6.644,-6.644,-6.6609,-6.6948,-6.7692,-6.8639,-6.9722,-7.0973,-7.2022,-7.2868,-7.3341,-7.3713,-7.3984,-7.4221,-7.4627,-7.4897,-7.4661,-7.4187,-7.3544,-7.2563,-7.2191,-7.209,-7.236,-7.2394,-7.2563,-7.3037,-7.3984,-7.4695,-7.4931,-7.5405,-7.5709,-7.5709,-7.5709,-7.5306,-7.4356,-7.4256,-7.4151,-7.3873,-7.5554,-7.6333,-7.606,-7.7734,-7.7882,-7.6322,-7.6322,-7.6095,-7.5579,-7.3414,-7.2484,-7.2762,-7.3435,-7.3818,-7.4026,-7.4692,-7.4962,-7.4869,-7.4869,-7.4869,-7.4869,-7.4869,-7.5288,-7.5916,-7.6125,-7.6874,-7.7831,0.0,0.0,0.0,0.0,0.0,0.0,0.0,0.0,0.0,0.0,0.0,0.0,0.0,0.0,0.0,0.0,-6.409,-6.4787,-6.6366,-6.6512,-6.688,-6.765,-6.7687,-6.7687,-6.7687,-6.7724,-6.8091,-6.8898,-6.879,-6.7777,-6.6046,-6.6696,-6.6529,-6.573,-6.6474,-6.6812,-6.6745,-6.6,-6.5662,-6.5628,-6.4884,-6.4613,-6.4613,0.0,0.0,0.0,0.0,0.0,0.0,0.0,-6.5087,-6.5696,-6.5696,-6.6203,-6.6948,-6.7692,-6.8977,-7.0364,-7.1142,-7.2394,-7.351,-7.351,-7.2969,-7.2631,-7.3341,-7.4627,-7.5473,-7.4762,-7.4627,-7.4153,-7.2699,-7.3003,-7.324,-7.2529,-7.2428,-7.2935,-7.439,-7.4627,-7.4897,-7.5608,-7.5709,-7.5709,-7.5709,-7.5709,-7.5709,-7.5709,-7.5709,-7.6048,-7.686,-7.7604,-7.8348,-7.9092,-7.9837,-7.9443,-7.7936,-7.7936,-7.7138,-7.5637,-7.5637,-7.6021,-7.6726,-7.7371,-7.7231,-7.6393,-7.7011,-7.6401,-7.4937,-7.4869,-7.4869,-7.4869,-7.4899,-7.5318,-7.5976,-7.6604,-7.7263,-7.7921,0.0,0.0,0.0,0.0,0.0,0.0,0.0,0.0,0.0,0.0,0.0,0.0,0.0,0.0,0.0,0.0,0.0,-6.5154,-6.5632,-6.6733,-6.743,-6.7687,-6.7687,-6.7687,-6.7687,-6.8788,-6.9486,-6.9743,-6.9501,-6.9139,-6.8573,-6.7414,-6.6731,-6.6474,-6.617,-6.6034,-6.5967,-6.5222,-6.4918,-6.4952,-6.5256,-6.5358,-6.5358,0.0,0.0,0.0,0.0,0.0,0.0,0.0,0.0,0.0,-6.5696,-6.6203,-6.7083,-6.8368,-6.9451,-7.0567,-7.236,-7.3544,-7.4289,-7.4289,-7.4492,-7.4492,-7.368,-7.4255,-7.4999,-7.5303,-7.4965,-7.4492,-7.4052,-7.368,-7.3578,-7.3916,-7.395,-7.4119,-7.4559,-7.5067,-7.5439,-7.5676,-7.5709,-7.5709,-7.5709,-7.5709,-7.5709,-7.5709,-7.5709,-7.6284,-7.7604,-7.7874,-7.8551,-7.9837,-8.0073,-7.9972,-7.9495,-7.9495,-7.9288,-7.8802,-7.9388,-7.8574,-7.6726,-7.7371,-7.7836,-7.8019,-7.7492,-7.7061,-7.6502,-7.5354,-7.4869,-7.4929,-7.5407,-7.5976,-7.6634,-7.7263,-7.7921,-7.8519,0.0,0.0,0.0,0.0,0.0,0.0,0.0,0.0,-6.278,-6.278,-6.278,-6.278,0.0,0.0,0.0,-6.3282,-6.4237,-6.5081,-6.5742,-6.6659,-6.7357,-6.7687,-6.8017,-6.8311,-6.8641,-6.9926,-7.0587,-7.0587,-6.9992,-6.9353,-6.8602,-6.709,-6.6373,-6.6339,-6.5595,-6.5256,-6.5222,-6.4478,-6.4343,-6.4613,-6.4783,-6.4986,-6.5256,0.0,0.0,0.0,0.0,0.0,0.0,0.0,0.0,0.0,-6.5155,-6.5764,-6.6779,-6.891,-7.006,-7.1109,-7.3341,-7.4492,-7.4965,-7.4695,-7.4728,-7.4661,-7.4052,-7.4289,-7.4728,-7.5168,-7.5642,-7.5676,-7.4796,-7.4728,-7.4796,-7.4627,-7.4627,-7.4728,-7.4999,-7.5439,-7.5709,-7.5709,-7.5709,-7.5709,-7.5709,-7.5709,-7.5709,-7.5709,-7.5709,-7.6352,-7.7908,-7.7976,-7.8653,-8.0141,-8.0209,-8.0209,-8.0209,-8.0209,-8.0344,-8.0648,-8.1088,-8.0661,-7.9435,-7.9805,-8.0018,-8.006,-7.8093,-7.6931,-7.6268,-7.5316,-7.5048,-7.5318,-7.5736,-7.6455,-7.7263,-7.7652,-7.822,-7.8789,0.0,0.0,0.0,0.0,0.0,0.0,0.0,-6.289,-6.289,-6.278,-6.278,-6.278,0.0,0.0,0.0,-6.3906,-6.4053,-6.4714,-6.6182,-6.6402,-6.6843,-6.765,-6.8531,-6.9376,-7.0183,-7.0954,-7.1264,-7.128,-7.0246,-6.8889,-6.7298,-6.6199,-6.5696,-6.5662,-6.485,-6.4546,-6.4546,-6.3835,-6.3937,-6.4546,-6.4038,-6.4174,-6.4715,-6.4783,0.0,0.0,0.0,0.0,0.0,0.0,0.0,0.0,-6.4377,-6.5121,-6.6271,-6.9147,-7.0601,-7.1751,-7.3849,-7.5033,-7.554,-7.4864,-7.4086,-7.368,-7.4356,-7.4525,-7.4559,-7.4796,-7.6454,-7.7232,-7.51,-7.5912,-7.642,-7.4965,-7.4695,-7.4931,-7.5608,-7.5709,-7.5709,-7.5709,-7.5709,-7.5709,-7.5709,-7.5709,-7.5743,-7.5811,-7.5811,-7.6487,-7.801,-7.8077,-7.8754,-8.0141,-8.0209,-8.0209,-8.0209,-8.0209,-8.0547,-8.1291,-8.1359,-8.2137,-8.349,-8.349,-8.3025,-8.2026,-7.9001,-7.6765,-7.5112,-7.5112,-7.5395,-7.5916,-7.5976,-7.6794,-7.8085,-7.8145,-7.8536,-7.9046,0.0,0.0,0.0,0.0,0.0,0.0,-6.3906,-6.3796,-6.3576,-6.289,-6.278,-6.278,-6.278,-6.278,0.0,-6.3062,-6.3723,-6.4237,-6.4567,-6.5815,-6.6843,-6.765,-6.9082,-7.022,-7.1027,-7.1211,-7.1224,-7.1164,-7.0157,-6.9495,-6.9103,-6.6798,-6.5696,-6.5628,-6.4343,-6.4072,-6.4546,-6.3835,-6.3937,-6.4681,-6.5696,-6.5831,-6.5527,-6.6102,-6.5865,0.0,0.0,0.0,0.0,0.0,0.0,0.0,-6.4377,-6.5121,-6.6034,-6.7861,-6.9789,-7.1548,-7.2597,-7.4255,-7.5676,-7.5506,-7.4458,-7.3544,-7.368,-7.3713,-7.4221,-7.6048,-7.6792,-7.6792,-7.5676,-7.6251,-7.6589,-7.5608,-7.5473,-7.5506,-7.5676,-7.5709,-7.5709,-7.5709,-7.5709,-7.5709,-7.5709,-7.5709,-7.5946,-7.6589,-7.6657,-7.7299,-7.8788,-7.8855,-7.9261,-8.0175,-8.0209,-8.0209,-8.0209,-8.0209,-8.0547,-8.1291,-8.19,-8.2644,-8.349,-8.349,-8.3025,-8.214,-8.1472,-7.9527,-7.68,-7.68,-7.6429,-7.5946,-7.6425,-7.7932,-7.9909,-8.0394,-8.0702,-8.1032,0.0,0.0,0.0,0.0,0.0,0.0,0.0,0.0,-6.4237,-6.2964,-6.278,-6.278,-6.278,-6.278,0.0,0.0,-6.3209,-6.3649,-6.4053,-6.5264,-6.6623,-6.8201,-6.9082,-6.9889,-7.0697,-7.0318,-7.0078,-7.0008,-6.861,-6.8108,-6.8386,-6.6194,-6.4986,-6.4613,-6.3463,-6.3396,-6.4072,-6.3666,-6.4343,-6.573,-6.6508,-6.7015,-6.7354,-6.776,-6.7218,-6.6136,-6.5358,0.0,0.0,0.0,0.0,0.0,0.0,0.0,-6.5527,-6.7354,-6.9248,-7.1075,-7.2529,-7.4018,-7.5168,-7.5168,-7.4052,-7.3138,-7.3883,-7.3747,-7.4018,-7.5912,-7.6893,-7.7063,-7.5912,-7.6657,-7.7029,-7.5879,-7.5709,-7.5709,-7.5709,-7.5709,-7.5709,-7.5709,-7.5709,-7.5709,-7.5709,-7.5709,-7.6014,-7.6826,-7.6893,-7.7536,-7.9025,-7.9126,-7.9431,-8.0175,-8.0209,-8.0209,-8.0209,-8.0547,-8.1088,-8.1832,-8.2577,-8.3321,-8.4031,-8.4031,-8.336,-8.223,-8.223,-8.0793,-7.8502,-7.888,-7.8903,-7.8866,-7.9516,-8.0702,-8.2188,-8.25,-8.2626,-8.2758,0.0,0.0,0.0,0.0,0.0,0.0,0.0,0.0,0.0,-6.3,-6.278,-6.278,-6.278,-6.278,-6.278,0.0,0.0,0.0,-6.4016,-6.5118,-6.6659,-6.8825,-6.9045,-6.9357,-6.984,-6.9153,-6.8656,-6.8303,-6.6777,-6.6138,-6.6466,-6.509,-6.4106,-6.3497,-6.2854,-6.299,-6.3734,-6.3971,-6.5222,-6.7015,-6.7286,-6.8064,-6.9113,-6.9248,-6.8436,-6.7184,-6.7049,-6.573,-6.4038,-6.3802,0.0,0.0,0.0,0.0,-6.5019,-6.7083,-6.8876,-7.0601,-7.2563,-7.395,-7.4728,-7.4492,-7.351,-7.2868,-7.3984,-7.3849,-7.3883,-7.5236,-7.6826,-7.7502,-7.598,-7.6961,-7.7468,-7.5946,-7.5709,-7.5709,-7.5709,-7.5709,-7.5709,-7.5709,-7.5709,-7.5709,-7.5709,-7.5709,-7.6014,-7.6826,-7.7029,-7.7671,-7.9058,-7.9228,-7.9566,-8.0175,-8.0209,-8.0242,-8.0378,-8.0987,-8.1731,-8.2611,-8.3355,-8.4031,-8.464,-8.464,-8.3838,-8.2628,-8.2628,-8.1803,-8.0481,-8.106,-8.1616,-8.2107,-8.2778,-8.3578,-8.4442,-8.4442,-8.4442,-8.4505,0.0,0.0,0.0,0.0,0.0,0.0,0.0,0.0,0.0,0.0,-6.278,-6.278,-6.278,-6.278,-6.278,-6.278,-6.278,-6.3172,-6.4016,0.0,0.0,-6.8862,-6.9559,-6.9644,-6.9001,-6.8878,-6.8008,-6.6345,-6.6123,-6.5313,-6.3968,-6.374,-6.3599,-6.3531,-6.3396,-6.3768,-6.4546,-6.5831,-6.6914,-6.7861,-6.9214,-6.9485,-6.918,-6.9789,-6.9519,-6.8707,-6.7996,-6.7151,-6.617,-6.4884,-6.3971,0.0,0.0,0.0,-6.4918,-6.6508,-6.8504,-7.0398,-7.1345,-7.3544,-7.5236,-7.395,-7.3477,-7.324,-7.28,-7.3105,-7.3713,-7.4593,-7.6487,-7.7502,-7.598,-7.6961,-7.7468,-7.5946,-7.5709,-7.5709,-7.5709,-7.5709,-7.5709,-7.5709,-7.5709,-7.5709,-7.5709,-7.5709,-7.6014,-7.6826,-7.7468,-7.8213,-7.9058,-7.9701,-8.0107,-8.0209,-8.0209,-8.0513,-8.1122,-8.1224,-8.1968,-8.3355,-8.4099,-8.4539,-8.464,-8.464,-8.45,-8.4251,-8.4251,-8.3699,-8.283,-8.2928,-8.2915,-8.2874,-8.297,-8.4299,-8.6179,-8.6179,-8.6179,-8.6393,0.0,0.0,0.0,0.0,0.0,0.0,0.0,0.0,0.0,0.0,0.0,-6.278,-6.278,-6.278,-6.3025,-6.3503,-6.3539,-6.4053,-6.5338,-6.6439,-6.7393,-6.8201,-6.8568,-6.8345,-6.7481,-6.6944,-6.6028,-6.4726,-6.4236,-6.3801,-6.3531,-6.3531,-6.3531,-6.3531,-6.3531,-6.414,-6.529,-6.6373,-6.7489,-6.8673,-6.9755,-7.0263,-7.0432,-7.1142,-7.0973,-7.0364,-7.0398,-6.9417,-6.7996,-6.7354,-6.6339,-6.5358,-6.5222,0.0,0.0,0.0,-6.7489,-6.935,-7.1379,-7.3477,-7.5033,-7.4796,-7.4424,-7.4153,-7.4221,-7.4187,-7.4458,-7.5642,-7.6995,-7.7502,-7.598,-7.6961,-7.7468,-7.5946,-7.5709,-7.5709,-7.5709,-7.5709,-7.5709,-7.5709,-7.5709,-7.5709,-7.5709,-7.5709,-7.6217,-7.7401,-7.7435,-7.8077,-7.9634,-7.9634,-7.9769,-8.0175,-8.0581,-8.0953,-8.1291,-8.2103,-8.305,-8.4133,-8.4471,-8.464,-8.464,-8.464,-8.464,-8.464,-8.508,-8.5039,-8.4723,-8.5158,-8.553,-8.5788,-8.5788,-8.6663,-8.7969,-8.7969,-8.7969,-8.8094,0.0,0.0,0.0,0.0,0.0,0.0,0.0,0.0,0.0,0.0,0.0,-6.3135,-6.3135,0.0,0.0,0.0,-6.42,-6.4787,-6.6402,-6.6696,-6.7063,-6.765,-6.7687,-6.7202,-6.6095,-6.5361,-6.4461,-6.3388,-6.2736,-6.2787,-6.3531,-6.3531,-6.3599,-6.3802,-6.4005,-6.4783,-6.6034,-6.6981,-6.8166,-6.9451,-7.0161,-7.0804,-7.1379,-7.1921,-7.1785,-7.1413,-7.2157,-7.121,-6.962,-6.9451,-6.8504,-6.7218,-6.6271,-6.6373,0.0,0.0,0.0,-6.8774,-7.1413,-7.3071,-7.4221,-7.4965,-7.4728,-7.4458,-7.4999,-7.4864,-7.4931,-7.6082,-7.7198,-7.7502,-7.598,-7.6961,-7.7468,-7.5946,-7.5709,-7.5709,-7.5709,-7.5709,-7.5709,-7.5709,-7.5709,-7.5709,-7.5709,-7.5709,-7.6183,-7.7333,-7.7266,-7.7908,-7.9532,-7.9667,-7.9904,-8.0445,-8.119,-8.1663,-8.1832,-8.3152,-8.4065,-8.464,-8.464,-8.464,-8.464,-8.464,-8.4742,-8.4945,-8.552,-8.579,-8.5858,-8.6602,-8.7245,-8.7753,-8.7922,-8.8328,-8.8835,-8.9004,-8.9207,-8.9444,0.0,0.0,0.0,0.0,0.0,0.0,0.0,0.0,0.0,0.0,0.0,-6.4016,-6.4016,-6.3282,-6.3441,-6.5081,-6.453,-6.4787,-6.6402,-6.721,-6.765,-6.7687,-6.7687,0.0,-6.5098,-6.5032,-6.4183,-6.2459,-6.242,-6.2787,-6.3531,-6.3531,-6.3869,-6.458,-6.5256,-6.6,-6.6846,-6.8335,-6.9417,-7.0195,-7.0973,-7.1278,-7.1312,-7.1345,-7.1345,-7.1413,-7.2157,-7.1887,-7.1075,-7.0364,-6.962,-6.8707,-6.7218,-6.6779,-6.6812,0.0,0.0,0.0,-7.0939,-7.1921,-7.2699,-7.3409,-7.3578,-7.3544,-7.3578,-7.4119,-7.4627,-7.4728,-7.6454,-7.7502,-7.598,-7.6961,-7.7468,-7.5946,-7.5709,-7.5709,-7.5709,-7.5709,-7.5709,-7.5709,-7.5709,-7.5709,-7.5709,-7.5709,-7.5743,-7.5811,-7.713,-7.7976,-7.8077,-8.004,-8.119,-8.1224,-8.1968,-8.2678,-8.3389,-8.4167,-8.4573,-8.464,-8.464,-8.464,-8.464,-8.464,-8.5046,-8.5723,-8.5757,-8.579,-8.5858,-8.6602,-8.6941,-8.7042,-8.7719,-8.8023,-8.8125,-8.8835,-8.9545,-9.0154,0.0,0.0,0.0,0.0,0.0,0.0,0.0,0.0,0.0,0.0,0.0,0.0,0.0,-6.4604,-6.4861,-6.5962,-6.6256,-6.6659,-6.721,-6.754,-6.7687,-6.7687,-6.7687,-6.6845,-6.5032,-6.4999,-6.4358,-6.3125,-6.3125,-6.3734,-6.4884,-6.4444,-6.4613,-6.5324,-6.5561,-6.6102,-6.6914,-6.847,-6.9519,-7.0263,-7.1007,-7.1312,-7.1379,-7.1853,-7.2022,-7.209,-7.2834,-7.2935,-7.2665,-7.2394,-7.1819,-7.1041,-7.0026,-6.935,-6.8774,-6.7793,-6.8267,-6.9316,-7.0331,-7.1142,-7.1988,-7.3206,-7.3849,-7.4221,-7.4221,-7.4796,-7.5439,-7.598,-7.6724,-7.713,-7.6555,-7.7299,-7.7468,-7.5946,-7.5709,-7.5709,-7.5709,-7.5709,-7.5709,-7.5709,-7.5709,-7.5709,-7.5709,-7.5709,-7.5912,-7.642,-7.6487,-7.7367,-7.9295,-7.9701,-8.0547,-8.1968,-8.2712,-8.3456,-8.42,-8.4505,-8.464,-8.464,-8.464,-8.464,-8.464,-8.5148,-8.5249,-8.508,-8.6095,-8.6501,-8.6501,-8.6264,-8.6467,-8.6941,-8.7211,-8.7583,-8.8158,-8.9342,-8.9985,-9.0357,0.0,0.0,0.0,0.0,0.0,0.0,0.0,0.0,0.0,-6.5815,0.0,0.0,0.0,0.0,-6.5442,-6.598,-6.7039,-6.7687,-6.7687,-6.7433,-6.7258,-6.7258,-6.6967,-6.612,-6.4632,-6.4563,-6.4211,-6.3531,-6.3531,-6.4241,-6.5662,-6.4952,-6.485,-6.5358,-6.5831,-6.6474,-6.7286,-6.8808,-7.0026,-7.0939,-7.121,-7.1616,-7.209,-7.2563,-7.2935,-7.324,-7.395,-7.4221,-7.4153,-7.3646,-7.3172,-7.2597,-7.1616,-7.0804,-6.9992,-6.8977,-6.8673,-6.891,-6.9925,-7.0161,-7.0703,-7.2935,-7.368,-7.4086,-7.4796,-7.5337,-7.5845,-7.6386,-7.6487,-7.642,-7.6183,-7.6521,-7.6589,-7.5811,-7.5709,-7.5709,-7.5709,-7.5709,-7.5709,-7.5709,-7.5709,-7.5709,-7.5709,-7.5709,-7.5912,-7.6454,-7.6487,-7.7435,-7.9701,-8.0073,-8.1122,-8.3084,-8.3625,-8.4099,-8.464,-8.464,-8.464,-8.464,-8.464,-8.464,-8.464,-8.5148,-8.5249,-8.5046,-8.5824,-8.6129,-8.6129,-8.5892,-8.5926,-8.6163,-8.6433,-8.6974,-8.782,-8.9275,-9.0154,-9.0763,0.0,0.0,0.0,0.0,0.0,0.0,0.0,0.0,-6.7376,-6.6606,0.0,0.0,0.0,0.0,0.0,-6.5118,-6.6672,-6.7633,-6.7633,-6.6852,-6.6374,-6.6374,0.0,0.0,-6.3754,-6.3718,-6.3652,-6.3565,-6.3565,-6.4309,-6.5662,-6.4952,-6.4613,-6.4647,-6.6136,-6.7218,-6.7996,-6.9553,-7.1075,-7.2326,-7.165,-7.2225,-7.3443,-7.3477,-7.3916,-7.4627,-7.5371,-7.5642,-7.5439,-7.4018,-7.3544,-7.3308,-7.1853,0.0,0.0,0.0,0.0,-6.8335,0.0,0.0,0.0,-7.2462,-7.2902,-7.3003,-7.5134,-7.5676,-7.5676,-7.5676,-7.5676,-7.5439,-7.4695,-7.4593,-7.4796,-7.5506,-7.5642,-7.5676,-7.5709,-7.5709,-7.5709,-7.5709,-7.5709,-7.5709,-7.5709,-7.5709,-7.5709,-7.5709,-7.7096,-7.828,-7.9058,-8.1224,-8.3118,-8.4539,-8.4606,-8.464,-8.464,-8.464,-8.464,-8.464,-8.464,-8.464,-8.4674,-8.4674,-8.508,-8.5757,-8.4979,-8.464,-8.4674,-8.5452,-8.5317,-8.4708,-8.552,-8.6298,-8.711,-8.8632,-9.0087,-9.1406,0.0,0.0,0.0,0.0,0.0,-6.5743,-6.5743,-6.6177,-6.6431,0.0,0.0,0.0,-6.6749,-6.6716,-6.6467,-6.5863,-6.6268,-6.632,-6.5779,-6.5522,-6.5394,-6.5394,-6.5131,-6.4844,-6.4516,-6.4479,-6.4683,-6.5087,-6.5087,-6.529,-6.5662,-6.4952,-6.4613,-6.4647,-6.6136,-6.7218,-6.803,-7.0128,-7.1548,-7.2428,-7.2766,-7.28,-7.2766,-7.3274,-7.3308,-7.3105,-7.3849,-7.4458,-7.4864,-7.4424,-7.4661,-7.4931,-7.3984,0.0,0.0,0.0,0.0,0.0,-6.9586,0.0,0.0,0.0,0.0,0.0,-7.395,-7.4931,-7.554,-7.5033,-7.4897,-7.4695,-7.395,-7.3781,-7.3849,-7.4052,-7.4559,-7.51,-7.5608,-7.5709,-7.5709,-7.5709,-7.5709,-7.5709,-7.5709,-7.5709,-7.5709,-7.5709,-7.6623,-7.7773,-7.9058,-8.1697,-8.3389,-8.3795,-8.4336,-8.464,-8.464,-8.464,-8.464,-8.464,-8.464,-8.4911,-8.5452,-8.5452,-8.5587,-8.5757,-8.5554,-8.5148,-8.464,-8.4843,-8.4809,-8.4809,-8.667,-8.7177,-8.7279,-9.0357,-9.1406,-9.1474,0.0,0.0,-6.5355,-6.5035,-6.4999,-6.5105,-6.5391,-6.5851,-6.6206,0.0,0.0,0.0,-6.7268,-6.6916,-6.653,-6.604,-6.6355,-6.6277,-6.5497,-6.5124,-6.4777,-6.4461,-6.4392,-6.4341,-6.426,-6.4568,-6.5044,-6.5696,-6.5696,-6.5696,-6.5662,-6.5256,-6.4884,-6.4681,-6.6474,-6.7489,-6.8098,-7.1345,-7.2766,-7.2868,-7.2969,-7.3341,-7.3781,-7.3916,-7.4086,-7.4322,-7.4762,-7.5371,-7.5879,-7.4931,-7.51,-7.5574,-7.483,0.0,0.0,0.0,0.0,0.0,0.0,0.0,-6.9519,-7.0804,0.0,0.0,-7.3747,-7.4627,-7.5202,-7.51,-7.483,-7.4492,-7.4052,-7.3713,-7.3578,-7.3916,-7.4052,-7.439,-7.5134,-7.5236,-7.5371,-7.5676,-7.5709,-7.5709,-7.5709,-7.5709,-7.5709,-7.5709,-7.6724,-7.8145,-7.9938,-8.2238,-8.349,-8.349,-8.4234,-8.464,-8.464,-8.4302,-8.4302,-8.464,-8.4302,-8.4573,-8.5317,-8.5317,-8.5317,-8.5317,-8.5317,-8.5046,-8.464,-8.4979,-8.5114,-8.5249,-8.6569,-8.7211,-8.7685,-9.0459,-9.1406,-9.1508,0.0,0.0,-6.5756,-6.5086,-6.498,-6.5192,-6.5828,-6.6004,-6.632,0.0,-6.7834,-6.8004,-6.7142,-6.6401,-6.5987,-6.5883,-6.6629,-6.6813,-6.6109,-6.5259,-6.4539,-6.3952,-6.3733,-6.3666,-6.3768,-6.4377,-6.5087,-6.5797,-6.573,-6.5696,-6.5696,-6.5595,-6.5256,-6.4816,-6.7049,-6.8064,-6.8436,-7.2868,-7.4255,-7.3443,-7.3071,-7.4018,-7.5642,-7.4965,-7.554,-7.6657,-7.6758,-7.713,-7.7333,-7.5371,-7.5168,-7.5608,0.0,0.0,0.0,0.0,-7.1718,0.0,0.0,0.0,0.0,0.0,-7.1785,0.0,-7.3916,-7.4492,-7.4762,-7.5337,-7.4999,-7.4593,-7.4492,-7.395,-7.3713,-7.439,-7.3916,-7.3781,-7.4627,-7.4728,-7.4965,-7.5608,-7.5777,-7.5845,-7.5845,-7.5743,-7.5743,-7.5811,-7.7164,-7.8923,-8.1054,-8.2475,-8.3287,-8.3389,-8.4099,-8.4539,-8.464,-8.3862,-8.3862,-8.4606,-8.3862,-8.393,-8.4742,-8.4674,-8.4674,-8.4742,-8.4674,-8.464,-8.4674,-8.5452,-8.579,-8.579,-8.6061,-8.6907,-8.8192,-8.9748,-9.0729,-9.1508,-6.4625,-6.4789,-6.484,-6.4703,-6.4669,-6.4737,-6.4874,-6.5386,-6.583,-6.6,-6.6683,-6.7046,-6.6874,-6.6697,-6.6391,-6.578,-6.5914,-6.5932,-6.5796,-6.5051,-6.4869,-6.5311,-6.4735,-6.4647,-6.5256,-6.5392,-6.5831,-6.6609,-6.6,-6.5696,-6.5662,-6.5087,-6.5053,-6.5561,-6.7861,-6.918,-6.9992,-7.3849,-7.4728,-7.3646,-7.5337,-7.5879,-7.5676,-7.554,-7.5303,-7.5134,-7.5709,-7.5642,-7.5303,-7.5439,-7.5574,-7.5879,0.0,0.0,0.0,-7.4593,0.0,0.0,0.0,0.0,0.0,-7.0635,-7.1413,0.0,-7.2732,-7.3747,-7.4492,-7.4018,-7.4289,-7.4424,-7.3815,-7.3578,-7.3544,-7.368,-7.3578,-7.395,-7.5303,-7.5473,-7.554,-7.5676,-7.6284,-7.6657,-7.6657,-7.6082,-7.598,-7.6623,-7.7468,-7.8686,-8.031,-8.1257,-8.2002,-8.2611,-8.3321,-8.3998,-8.4553,-8.3862,-8.3862,-8.4606,-8.3862,-8.4234,-8.552,-8.4911,-8.4979,-8.552,-8.4911,-8.464,-8.4674,-8.5452,-8.579,-8.596,-8.7753,-8.826,-8.826,-9.0324,-9.1169,-9.144,-6.5155,-6.5155,-6.5019,-6.4647,-6.4613,-6.4715,-6.5087,-6.5459,-6.5967,-6.6677,-6.7489,-6.7963,-6.7963,-6.7963,-6.7658,0.0,0.0,0.0,-6.6271,-6.5899,-6.5696,-6.5696,-6.5696,-6.5696,-6.5696,-6.6068,-6.6609,-6.7354,-6.6609,-6.6237,-6.6237,-6.5865,-6.6102,-6.688,-6.8808,-7.0466,-7.2022,-7.5033,-7.6284,-7.6284,-7.6284,-7.5845,-7.5168,-7.5168,-7.5168,-7.5168,-7.5168,-7.4695,-7.4221,-7.5337,-7.5709,0.0,-7.6589,-7.6318,-7.5473,0.0,-7.3274,-7.2157,0.0,0.0,0.0,-7.0737,-7.1312,0.0,0.0,-7.2969,-7.351,-7.3477,-7.4086,-7.4492,-7.4119,-7.4356,-7.4593,-7.4593,-7.4289,-7.4424,-7.554,-7.5371,-7.5303,-7.5676,-7.642,-7.6893,-7.6893,-7.6555,-7.6623,-7.7401,-7.7773,-7.8619,-8.0107,-8.0885,-8.146,-8.1832,-8.2577,-8.3152,-8.3524,-8.3152,-8.3321,-8.4065,-8.3693,-8.4099,-8.5182,-8.4809,-8.4843,-8.5182,-8.4809,-8.4843,-8.5249,-8.6027,-8.6569,-8.7008,-8.8125,-8.8531,-8.8734,-9.0222,-9.0966,-9.1406,-6.5899,-6.5899,-6.573,-6.5121,-6.5019,-6.5256,-6.6,-6.6102,-6.6609,-6.7963,-6.8808,-6.9316,-6.9316,-6.9586,-6.9485,0.0,0.0,0.0,-6.7929,-6.7624,-6.7184,-6.6576,-6.7015,-6.6948,-6.6373,-6.6948,-6.7523,-6.8132,-6.7252,-6.6981,-6.7252,-6.6948,-6.7286,-6.8199,-6.9857,-7.1684,-7.3646,-7.6082,-7.7638,-7.8314,-7.6758,-7.6048,-7.5845,-7.5439,-7.554,-7.5777,-7.4593,-7.3883,-7.368,-7.5033,-7.5574,-7.5777,-7.6217,-7.6149,0.0,0.0,0.0,0.0,0.0,0.0,0.0,-7.121,-7.1312,-7.1481,0.0,0.0,0.0,-7.3172,-7.3883,-7.4424,-7.4593,-7.51,-7.5473,-7.5473,-7.51,-7.4965,-7.5439,-7.51,-7.5033,-7.5642,-7.642,-7.6961,-7.7096,-7.7367,-7.7671,-7.7976,-7.8247,-7.8855,-7.9938,-8.0682,-8.1122,-8.1291,-8.1866,-8.234,-8.2611,-8.2475,-8.2847,-8.3693,-8.3558,-8.3896,-8.464,-8.464,-8.464,-8.464,-8.4776,-8.5215,-8.5858,-8.6738,-8.7482,-8.8023,-8.8158,-8.8564,-8.914,-8.9782,-9.0527,-9.1372,-6.6677,-6.6677,-6.6677,-6.6576,-6.6576,-6.6812,-6.7523,-6.7658,-6.7963,0.0,0.0,-7.006,-7.006,-7.1244,-7.1988,0.0,0.0,0.0,-7.1785,-7.0534,-6.9755,-6.9688,-6.9147,-6.8808,-6.8707,-6.8808,-6.8876,-6.8977,-6.7523,-6.7523,-6.8808,-6.7455,-6.759,-6.9045,-7.121,-7.2631,-7.368,-7.6623,-7.7164,-7.6183,-7.7266,-7.8855,0.0,-7.8348,-7.7266,-7.6386,-7.3646,-7.3003,-7.3612,0.0,-7.5168,-7.6048,0.0,-7.7841,-7.6724,-7.6555,0.0,0.0,0.0,0.0,0.0,0.0,-7.1312,-7.1345,-7.1413,0.0,-7.2428,-7.2496,0.0,-7.3815,-7.4492,0.0,0.0,-7.4728,-7.5202,-7.5371,-7.483,-7.5236,-7.5608,-7.5676,-7.642,-7.7164,-7.7807,-7.9058,-7.9329,-7.8077,-7.9194,-7.9735,-7.9261,-7.9938,-8.0615,-8.1257,-8.1359,-8.2035,-8.3355,-8.2746,-8.3118,-8.4505,-8.3828,-8.3896,-8.464,-8.464,-8.464,-8.4674,-8.5351,-8.5723,-8.5892,-8.7279,-8.7922,-8.8057,-8.87,-8.9004,-8.9106,-8.9173,-9.0087,-9.1305,-6.6812,-6.6812,-6.6812,-6.6812,-6.7151,-6.7557,-6.7861,-6.8639,-6.935,0.0,0.0,0.0,0.0,-7.1785,-7.2225,-7.1819,-7.2157,-7.2394,-7.2394,0.0,0.0,-7.0872,-7.0939,-7.0398,-6.9147,-6.9519,-6.9722,-6.9722,-6.8673,0.0,-6.9722,0.0,0.0,-7.0466,-7.1785,-7.3274,-7.4931,-7.7536,-7.8754,-7.8991,0.0,-8.0716,0.0,-7.7536,-7.5303,-7.4119,-7.2834,-7.2326,-7.2326,0.0,-7.4119,0.0,0.0,0.0,0.0,0.0,0.0,0.0,0.0,0.0,0.0,0.0,0.0,0.0,-7.2056,0.0,-7.2293,0.0,0.0,0.0,0.0,0.0,0.0,0.0,-7.5236,-7.5574,-7.527,0.0,-7.5709,-7.5709,-7.642,-7.7198,-7.7908,-7.9329,-7.96,-7.8111,-7.9363,-7.987,-7.916,-7.9803,-8.0344,-8.0648,-8.0648,-8.1156,-8.2205,-8.234,-8.2949,-8.3964,-8.4099,-8.4302,-8.464,-8.464,-8.4877,-8.5317,-8.5655,-8.6264,-8.711,-8.7753,-8.826,-8.8666,-8.897,-8.9072,-8.9072,-8.9072,-8.9748,-9.0729,-6.6812,0.0,-6.6812,-6.6812,-6.7421,-6.803,-6.847,-6.9654,-7.05,-7.05,0.0,0.0,-7.1887,-7.2563,0.0,0.0,-7.3003,-7.3206,-7.3037,0.0,-7.2902,-7.1954,-7.2597,-7.2157,-7.0331,-7.0635,-7.0804,-7.0804,-6.9857,-6.9789,0.0,0.0,0.0,0.0,-7.2597,-7.4018,-7.5845,-7.7908,-7.9295,-8.0107,-8.031,-8.0209,-7.96,-7.6183,-7.3984,-7.2665,-7.2462,-7.2191,-7.2056,-7.3003,-7.3883,0.0,-7.4458,0.0,0.0,0.0,0.0,0.0,-7.3849,0.0,0.0,0.0,0.0,0.0,0.0,0.0,0.0,0.0,0.0,0.0,0.0,0.0,0.0,0.0,0.0,-7.51,0.0,-7.527,0.0,0.0,0.0,-7.7198,-7.7908,-7.9329,-7.9667,-7.8382,-7.9667,-8.0073,-7.916,-7.9803,-8.0209,-8.0209,-8.0412,-8.0851,-8.1596,-8.234,-8.3084,-8.3828,-8.437,-8.464,-8.464,-8.4843,-8.5249,-8.579,-8.623,-8.7008,-8.8023,-8.8226,-8.8598,-8.9072,-8.9072,-8.9072,-8.9072,-8.9072,-8.9681,-9.0594,-6.6812,-6.6812,-6.6812,-6.6812,-6.7421,-6.8402,-6.9891,-7.077,-7.1278,-7.1278,-7.1921,0.0,0.0,0.0,0.0,0.0,0.0,-7.5303,-7.4593,-7.5202,-7.4931,-7.3477,-7.4153,-7.4153,-7.3375,-7.2665,-7.2326,-7.2326,-7.0872,-7.0534,0.0,0.0,0.0,0.0,-7.3883,-7.4965,-7.5811,-7.7367,-7.7638,-7.7096,-7.7807,-7.6352,-7.3916,0.0,-7.4728,-7.3341,-7.2665,0.0,0.0,-7.51,-7.5168,0.0,0.0,0.0,0.0,0.0,0.0,0.0,0.0,0.0,0.0,-7.4559,0.0,0.0,0.0,0.0,-7.4119,0.0,0.0,0.0,0.0,0.0,0.0,0.0,0.0,0.0,0.0,0.0,0.0,0.0,0.0,0.0,0.0,-7.9329,-7.987,0.0,-8.0412,-8.0615,-7.9194,-7.9803,-8.0209,-8.0209,-8.0885,-8.1629,-8.2374,-8.3084,-8.3828,-8.4606,-8.4606,-8.464,-8.464,-8.5418,-8.5757,-8.5858,-8.7313,-8.7955,-8.8057,-8.8767,-8.9072,-8.9072,-8.9072,-8.9072,-8.9072,-8.9072,-9.0019,-9.1271,-6.6914,0.0,-6.6948,-6.7455,-6.8166,-6.9214,-7.0703,-7.1142,-7.1481,-7.1954,-7.1819,0.0,0.0,-7.3003,-7.324,0.0,0.0,-7.4356,-7.4593,-7.5303,-7.527,-7.4289,-7.5912,-7.5777,-7.3544,-7.4187,-7.3883,-7.2394,-7.1887,0.0,0.0,0.0,0.0,0.0,0.0,-7.4999,-7.5845,-7.7874,0.0,0.0,0.0,-7.7096,-7.5676,0.0,-7.4052,-7.28,-7.3037,-7.3274,0.0,-7.4052,-7.4728,-7.5236,-7.4796,-7.5337,-7.5845,-7.4322,-7.4221,-7.4559,0.0,0.0,-7.4728,-7.5202,0.0,0.0,0.0,0.0,0.0,0.0,0.0,0.0,0.0,0.0,0.0,0.0,0.0,0.0,0.0,0.0,0.0,0.0,0.0,0.0,0.0,0.0,0.0,0.0,-8.0175,0.0,-7.9194,-7.9803,-8.0209,-8.0209,-8.0919,-8.1629,-8.2408,-8.3118,-8.3862,-8.464,-8.464,-8.464,-8.464,-8.5418,-8.6061,-8.6569,-8.7583,-8.826,-8.8734,-8.897,-8.9072,-8.9072,-8.9072,-8.9072,-8.9072,-8.9072,-8.9715,-9.0729,-6.7726,-6.7624,-6.7692,-6.7861,-6.8774,-6.9891,-7.1109,-7.1548,-7.1785,0.0,-7.1819,0.0,-7.236,0.0,-7.2124,0.0,-7.2834,-7.3544,-7.4559,-7.5303,0.0,-7.5439,-7.6826,-7.669,0.0,0.0,-7.4627,-7.3172,0.0,-7.2022,0.0,0.0,0.0,0.0,0.0,-7.5574,-7.6589,-7.7807,-7.8314,0.0,0.0,-7.6893,0.0,0.0,-7.4593,-7.3984,0.0,-7.4052,-7.4255,-7.4255,-7.4728,-7.5134,-7.4187,-7.4728,-7.5405,-7.3916,-7.4018,-7.4559,-7.4289,-7.4593,0.0,-7.5574,-7.6284,0.0,-7.6589,0.0,-7.6217,0.0,0.0,0.0,0.0,0.0,0.0,0.0,0.0,0.0,0.0,-7.7583,0.0,0.0,0.0,0.0,0.0,0.0,0.0,0.0,0.0,0.0,0.0,-8.0175,-8.0479,-8.0209,-8.1156,-8.19,-8.2408,-8.3389,-8.4133,-8.464,-8.464,-8.4776,-8.5046,-8.5824,-8.6602,-8.7347,-8.8057,-8.8632,-8.9072,-8.9072,-8.9072,-8.9072,-8.9072,-8.9072,-8.9072,-8.9072,-8.9579,-9.0425,-6.9113,-6.9147,-6.891,-6.8132,-6.9282,-7.0534,-7.121,-7.1921,-7.2157,0.0,-7.1954,-7.236,-7.2394,-7.1751,-7.1582,-7.2293,-7.236,-7.2969,-7.4424,-7.5236,0.0,0.0,-7.6893,-7.6927,-7.6826,0.0,0.0,0.0,0.0,0.0,0.0,0.0,0.0,0.0,-7.5405,0.0,-7.7976,-7.7232,-7.6893,-7.6826,-7.6082,-7.5811,-7.5845,-7.5811,-7.6318,-7.6792,-7.5236,-7.51,-7.5709,-7.5709,-7.5236,-7.4661,-7.4661,-7.4153,-7.3544,-7.3544,-7.4018,-7.439,-7.3713,-7.4559,-7.5676,-7.5743,-7.6318,-7.7096,0.0,0.0,-7.7536,0.0,0.0,0.0,0.0,0.0,0.0,0.0,0.0,0.0,0.0,0.0,0.0,0.0,0.0,0.0,0.0,0.0,0.0,0.0,0.0,0.0,0.0,-8.0885,-8.0953,-8.0209,-8.1629,-8.2408,-8.2408,-8.3862,-8.464,-8.464,-8.4674,-8.508,-8.5824,-8.6602,-8.7347,-8.8023,-8.8767,-8.9072,-8.9072,-8.9072,-8.9072,-8.9072,-8.9072,-8.9072,-8.9072,-8.914,-8.9613,-9.0459,-6.9214,-6.9553,-6.9857,-6.9654,-7.0838,-7.1718,-7.1379,-7.1921,0.0,0.0,-7.1819,-7.1785,-7.2326,-7.1751,-7.1379,-7.1582,-7.1582,0.0,0.0,0.0,0.0,-7.5202,-7.6792,-7.7164,-7.6014,-7.6217,-7.5743,-7.4627,0.0,0.0,-7.2157,0.0,0.0,0.0,0.0,-7.7435,-7.872,-7.7468,-7.6893,-7.6893,-7.669,-7.7266,-7.8179,0.0,-7.7874,-7.828,-7.6183,-7.554,-7.5709,-7.5709,-7.5574,-7.5439,-7.5439,-7.4931,-7.4322,-7.4322,-7.4052,-7.3849,-7.4221,-7.4593,-7.5168,-7.6318,-7.6758,-7.7096,-7.7807,-7.757,0.0,0.0,0.0,0.0,0.0,0.0,0.0,0.0,0.0,0.0,0.0,0.0,0.0,-8.069,0.0,0.0,0.0,0.0,0.0,0.0,0.0,0.0,-8.0242,-8.0885,-8.0953,-8.0209,-8.1629,-8.2408,-8.2408,-8.3862,-8.464,-8.464,-8.5215,-8.5587,-8.5824,-8.7144,-8.782,-8.8023,-8.8767,-8.9072,-8.9072,-8.9072,-8.9072,-8.9072,-8.9072,-8.9072,-8.914,-8.9715,-9.0391,-9.1068,-7.0229,-7.0398,-7.0669,-7.0669,-7.1616,-7.2157,-7.1413,-7.2191,0.0,-7.2868,-7.28,0.0,-7.3308,-7.2699,-7.2259,-7.2259,-7.2259,0.0,-7.3781,0.0,0.0,-7.5574,-7.6487,-7.6758,-7.6251,-7.6318,0.0,-7.51,0.0,0.0,-7.2902,0.0,0.0,0.0,0.0,-7.7908,-7.9498,-7.801,-7.7198,-7.6893,-7.6893,-7.7604,0.0,-7.8145,-7.8247,-7.8416,-7.6792,-7.598,-7.5709,-7.5709,-7.5709,-7.5709,-7.5709,-7.5405,-7.51,-7.51,-7.4796,-7.4492,-7.4593,-7.4864,-7.5202,-7.5777,-7.6149,-7.6657,-7.7739,-7.7671,-7.7468,-7.7807,-7.7232,-7.6758,0.0,0.0,0.0,0.0,0.0,0.0,0.0,0.0,0.0,0.0,-8.2786,0.0,0.0,0.0,0.0,0.0,0.0,0.0,0.0,0.0,-8.1626,-8.0682,-8.2103,-8.2746,-8.2408,-8.4234,-8.4945,-8.464,-8.5418,-8.596,-8.6332,-8.7482,-8.8158,-8.8497,-8.8903,-8.9072,-8.9072,-8.9072,-8.9072,-8.9072,-8.9072,-8.9072,-8.914,-8.9579,-9.0188,-9.0865,0.0,0.0,0.0,0.0,-7.1853,0.0,0.0,-7.2529,0.0,-7.3341,0.0,-7.4356,-7.4458,-7.3883,-7.3477,-7.3477,-7.3477,-7.4086,-7.5473,-7.5067,-7.5337,-7.669,-7.6183,-7.6149,-7.6724,-7.6048,-7.5743,0.0,0.0,0.0,0.0,0.0,0.0,0.0,0.0,0.0,0.0,-7.8653,-7.7638,-7.6893,-7.6995,-7.7468,-7.8145,-7.8145,-7.8077,-7.7908,-7.7266,-7.6521,-7.5845,-7.5845,-7.5912,-7.598,-7.598,-7.598,-7.598,-7.598,-7.598,-7.5845,-7.51,-7.5371,-7.5709,-7.5067,-7.5303,-7.6082,-7.7502,-7.7841,-7.8044,-7.8686,-7.8382,-7.7807,-7.7299,0.0,0.0,0.0,0.0,0.0,0.0,0.0,0.0,0.0,0.0,0.0,0.0,0.0,0.0,0.0,0.0,0.0,0.0,0.0,-8.2466,-8.1342,-8.2644,-8.3152,-8.2712,-8.464,-8.5384,-8.4945,-8.5621,-8.6332,-8.7076,-8.782,-8.8497,-8.9072,-8.9072,-8.9072,-8.9072,-8.9072,-8.9072,-8.9072,-8.9072,-8.9072,-8.9072,-8.9072,-8.9579,-9.029,0.0,0.0,0.0,0.0,0.0,-7.165,-7.2124,-7.2428,-7.2597,-7.2597,-7.2699,-7.3003,-7.3612,-7.3578,-7.3477,-7.3477,-7.3477,0.0,0.0,0.0,0.0,-7.5912,-7.642,-7.6454,-7.5912,-7.5777,-7.6014,0.0,0.0,0.0,0.0,0.0,0.0,0.0,0.0,0.0,-7.8382,-7.8754,0.0,-7.6961,-7.7536,-7.8247,-7.8923,-7.8923,-7.8517,-7.7976,-7.7841,-7.7333,-7.669,-7.669,-7.7096,-7.757,-7.757,-7.757,-7.757,-7.757,-7.757,-7.7435,-7.669,-7.6589,-7.6657,-7.6521,-7.6082,-7.5946,-7.6893,-7.7096,-7.713,-7.7266,-7.7671,-7.8145,-7.8619,0.0,0.0,0.0,0.0,0.0,0.0,0.0,0.0,0.0,0.0,-8.3696,0.0,0.0,0.0,0.0,0.0,0.0,0.0,0.0,-8.2466,0.0,-8.2137,-8.3118,-8.4234,-8.464,-8.5384,-8.6501,-8.6636,-8.711,-8.782,-8.8564,-8.897,-8.9072,-8.9072,-8.9072,-8.9072,-8.9072,-8.9072,-8.9072,-8.9072,-8.9072,-8.9072,-8.9072,-8.9579,-9.0121,0.0,0.0,0.0,0.0,0.0,0.0,0.0,-7.2969,-7.324,-7.4018,-7.4119,-7.439,-7.5168,-7.4897,-7.4627,-7.4627,-7.4999,-7.5405,-7.5777,-7.6487,-7.6893,-7.6893,-7.6893,-7.6724,-7.6318,-7.5912,-7.6284,-7.7468,0.0,0.0,0.0,0.0,0.0,0.0,0.0,-7.9803,0.0,0.0,0.0,-7.7536,-7.828,-7.8788,-7.9126,-7.9126,-7.8889,-7.8517,-7.8145,-7.801,-7.7976,-7.7604,-7.7705,-7.7976,-7.7976,-7.7976,-7.7976,-7.7976,-7.7976,-7.7908,-7.757,-7.7468,-7.7468,-7.7468,-7.7164,-7.7096,-7.7874,-7.7739,-7.7671,-7.845,-7.828,-7.8213,-7.8957,-7.9701,-8.031,0.0,0.0,0.0,0.0,0.0,0.0,0.0,0.0,0.0,0.0,0.0,0.0,0.0,0.0,0.0,0.0,0.0,-8.2638,0.0,0.0,0.0,-8.4031,-8.4843,-8.5587,-8.6332,-8.6738,-8.7279,-8.8023,-8.8734,-8.9072,-8.9072,-8.9072,-8.9072,-8.9072,-8.9072,-8.9072,-8.9072,-8.9072,-8.9072,-8.9072,-8.9072,-8.9309,-8.9613,0.0,-7.2225,0.0,0.0,-7.3206,-7.3544,-7.3713,-7.3713,-7.4153,-7.5303,-7.5473,-7.5777,-7.6555,-7.6082,-7.5777,-7.5946,-7.6521,-7.7029,-7.7367,-7.7908,-7.8213,-7.8213,-7.7671,-7.7232,-7.6893,-7.6284,-7.6555,0.0,0.0,0.0,0.0,0.0,0.0,0.0,0.0,0.0,0.0,0.0,-7.8213,-7.828,-7.8889,-7.9194,-7.9329,-7.916,-7.9126,-7.9025,-7.845,-7.8619,-7.9058,-7.8619,-7.845,-7.845,-7.845,-7.845,-7.845,-7.845,-7.845,-7.8416,-7.828,-7.8213,-7.8179,-7.801,-7.7976,-7.8145,-7.872,-7.8653,-7.8788,-7.9972,-7.9532,-7.916,-7.9904,-8.0242,-8.0581,0.0,0.0,0.0,0.0,0.0,0.0,0.0,0.0,0.0,0.0,0.0,0.0,0.0,0.0,0.0,-8.3485,0.0,0.0,0.0,0.0,-8.4129,-8.4606,0.0,-8.596,-8.6264,-8.6873,-8.7516,-8.826,-8.8835,-8.9072,-8.9072,-8.9072,-8.9072,-8.9072,-8.9072,-8.9072,-8.9072,-8.9072,-8.9072,-8.9072,-8.9072,-8.9072,-8.9173,0.0,0.0,0.0,0.0,0.0,-7.3713,-7.439,-7.4492,-7.4559,-7.4695,-7.4728,-7.4999,-7.5743,-7.5743,-7.598,-7.6724,-7.686,-7.7468,-7.8822,-7.8957,-7.9025,-7.9025,-7.8957,-7.828,-7.6927,-7.6826,-7.686,0.0,0.0,-7.7333,0.0,0.0,0.0,0.0,0.0,0.0,0.0,-7.9058,-7.9025,-7.9025,-7.9092,-7.9498,-8.0006,-7.9363,-7.9126,-7.9092,-7.9025,-7.9058,-7.9194,-7.9803,-8.0006,-8.0006,-8.0006,-8.0006,-8.0006,-8.0006,-8.0006,-7.9837,-7.9194,-7.9025,-7.8855,-7.8145,-7.7976,-7.801,-7.8077,-7.9058,-8.004,-8.0175,-8.1156,-8.2205,-8.2949,-8.2035,-8.1832,-8.3862,0.0,0.0,0.0,0.0,0.0,0.0,0.0,0.0,0.0,-8.671,0.0,0.0,-8.6404,0.0,0.0,0.0,0.0,-8.5118,-8.5125,-8.6163,-8.8273,-8.6655,-8.6467,-8.7786,-8.7854,-8.826,-8.897,-8.9038,-8.9072,-8.9072,-8.9072,-8.9072,-8.9072,-8.9072,-8.9072,-8.9072,-8.9072,-8.9072,-8.9072,-8.9072,-8.9072,-8.9106,0.0,0.0,0.0,0.0,0.0,0.0,0.0,-7.527,-7.527,-7.527,-7.527,-7.5371,-7.5676,-7.5709,-7.6014,-7.6826,-7.7299,-7.801,-7.9058,-7.9532,-7.9769,-7.9769,-7.9363,-7.8822,-7.8247,-7.7773,-7.7773,0.0,0.0,0.0,-7.9769,-8.1257,-8.1494,-8.0615,0.0,-7.9938,-7.9126,-7.9126,-7.9126,-7.916,-7.96,-7.9938,-8.0107,-7.9397,-7.9397,-7.9701,-7.9261,-7.9397,-7.9803,-8.0107,-8.0209,-8.0209,-8.0209,-8.0209,-8.0209,-8.0209,-8.0209,-8.0141,-7.9837,-7.9769,-7.9701,-7.9397,-7.9329,-7.9329,-7.9329,-7.9431,-7.9667,-8.0107,-8.1021,-8.1968,-8.2712,-8.2712,-8.278,-8.3219,0.0,0.0,0.0,0.0,0.0,0.0,0.0,0.0,0.0,0.0,0.0,0.0,0.0,0.0,0.0,0.0,0.0,-8.7877,0.0,-8.5479,-8.8127,-8.6571,-8.6298,-8.7347,-8.7786,-8.8395,-8.9072,-8.9072,-8.9072,-8.9072,-8.9072,-8.9072,-8.9072,-8.9072,-8.9072,-8.9072,-8.9072,-8.9072,-8.9072,-8.9072,-8.9072,-8.9072,-7.4897,0.0,-7.5608,0.0,-7.5506,-7.5709,-7.5709,-7.5709,-7.5777,-7.6014,-7.6048,-7.6048,-7.6048,-7.6251,-7.6792,-7.7773,-7.8517,-7.9261,-8.004,-8.0344,-8.0513,-8.0513,-7.9837,0.0,-7.9126,-7.8585,-7.8483,-7.8788,-8.0242,0.0,-8.0445,-8.0885,-8.0784,-8.0175,-7.9667,-7.9295,-7.9126,-7.9126,-7.9228,-7.9498,-8.0209,-8.0513,-8.0479,-7.9938,-8.0073,-8.0412,-7.9701,-7.9769,-8.0209,-8.0209,-8.0209,-8.0209,-8.0209,-8.0209,-8.0209,-8.0209,-8.0209,-8.0209,-8.0209,-8.0209,-8.0209,-8.0209,-8.0209,-8.0209,-8.0209,-7.9972,-8.004,-8.0987,-8.1765,-8.2441,-8.2949,-8.3287,-8.349,-8.3422,-8.3287,0.0,0.0,-8.2881,0.0,0.0,0.0,-8.3659,-8.3422,-8.5119,0.0,0.0,0.0,0.0,0.0,-8.7305,0.0,0.0,0.0,0.0,-8.7988,-8.6776,-8.6501,-8.7245,-8.7955,-8.8598,-8.9072,-8.9072,-8.9072,-8.9072,-8.9072,-8.9072,-8.9072,-8.9072,-8.9072,-8.9072,-8.9072,-8.9072,-8.9072,-8.9072,-8.9072,-8.9072,-7.554,-7.5676,-7.5946,-7.6724,-7.6217,-7.5709,-7.5709,-7.5709,-7.598,-7.6792,-7.6893,-7.6893,-7.6893,-7.7536,-7.8551,-8.004,-8.0818,-8.1562,-8.2306,-8.1697,-8.1257,0.0,0.0,-7.987,-7.9126,-7.9092,-7.872,-7.801,0.0,0.0,-7.5811,-7.7333,-7.8822,-8.0209,-8.0175,-7.9769,-7.9126,-7.9126,-7.9532,-8.0242,-8.0987,-8.1257,-8.1257,-8.1257,-8.1257,-8.119,-8.0445,-8.0175,-8.0209,-8.0209,-8.0209,-8.0209,-8.0209,-8.0209,-8.0209,-8.0209,-8.0209,-8.0209,-8.0209,-8.0209,-8.0209,-8.0209,-8.0209,-8.0209,-8.0209,-8.075,-8.1663,-8.3152,-8.4065,-8.4573,-8.4606,-8.3998,-8.3998,-8.5486,-8.3896,0.0,0.0,0.0,0.0,0.0,-8.5926,-8.6569,-8.5824,-8.7538,0.0,0.0,-8.8815,-8.865,-8.6547,-8.7596,-8.7769,-8.6561,-8.6414,-8.7142,-8.8786,-8.7561,-8.7279,-8.7989,-8.8734,-8.9072,-8.9072,-8.9072,-8.9072,-8.9072,-8.9072,-8.9072,-8.9072,-8.9072,-8.9072,-8.9072,-8.9072,-8.9072,-8.9072,-8.9072,-8.9072,-8.9072,-7.6646,-7.6521,-7.642,-7.6115,-7.6318,-7.6521,-7.6521,-7.6927,-7.7333,-7.7604,-7.7638,-7.801,-7.9025,-7.845,-7.8585,0.0,-8.0412,-8.1088,0.0,-8.2171,-8.2069,-8.2069,-8.1325,-8.0818,-8.0581,-8.0107,-7.9498,-7.8754,0.0,0.0,-7.8788,-7.9261,-7.9194,-7.872,-7.9228,-7.9329,-7.916,-7.9634,-8.0276,-8.0953,-8.119,-8.1291,-8.1291,-8.1291,-8.0987,-8.0513,-8.0276,-8.0209,-8.0209,-8.0209,-8.0209,-8.0209,-8.0209,-8.0209,-8.0209,-8.0209,-8.0209,-8.0209,-8.0209,-8.0209,-8.0209,-8.0209,-8.0209,-8.0209,-8.0209,-8.1156,-8.2475,-8.3964,-8.4877,-8.5418,-8.5418,-8.5215,-8.5046,-8.5012,-8.4403,-8.4065,-8.4539,0.0,0.0,0.0,-8.5046,-8.5452,-8.5757,-8.6831,0.0,0.0,-9.0296,-9.0696,-8.9413,-8.8426,-8.8343,-8.9307,-8.7172,-8.6886,-8.8786,-8.8072,-8.7753,-8.7989,-8.8734,-8.9072,-8.9072,-8.9072,-8.9072,-8.9072,-8.9072,-8.9072,-8.9072,-8.9072,-8.9072,-8.9072,-8.9072,-8.9072,-8.9072,-8.9072,-8.9072,-8.9072,-7.7411,-7.7299,-7.713,-7.6657,-7.6961,-7.7299,-7.7299,-7.7705,-7.8179,-7.8754,-7.8822,-7.9397,-8.0885,-8.0209,0.0,-8.1325,-8.1697,-8.2238,-8.3186,-8.2983,-8.2813,-8.2813,-8.2103,-8.1697,-8.1697,-8.0987,0.0,-7.9938,-8.0547,-8.0648,-8.0209,-8.0209,-7.9701,-7.8855,-7.9295,-7.9667,-7.9972,-8.0412,-8.1021,-8.1697,-8.1697,-8.1697,-8.1663,-8.1393,-8.0987,-8.0581,-8.031,-8.0209,-8.0209,-8.0209,-8.0209,-8.0209,-8.0209,-8.0209,-8.0209,-8.0209,-8.0209,-8.0209,-8.0209,-8.0209,-8.0276,-8.0547,-8.0818,-8.1156,-8.1731,-8.2813,-8.393,-8.4877,-8.5689,-8.6196,-8.6196,-8.6196,-8.6061,-8.5554,-8.5486,-8.5486,-8.5486,0.0,-8.5689,0.0,0.0,-8.6501,-8.6974,-8.7211,-8.7482,0.0,0.0,-8.9036,-8.8447,-8.85,-8.8485,-8.8426,-8.6678,-8.6525,-8.8037,-8.8042,-8.8125,-8.8395,-8.8869,-8.9072,-8.9072,-8.9072,-8.9072,-8.9072,-8.9072,-8.9072,-8.9072,-8.9072,-8.9072,-8.9072,-8.9072,-8.9072,-8.9072,-8.9072,-8.9072,-8.9072,-7.8025,-7.7976,-7.7976,0.0,-7.8044,-7.8077,-7.8077,-7.8145,-7.872,-8.0107,-8.031,-8.0885,-8.234,-8.2475,-8.278,-8.3524,0.0,0.0,-8.464,-8.3964,-8.3592,-8.3592,-8.2881,-8.2475,-8.2475,-8.1731,-8.1359,-8.1359,-8.0682,-8.0344,-8.0344,-8.0344,-8.0344,-8.0344,-8.0344,-8.0716,-8.1359,-8.1359,-8.1799,-8.2475,-8.2441,-8.2408,-8.234,-8.1562,-8.1257,-8.1122,-8.0445,-8.0209,-8.0209,-8.0209,-8.0209,-8.0209,-8.0209,-8.0209,-8.0209,-8.0209,-8.0209,-8.0209,-8.0242,-8.0276,-8.0445,-8.119,-8.1934,-8.2881,-8.437,-8.5317,-8.5892,-8.5926,-8.6535,-8.7042,-8.7008,-8.6974,-8.6974,-8.6907,-8.6907,-8.6907,-8.6907,-8.6907,-8.7414,-8.8767,-8.8937,-8.897,-8.9004,-8.8361,-8.738,-8.6095,-8.5283,-8.4877,-8.4877,-8.795,-8.8192,-8.4776,-8.5452,-8.623,-8.6974,-8.7719,-8.8395,-8.9072,-8.9072,-8.9072,-8.9072,-8.9072,-8.9072,-8.9072,-8.9072,-8.9072,-8.9072,-8.9072,-8.9072,-8.9072,-8.9072,-8.9072,-8.9072,-8.9072,-8.9072,-8.9072,0.0,0.0,-7.7976,-7.7976,-7.8483,-7.8855,-7.8855,-7.9803,-8.0615,-8.0987,-8.1528,-8.2238,-8.3152,-8.3253,-8.3558,-8.4302,-8.3998,-8.3998,-8.4573,-8.4471,-8.437,-8.437,-8.3625,-8.3253,-8.3253,-8.2509,-8.2137,-8.2137,-8.1968,-8.19,-8.19,-8.19,-8.19,-8.19,-8.19,-8.2002,-8.2137,-8.2137,-8.2577,-8.3186,-8.2644,-8.2408,-8.234,-8.1562,-8.0953,-8.0445,-8.0242,-8.0209,-8.0209,-8.0209,-8.0209,-8.0209,-8.0209,-8.0209,-8.0209,-8.0209,-8.0209,-8.031,-8.0885,-8.1021,-8.1224,-8.1968,-8.2678,-8.3625,-8.5148,-8.6095,-8.6805,-8.7347,-8.8057,-8.8395,-8.7854,-8.7753,-8.755,-8.7008,-8.6907,-8.6907,-8.6907,-8.6907,-8.7042,-8.738,-8.7414,-8.7651,-8.8192,-8.7583,-8.7482,-8.826,-8.7617,-8.7211,-8.7211,-8.798,-8.7559,-8.5554,-8.6264,-8.7008,-8.7719,-8.8463,-8.8903,-8.9072,-8.9072,-8.9072,-8.9072,-8.9072,-8.9072,-8.9072,-8.9072,-8.9072,-8.9072,-8.9072,-8.9072,-8.9072,-8.9072,-8.9072,-8.9072,-8.9072,-8.9072,-8.9072,-7.9986,-7.9367,-7.8991,-7.8991,-7.9329,-7.96,-7.96,-8.0276,-8.1021,-8.1697,-8.2171,-8.2813,-8.3896,-8.3998,-8.4167,-8.4606,-8.4234,-8.42,-8.4606,-8.464,-8.464,-8.464,-8.4234,-8.3998,-8.3998,-8.3287,-8.2746,-8.2408,-8.2408,-8.2408,-8.2408,-8.2408,-8.2408,-8.2408,-8.2408,-8.2611,-8.2915,-8.2915,-8.3118,-8.3422,-8.2712,-8.2205,-8.1832,-8.1054,-8.0547,-8.0209,-8.0209,-8.0209,-8.0209,-8.0209,-8.0209,-8.0242,-8.0581,-8.0682,-8.075,-8.1122,-8.0953,-8.0851,-8.1596,-8.1799,-8.2137,-8.3592,-8.4505,-8.5452,-8.6941,-8.7617,-8.8023,-8.8395,-8.8801,-8.897,-8.8564,-8.8497,-8.8361,-8.7955,-8.7922,-8.7922,-8.7922,-8.7922,-8.7922,-8.7922,-8.7922,-8.8057,-8.8463,-8.7854,-8.7719,-8.8531,-8.7922,-8.7516,-8.7516,-8.7516,-8.7144,-8.6332,-8.7008,-8.7617,-8.7989,-8.8734,-8.9072,-8.9072,-8.9072,-8.9072,-8.9072,-8.9072,-8.9072,-8.9072,-8.9072,-8.9072,-8.9072,-8.9072,-8.9072,-8.9072,-8.9072,-8.9072,-8.9072,-8.9072,-8.9072,-8.9072,-8.1676,-8.0868,-8.0209,-8.0209,-8.0209,-8.0209,-8.0209,-8.0276,-8.0818,-8.2069,-8.2441,-8.305,-8.4302,-8.4539,-8.464,-8.464,-8.464,-8.464,-8.464,-8.464,-8.464,-8.464,-8.464,-8.464,-8.464,-8.3998,-8.3355,-8.2746,-8.2746,-8.2746,-8.2746,-8.2746,-8.2746,-8.2746,-8.2746,-8.3084,-8.3659,-8.3659,-8.3592,-8.3422,-8.2712,-8.1968,-8.119,-8.0479,-8.0209,-8.0209,-8.0209,-8.0209,-8.0209,-8.031,-8.0378,-8.0479,-8.1224,-8.146,-8.1596,-8.234,-8.2103,-8.1765,-8.2408,-8.2746,-8.3389,-8.5452,-8.6535,-8.7414,-8.8767,-8.9072,-8.9072,-8.9072,-8.9072,-8.9072,-8.9072,-8.9072,-8.914,-8.9376,-8.9241,-8.9173,-8.9376,-8.9207,-8.9072,-8.9072,-8.9072,-8.914,-8.9241,-8.8598,-8.8192,-8.8328,-8.755,-8.711,-8.7245,-8.7144,-8.7144,-8.7245,-8.7719,-8.8057,-8.8158,-8.8767,-8.9072,-8.9072,-8.9072,-8.9072,-8.9072,-8.9072,-8.9072,-8.9072,-8.9072,-8.9072,-8.9072,-8.9072,-8.9072,-8.9072,-8.9072,-8.9072,-8.9072,-8.9072,-8.9072,-8.9072,-8.0656,-8.0326,-8.0209,-8.0209,-8.0209,-8.0209,-8.0209,-8.0716,-8.119,-8.1426,-8.2543,-8.3422,-8.3659,-8.4234,-8.464,-8.464,-8.464,-8.464,-8.464,-8.464,-8.464,-8.464,-8.464,-8.464,-8.464,-8.4505,-8.4403,-8.4268,-8.4268,-8.4268,-8.4268,-8.4268,-8.4268,-8.4268,-8.4268,-8.4336,-8.4437,-8.4437,-8.4065,-8.3422,-8.2712,-8.1968,-8.119,-8.0479,-8.0209,-8.0209,-8.0209,-8.0209,-8.031,-8.0919,-8.1122,-8.1257,-8.2002,-8.2238,-8.2374,-8.3118,-8.3253,-8.3186,-8.3287,-8.4268,-8.5486,-8.6501,-8.7279,-8.8057,-8.8903,-8.9072,-8.9072,-8.9072,-8.9072,-8.9072,-8.9072,-8.9072,-8.9478,-9.0763,-8.9884,-8.9512,-9.0763,-8.9884,-8.9072,-8.9072,-8.9072,-8.9342,-8.9985,-8.9342,-8.9173,-8.9816,-8.8598,-8.8091,-8.8734,-8.8158,-8.8091,-8.8734,-8.826,-8.8294,-8.8903,-8.9038,-8.9072,-8.9072,-8.9072,-8.9072,-8.9072,-8.9072,-8.9072,-8.9072,-8.9072,-8.9072,-8.9072,-8.9072,-8.9072,-8.9072,-8.9072,-8.9072,-8.9072,-8.9072,-8.9072,-8.9072,-8.1331,-8.0607,-8.0209,-8.0209,-8.0209,-8.0209,-8.0209,-8.0479,-8.0851,-8.1224,-8.2238,-8.305,-8.3456,-8.4167,-8.464,-8.464,-8.464,-8.464,-8.464,-8.464,-8.464,-8.464,-8.464,-8.464,-8.464,-8.464,-8.464,-8.464,-8.464,-8.464,-8.464,-8.464,-8.464,-8.464,-8.464,-8.464,-8.464,-8.464,-8.3964,-8.2881,-8.2543,-8.1731,-8.0648,-8.031,-8.0209,-8.0242,-8.0648,-8.0784,-8.0885,-8.1629,-8.19,-8.2002,-8.278,-8.2983,-8.3152,-8.3896,-8.4099,-8.4099,-8.4099,-8.4945,-8.596,-8.6738,-8.7448,-8.8192,-8.8903,-8.9072,-8.9072,-8.9072,-8.9072,-8.9072,-8.9072,-8.9072,-8.9309,-8.9985,-8.9512,-8.9309,-9.0019,-8.9512,-8.9241,-8.9647,-8.9681,-8.9985,-9.0729,-9.0493,-9.0425,-9.0763,-9.0154,-8.9748,-8.9681,-8.9376,-8.9173,-8.9072,-8.8767,-8.8734,-8.9072,-8.9072,-8.9072,-8.9072,-8.9072,-8.9072,-8.9072,-8.9072,-8.9072,-8.9072,-8.9072,-8.9072,-8.9072,-8.9072,-8.9072,-8.9072,-8.9072,-8.9072,-8.9072,-8.9072,-8.9072,-8.9072,-8.1757,-8.0804,-8.0209,-8.0209,-8.0209,-8.0209,-8.0209,-8.0209,-8.0412,-8.0953,-8.1832,-8.2644,-8.3186,-8.4065,-8.464,-8.464,-8.464,-8.464,-8.464,-8.4809,-8.4809,-8.464,-8.464,-8.464,-8.464,-8.464,-8.464,-8.464,-8.464,-8.464,-8.464,-8.464,-8.464,-8.464,-8.464,-8.464,-8.4606,-8.4437,-8.3592,-8.2408,-8.2408,-8.1629,-8.0479,-8.0648,-8.0716,-8.0784,-8.1359,-8.1562,-8.1663,-8.2408,-8.2678,-8.278,-8.3524,-8.3761,-8.3862,-8.4437,-8.464,-8.464,-8.464,-8.5182,-8.596,-8.6738,-8.7448,-8.8192,-8.8903,-8.9072,-8.9072,-8.9072,-8.9072,-8.9072,-8.9072,-8.9072,-8.9207,-8.9545,-8.9309,-8.9207,-8.9545,-8.9444,-8.9579,-9.0154,-9.0357,-9.0763,-9.1474,-9.1575,-9.1643,-9.1812,-9.1677,-9.1305,-9.0763,-9.056,-9.0121,-8.9376,-8.9173,-8.9072,-8.9072,-8.9072,-8.9072,-8.9072,-8.9072,-8.9072,-8.9072,-8.9072,-8.9072,-8.9072,-8.9072,-8.9072,-8.9072,-8.9072,-8.9072,-8.9072,-8.9072,-8.9072,-8.9072,-8.9072,-8.9072,-8.9072,-8.0678,-8.0225,-8.0209,-8.0209,-8.0209,-8.0209,-8.0209,-8.0209,-8.0209,-8.0276,-8.1528,-8.2441,-8.2475,-8.3761,-8.464,-8.464,-8.464,-8.464,-8.464,-8.5317,-8.5384,-8.464,-8.464,-8.464,-8.464,-8.464,-8.464,-8.464,-8.464,-8.464,-8.464,-8.464,-8.464,-8.464,-8.464,-8.464,-8.4573,-8.3862,-8.3118,-8.2408,-8.2408,-8.1934,-8.1291,-8.1968,-8.2238,-8.2272,-8.2306,-8.234,-8.2441,-8.3186,-8.3422,-8.3558,-8.4302,-8.4539,-8.4539,-8.4606,-8.464,-8.464,-8.464,-8.5182,-8.596,-8.6738,-8.7448,-8.8192,-8.8903,-8.9072,-8.9072,-8.9072,-8.9072,-8.9072,-8.9072,-8.9072,-8.9545,-9.0899,-8.9985,-8.9579,-9.0932,-9.056,-9.0154,-9.0188,-9.0797,-9.1508,-9.2252,-9.2353,-9.2624,-9.3368,-9.2759,-9.2319,-9.2252,-9.1609,-9.0865,-9.0154,-8.9444,-8.9072,-8.9072,-8.9072,-8.9072,-8.9072,-8.9072,-8.9072,-8.9072,-8.9072,-8.9072,-8.9072,-8.9072,-8.9072,-8.9072,-8.9072,-8.9072,-8.9072,-8.9072,-8.9072,-8.9072,-8.9072,-8.9072,-8.9072,-8.0727,-8.0209,-8.0209,-8.0209,-8.0209,-8.0209,-8.0209,-8.0209,-8.0209,-8.0209,-8.1494,-8.2408,-8.2408,-8.4167,-8.5351,-8.5351,-8.5757,-8.6061,-8.6061,-8.6332,-8.6366,-8.6061,-8.6061,-8.6061,-8.6061,-8.6061,-8.6061,-8.6061,-8.6061,-8.6061,-8.6061,-8.6061,-8.6061,-8.6061,-8.6061,-8.6061,-8.5993,-8.5249,-8.4471,-8.3727,-8.3287,-8.2644,-8.2002,-8.2306,-8.2408,-8.2475,-8.2915,-8.3084,-8.3186,-8.393,-8.42,-8.4234,-8.4539,-8.464,-8.464,-8.464,-8.464,-8.464,-8.464,-8.552,-8.6569,-8.6839,-8.7786,-8.8734,-8.9038,-8.9072,-8.9072,-8.9072,-8.9072,-8.9072,-8.9072,-8.9072,-8.9275,-8.9816,-8.985,-8.9985,-9.0527,-9.0763,-9.1068,-9.1541,-9.1812,-9.2286,-9.3064,-9.3131,-9.3267,-9.3571,-9.33,-9.2928,-9.2455,-9.1711,-9.0966,-9.0222,-8.9918,-8.9545,-8.9072,-8.9072,-8.9072,-8.9072,-8.9072,-8.9072,-8.9072,-8.9072,-8.9072,-8.9072,-8.9072,-8.9072,-8.9072,-8.9072,-8.9072,-8.9072,-8.9072,-8.9072,-8.9072,-8.9072,-8.9072,-8.9072,-8.0861,-8.0209,-8.0209,-8.0209,-8.0209,-8.0209,-8.0209,-8.0209,-8.0276,-8.0513,-8.1832,-8.2847,-8.3084,-8.4945,-8.6129,-8.6129,-8.6602,-8.6907,-8.6907,-8.7144,-8.7144,-8.6941,-8.6907,-8.6907,-8.6907,-8.6907,-8.6907,-8.6907,-8.6907,-8.6907,-8.6907,-8.6907,-8.6907,-8.6907,-8.6907,-8.6771,-8.6501,-8.5757,-8.4979,-8.4234,-8.3693,-8.3186,-8.278,-8.3016,-8.3118,-8.3186,-8.3659,-8.3862,-8.393,-8.4437,-8.464,-8.464,-8.464,-8.464,-8.464,-8.464,-8.464,-8.464,-8.464,-8.5587,-8.6602,-8.6839,-8.782,-8.8801,-8.9038,-8.9072,-8.9072,-8.9072,-8.9072,-8.9072,-8.9072,-8.9072,-8.9173,-8.941,-8.9884,-9.029,-9.0527,-9.1169,-9.1846,-9.2353,-9.2624,-9.2996,-9.3537,-9.3571,-9.3571,-9.3571,-9.3571,-9.3334,-9.2827,-9.2049,-9.1406,-9.0932,-9.0696,-9.029,-8.9782,-8.9309,-8.9072,-8.9072,-8.9072,-8.9072,-8.9072,-8.9072,-8.9072,-8.9072,-8.9072,-8.9072,-8.9072,-8.9072,-8.9072,-8.9072,-8.9072,-8.9072,-8.9072,-8.9072,-8.9072,-8.9072,-8.0997,-8.0209,-8.0209,-8.0209,-8.0209,-8.0209,-8.0209,-8.0209,-8.0479,-8.119,-8.2577,-8.3795,-8.4606,-8.6027,-8.6907,-8.6907,-8.6941,-8.6941,-8.6941,-8.7617,-8.7685,-8.6974,-8.6941,-8.6941,-8.6941,-8.6941,-8.6941,-8.6941,-8.6941,-8.6941,-8.6941,-8.6941,-8.6941,-8.6907,-8.6907,-8.6501,-8.5757,-8.4979,-8.42,-8.3524,-8.3524,-8.3524,-8.3592,-8.4336,-8.464,-8.464,-8.464,-8.464,-8.464,-8.464,-8.464,-8.464,-8.464,-8.464,-8.464,-8.464,-8.464,-8.464,-8.464,-8.5182,-8.596,-8.6738,-8.7448,-8.8192,-8.8903,-8.9072,-8.9072,-8.9072,-8.9072,-8.9072,-8.9106,-8.9106,-8.9342,-9.0087,-9.0222,-9.0493,-9.1203,-9.1947,-9.2421,-9.2421,-9.3098,-9.3571,-9.3571,-9.3571,-9.3571,-9.3571,-9.3571,-9.3571,-9.3571,-9.2861,-9.2421,-9.2421,-9.1711,-9.1305,-9.1305,-8.9816,-8.9128,-8.9106,-8.9128,-8.9128,-8.9072,-8.9072,-8.9072,-8.9072,-8.9072,-8.9072,-8.9072,-8.9072,-8.9072,-8.9072,-8.9072,-8.9072,-8.9072,-8.9072,-8.9072,-8.9072,-8.3177,-8.2103,-8.1731,-8.1731,-8.1731,-8.1731,-8.1731,-8.1731,-8.1832,-8.2035,-8.3355,-8.437,-8.4606,-8.6467,-8.7685,-8.7685,-8.8158,-8.8429,-8.8429,-8.8632,-8.8666,-8.8429,-8.8429,-8.8429,-8.8429,-8.8429,-8.8429,-8.8429,-8.8429,-8.8429,-8.8429,-8.8429,-8.8158,-8.7685,-8.7685,-8.7279,-8.6535,-8.5757,-8.5317,-8.5046,-8.4505,-8.4302,-8.4302,-8.4539,-8.464,-8.464,-8.464,-8.464,-8.464,-8.464,-8.464,-8.464,-8.464,-8.464,-8.464,-8.464,-8.464,-8.464,-8.464,-8.5182,-8.596,-8.6738,-8.7448,-8.8192,-8.8903,-8.9072,-8.9072,-8.9072,-8.9072,-8.9241,-8.9782,-8.9884,-9.0121,-9.0865,-9.1406,-9.1846,-9.2049,-9.2759,-9.3233,-9.3233,-9.3436,-9.3571,-9.3571,-9.3571,-9.3571,-9.3571,-9.3571,-9.3571,-9.3571,-9.3368,-9.2996,-9.2455,-9.2218,-9.1812,-9.1305,-9.1282,-9.0769,-8.985,-9.0255,-8.9962,-8.9072,-8.9072,-8.9072,-8.9072,-8.9072,-8.9072,-8.9072,-8.9072,-8.9072,-8.9072,-8.9072,-8.9072,-8.9072,-8.9072,-8.9072,-8.9072,-8.4131,-8.3152,-8.2746,-8.2475,-8.2408,-8.2408,-8.2408,-8.2408,-8.2509,-8.2813,-8.3896,-8.4843,-8.5452,-8.7008,-8.8125,-8.8395,-8.8835,-8.9072,-8.9072,-8.9072,-8.9072,-8.9072,-8.9072,-8.9072,-8.9072,-8.9072,-8.9072,-8.9072,-8.9072,-8.9072,-8.9072,-8.9072,-8.87,-8.7989,-8.7989,-8.7414,-8.6433,-8.5993,-8.5621,-8.5283,-8.4809,-8.464,-8.464,-8.464,-8.464,-8.464,-8.464,-8.464,-8.464,-8.464,-8.464,-8.464,-8.464,-8.464,-8.464,-8.464,-8.464,-8.464,-8.464,-8.5182,-8.6027,-8.7076,-8.7685,-8.8192,-8.8903,-8.9309,-8.9545,-8.9545,-8.9748,-9.0087,-9.056,-9.0628,-9.0899,-9.1609,-9.2116,-9.2522,-9.2827,-9.33,-9.3571,-9.3571,-9.3571,-9.3571,-9.3571,-9.3571,-9.3571,-9.3571,-9.3571,-9.3571,-9.3571,-9.3571,-9.3368,-9.2895,-9.2895,-9.288,-9.2962,-9.2966,-9.2041,-9.0188,-9.0754,-9.0323,-8.9072,-8.9072,-8.9072,-8.9072,-8.9072,-8.9072,-8.9072,-8.9072,-8.9072,-8.9072,-8.9072,-8.9072,-8.9072,-8.9072,-8.9072,-8.9072,-8.4385,-8.3761,-8.3456,-8.2746,-8.2611,-8.2611,-8.2611,-8.2611,-8.2881,-8.3592,-8.437,-8.5384,-8.6839,-8.7651,-8.8361,-8.9038,-8.9072,-8.9072,-8.9072,-8.9072,-8.9072,-8.9072,-8.9072,-8.9072,-8.9072,-8.9072,-8.9072,-8.9072,-8.9072,-8.9072,-8.9072,-8.9004,-8.8598,-8.7888,-8.782,-8.7008,-8.5689,-8.5689,-8.5283,-8.464,-8.464,-8.464,-8.464,-8.464,-8.464,-8.464,-8.464,-8.464,-8.464,-8.464,-8.464,-8.464,-8.4708,-8.4742,-8.4742,-8.4809,-8.4843,-8.4843,-8.4843,-8.5351,-8.623,-8.7719,-8.8091,-8.8294,-8.9106,-8.9816,-9.029,-9.029,-9.0831,-9.1305,-9.1372,-9.1406,-9.1643,-9.2421,-9.2522,-9.2759,-9.347,-9.3571,-9.3571,-9.3571,-9.3571,-9.3571,-9.3571,-9.3571,-9.3571,-9.3571,-9.3571,-9.3571,-9.3571,-9.3571,-9.3571,-9.3571,-9.3571,-9.4168,-9.5309,-9.4587,-9.2955,-9.0482,-9.091,-9.0391,-8.9072,-8.9072,-8.9072,-8.9072,-8.9072,-8.9072,-8.9072,-8.9072,-8.9072,-8.9072,-8.9072,-8.9072,-8.9072,-8.9072,-8.9072,-8.9072,-8.6486,-8.5689,-8.5046,-8.4268,-8.4133,-8.4133,-8.4133,-8.4133,-8.4437,-8.5182,-8.596,-8.6771,-8.7651,-8.8395,-8.8903,-8.9072,-8.9072,-8.9072,-8.9072,-8.9072,-8.9072,-8.9072,-8.9072,-8.9072,-8.9072,-8.9072,-8.9072,-8.9072,-8.9072,-8.9072,-8.9072,-8.8497,-8.7854,-8.711,-8.6535,-8.5757,-8.4877,-8.4877,-8.4776,-8.464,-8.464,-8.464,-8.464,-8.464,-8.464,-8.464,-8.464,-8.464,-8.464,-8.464,-8.464,-8.4742,-8.5351,-8.552,-8.5655,-8.623,-8.6399,-8.6399,-8.6399,-8.6535,-8.7008,-8.8497,-8.8835,-8.9207,-9.0527,-9.0932,-9.1068,-9.1068,-9.1169,-9.1474,-9.2083,-9.2184,-9.2421,-9.3199,-9.3334,-9.3402,-9.3571,-9.3571,-9.3571,-9.3571,-9.3571,-9.3571,-9.3571,-9.3571,-9.3571,-9.3571,-9.3571,-9.3571,-9.3571,-9.3571,-9.3571,-9.3571,-9.3571,-9.3714,-9.4029,-9.3594,-9.3165,-9.264,-9.2112,-9.0907,-8.9072,-8.9072,-8.9072,-8.9072,-8.9072,-8.9072,-8.9072,-8.9072,-8.9072,-8.9072,-8.9072,-8.9072,-8.9072,-8.9072,-8.9072,-8.9072,-8.7586,-8.6839,-8.6095,-8.5317,-8.4877,-8.464,-8.464,-8.4945,-8.5317,-8.5723,-8.6433,-8.7177,-8.7922,-8.8328,-8.87,-8.9038,-8.9072,-8.9072,-8.9072,-8.9072,-8.9072,-8.9072,-8.9072,-8.9072,-8.9072,-8.9072,-8.9072,-8.9072,-8.9072,-8.8903,-8.8564,-8.8158,-8.7414,-8.6366,-8.596,-8.5351,-8.464,-8.464,-8.464,-8.464,-8.464,-8.464,-8.464,-8.464,-8.464,-8.464,-8.464,-8.4877,-8.5249,-8.5587,-8.5723,-8.579,-8.6196,-8.6332,-8.6399,-8.6805,-8.6907,-8.6907,-8.6907,-8.7177,-8.7786,-8.9241,-8.9884,-9.0324,-9.1102,-9.1575,-9.1812,-9.1812,-9.2116,-9.2522,-9.2895,-9.2962,-9.3098,-9.3503,-9.3571,-9.3571,-9.3571,-9.3571,-9.3571,-9.3571,-9.3571,-9.3571,-9.3571,-9.3571,-9.3571,-9.3571,-9.3571,-9.3571,-9.3571,-9.3571,-9.3571,-9.3571,-9.3233,-9.3311,-9.3986,-9.2878,-9.2439,-9.2773,-9.1958,-9.0701,-8.9072,-8.9072,-8.9072,-8.9072,-8.9072,-8.9072,-8.9072,-8.9072,-8.9072,-8.9072,-8.9072,-8.9072,-8.9072,-8.9072,-8.9072,-8.9072,-8.8074,-8.7414,-8.667,-8.5926,-8.5148,-8.464,-8.464,-8.5182,-8.5621,-8.5757,-8.6332,-8.7042,-8.7922,-8.8091,-8.8429,-8.9038,-8.9072,-8.9072,-8.9072,-8.9207,-8.9275,-8.9275,-8.941,-8.9478,-8.9478,-8.9478,-8.9342,-8.9072,-8.897,-8.8598,-8.7989,-8.7753,-8.6974,-8.579,-8.5655,-8.5215,-8.464,-8.4776,-8.4809,-8.4843,-8.4945,-8.5012,-8.5012,-8.5012,-8.5012,-8.5012,-8.5012,-8.5418,-8.6061,-8.6704,-8.6907,-8.6941,-8.7076,-8.711,-8.711,-8.7245,-8.7279,-8.7279,-8.7279,-8.7719,-8.8531,-9.0019,-9.0865,-9.1372,-9.1609,-9.2184,-9.2624,-9.2624,-9.3131,-9.3571,-9.3571,-9.3571,-9.3571,-9.3571,-9.3571,-9.3571,-9.3571,-9.3571,-9.3571,-9.3571,-9.3571,-9.3571,-9.3571,-9.3571,-9.3571,-9.3571,-9.3571,-9.3571,-9.3571,-9.347,-9.3368,-9.3368,-9.2624,-9.2782,-9.3833,-9.2033,-9.1317,-9.1815,-9.1038,-9.0089,-8.9072,-8.9072,-8.9072,-8.9072,-8.9072,-8.9072,-8.9072,-8.9072,-8.9072,-8.9072,-8.9072,-8.9072,-8.9072,-8.9072,-8.9072,-8.9072,-8.8011,-8.7414,-8.667,-8.5926,-8.5148,-8.464,-8.464,-8.4708,-8.5012,-8.5689,-8.5892,-8.6467,-8.7854,-8.8564,-8.897,-8.9072,-8.9072,-8.9072,-8.9072,-8.9681,-9.0053,-9.0053,-9.0662,-9.1,-9.1,-9.1,-9.0357,-8.9072,-8.8463,-8.8091,-8.7955,-8.667,-8.596,-8.5757,-8.508,-8.4708,-8.4674,-8.5351,-8.5621,-8.5689,-8.6332,-8.6602,-8.6602,-8.6602,-8.6602,-8.6602,-8.6602,-8.667,-8.6771,-8.6873,-8.6907,-8.7008,-8.7651,-8.7854,-8.7989,-8.8598,-8.8801,-8.8801,-8.8801,-8.8869,-8.9309,-9.0763,-9.1237,-9.1643,-9.2962,-9.3368,-9.3436,-9.3436,-9.3503,-9.3571,-9.3571,-9.3571,-9.3571,-9.3571,-9.3571,-9.3571,-9.3571,-9.3571,-9.3571,-9.3571,-9.3571,-9.3571,-9.3571,-9.3571,-9.3571,-9.3571,-9.3571,-9.3571,-9.3571,-9.2928,-9.259,-9.259,-9.1846,-9.1555,-9.175,-9.081,-9.0403,-9.0437,-8.9746,-8.9295,-8.9072,-8.9072,-8.9072,-8.9072,-8.9072,-8.9072,-8.9072,-8.9072,-8.9072,-8.9072,-8.9072,-8.9072,-8.9072,-8.9072,-8.9072,-8.9072,-8.8663,-8.8023,-8.7279,-8.6535,-8.579,-8.5114,-8.4674,-8.4979,-8.5384,-8.5723,-8.6501,-8.7279,-8.7922,-8.8632,-8.9241,-8.9681,-8.9715,-8.9884,-9.029,-9.0628,-9.0628,-9.0222,-9.0899,-9.0899,-9.0087,-9.0459,-9.0154,-8.9072,-8.9173,-8.9004,-8.8564,-8.7516,-8.6805,-8.6399,-8.6061,-8.5892,-8.5926,-8.6264,-8.6399,-8.6433,-8.6771,-8.6907,-8.6907,-8.6907,-8.6907,-8.6974,-8.738,-8.7516,-8.7583,-8.7989,-8.8125,-8.8192,-8.8497,-8.8598,-8.8666,-8.897,-8.9072,-8.9072,-8.9072,-8.9072,-8.9444,-9.0932,-9.1305,-9.1711,-9.3233,-9.3571,-9.3571,-9.3571,-9.3571,-9.3571,-9.3571,-9.3571,-9.3571,-9.3571,-9.3571,-9.3571,-9.3571,-9.3571,-9.3571,-9.3571,-9.3571,-9.3571,-9.3571,-9.3571,-9.3571,-9.3571,-9.3571,-9.3571,-9.3571,-9.2861,-9.2421,-9.2421,-9.1305,-9.0696,-9.0696,-8.9951,-8.9579,-8.9579,-8.9241,-8.9072,-8.9072,-8.9072,-8.9072,-8.9072,-8.9072,-8.9072,-8.9072,-8.9072,-8.9072,-8.9072,-8.9072,-8.9072,-8.9072,-8.9072,-8.9072,-8.9072]},{"header":{"parameterUnit":"m.s-1","parameterCategory":1,"la1":30.6,"la2":28.766,"lo1":-90.7593,"lo2":-88.6598,"dx":0.0162,"dy":0.0183,"nx":116,"ny":114,"refTime":"2022-12-24T18:00:00:Z","depth":0,"parameterNumber":3,"parameterNumberName":"V-component_of_WINDS"},"data":[0.0,0.0,0.0,0.0,0.0,0.0,0.0,0.0,0.0,0.0,0.0,0.0,0.0,0.0,0.0,0.0,0.0,0.0,0.0,0.0,0.0,0.0,0.0,0.0,0.0,0.0,0.0,0.0,0.0,0.0,0.0,0.0,0.0,0.0,0.0,0.0,0.0,0.0,0.0,0.0,0.0,0.0,0.0,0.0,0.0,0.0,0.0,0.0,0.0,0.0,0.0,0.0,0.0,0.0,0.0,0.0,0.0,0.0,0.0,0.0,0.0,0.0,0.0,0.0,0.0,0.0,0.0,0.0,0.0,0.0,0.0,0.0,0.0,0.0,0.0,0.0,0.0,0.0,0.0,0.0,0.0,0.0,0.0,0.0,0.0,0.0,0.0,0.0,0.0,0.0,0.0,0.0,0.0,0.0,0.0,0.0,0.0,0.0,0.0,0.0,0.0,0.0,0.0,0.0,0.0,0.0,0.0,0.0,0.0,0.0,0.0,0.0,0.0,0.0,0.0,0.0,0.0,0.0,0.0,0.0,0.0,0.0,0.0,0.0,0.0,0.0,0.0,0.0,0.0,0.0,0.0,0.0,0.0,0.0,0.0,0.0,0.0,0.0,0.0,0.0,0.0,0.0,0.0,0.0,0.0,0.0,0.0,0.0,0.0,0.0,0.0,0.0,0.0,0.0,0.0,0.0,0.0,0.0,0.0,0.0,0.0,0.0,0.0,0.0,0.0,0.0,0.0,0.0,0.0,0.0,0.0,0.0,0.0,0.0,0.0,0.0,0.0,0.0,0.0,0.0,0.0,0.0,0.0,0.0,0.0,0.0,0.0,0.0,0.0,0.0,0.0,0.0,0.0,0.0,0.0,0.0,0.0,0.0,0.0,0.0,0.0,0.0,0.0,0.0,0.0,0.0,0.0,0.0,0.0,0.0,0.0,0.0,0.0,0.0,0.0,0.0,0.0,0.0,0.0,0.0,0.0,0.0,0.0,0.0,0.0,0.0,0.0,0.0,0.0,0.0,0.0,0.0,0.0,0.0,0.0,0.0,0.0,0.0,0.0,0.0,0.0,0.0,0.0,0.0,0.0,0.0,0.0,0.0,0.0,0.0,0.0,0.0,0.0,0.0,0.0,0.0,0.0,0.0,0.0,0.0,0.0,0.0,0.0,0.0,0.0,0.0,0.0,0.0,0.0,0.0,0.0,0.0,0.0,0.0,0.0,0.0,0.0,0.0,0.0,0.0,0.0,0.0,0.0,0.0,0.0,0.0,0.0,0.0,0.0,0.0,0.0,0.0,0.0,0.0,0.0,0.0,0.0,0.0,0.0,0.0,0.0,0.0,0.0,0.0,0.0,0.0,0.0,0.0,0.0,0.0,0.0,0.0,0.0,0.0,0.0,0.0,0.0,0.0,0.0,0.0,0.0,0.0,0.0,0.0,0.0,0.0,0.0,0.0,0.0,0.0,0.0,0.0,0.0,0.0,0.0,0.0,0.0,0.0,0.0,0.0,0.0,0.0,0.0,0.0,0.0,0.0,0.0,0.0,0.0,0.0,0.0,0.0,0.0,0.0,0.0,0.0,0.0,0.0,0.0,0.0,0.0,0.0,0.0,0.0,0.0,0.0,0.0,0.0,0.0,0.0,0.0,0.0,0.0,0.0,0.0,0.0,0.0,0.0,0.0,0.0,0.0,0.0,0.0,0.0,0.0,0.0,0.0,0.0,0.0,0.0,0.0,0.0,0.0,0.0,0.0,0.0,0.0,0.0,0.0,0.0,0.0,0.0,0.0,0.0,0.0,0.0,0.0,0.0,0.0,0.0,0.0,0.0,0.0,0.0,0.0,0.0,0.0,0.0,0.0,0.0,0.0,0.0,0.0,0.0,0.0,0.0,0.0,0.0,0.0,0.0,0.0,0.0,0.0,0.0,0.0,0.0,0.0,0.0,0.0,0.0,0.0,0.0,0.0,0.0,0.0,0.0,0.0,0.0,0.0,0.0,0.0,0.0,0.0,0.0,0.0,0.0,0.0,0.0,0.0,0.0,0.0,0.0,0.0,0.0,0.0,0.0,0.0,0.0,0.0,0.0,0.0,0.0,0.0,0.0,0.0,0.0,0.0,0.0,0.0,0.0,0.0,0.0,0.0,0.0,0.0,0.0,0.0,0.0,0.0,0.0,0.0,0.0,0.0,0.0,0.0,0.0,0.0,0.0,0.0,0.0,0.0,0.0,0.0,0.0,0.0,0.0,0.0,0.0,0.0,0.0,0.0,0.0,0.0,0.0,0.0,0.0,0.0,0.0,0.0,0.0,0.0,0.0,0.0,0.0,0.0,0.0,0.0,0.0,0.0,0.0,0.0,0.0,0.0,0.0,0.0,0.0,0.0,0.0,0.0,0.0,0.0,0.0,0.0,0.0,0.0,0.0,0.0,0.0,0.0,0.0,0.0,0.0,0.0,0.0,0.0,0.0,0.0,0.0,0.0,0.0,0.0,0.0,0.0,0.0,0.0,0.0,0.0,0.0,0.0,0.0,0.0,0.0,0.0,0.0,0.0,0.0,0.0,0.0,0.0,0.0,0.0,0.0,0.0,0.0,0.0,0.0,0.0,0.0,0.0,0.0,0.0,0.0,0.0,0.0,0.0,0.0,0.0,0.0,0.0,0.0,0.0,0.0,0.0,0.0,0.0,0.0,0.0,0.0,0.0,0.0,0.0,0.0,0.0,0.0,0.0,0.0,0.0,0.0,0.0,0.0,0.0,0.0,0.0,0.0,0.0,0.0,0.0,0.0,0.0,0.0,0.0,0.0,0.0,0.0,0.0,0.0,0.0,0.0,0.0,0.0,0.0,0.0,0.0,0.0,0.0,0.0,0.0,0.0,0.0,0.0,0.0,0.0,0.0,0.0,0.0,0.0,0.0,0.0,0.0,0.0,0.0,0.0,0.0,0.0,0.0,0.0,0.0,0.0,0.0,0.0,0.0,0.0,0.0,0.0,0.0,0.0,0.0,0.0,0.0,0.0,0.0,0.0,0.0,0.0,0.0,0.0,0.0,0.0,0.0,0.0,0.0,0.0,0.0,0.0,0.0,0.0,0.0,0.0,0.0,0.0,0.0,0.0,0.0,0.0,0.0,0.0,0.0,0.0,0.0,0.0,0.0,0.0,0.0,0.0,0.0,0.0,0.0,0.0,0.0,0.0,0.0,0.0,0.0,0.0,0.0,0.0,0.0,0.0,0.0,0.0,0.0,0.0,0.0,0.0,0.0,0.0,0.0,0.0,0.0,0.0,0.0,0.0,0.0,0.0,0.0,0.0,0.0,0.0,0.0,0.0,0.0,0.0,0.0,0.0,0.0,0.0,0.0,0.0,0.0,0.0,0.0,0.0,0.0,0.0,0.0,0.0,0.0,0.0,0.0,0.0,0.0,0.0,0.0,0.0,0.0,0.0,0.0,0.0,0.0,0.0,0.0,0.0,0.0,0.0,0.0,0.0,0.0,0.0,0.0,0.0,0.0,0.0,0.0,0.0,0.0,0.0,0.0,0.0,0.0,0.0,0.0,0.0,0.0,0.0,0.0,0.0,0.0,0.0,0.0,0.0,0.0,0.0,0.0,0.0,0.0,0.0,0.0,0.0,0.0,0.0,0.0,0.0,0.0,0.0,0.0,0.0,0.0,0.0,0.0,0.0,0.0,0.0,0.0,0.0,0.0,0.0,0.0,0.0,0.0,0.0,0.0,0.0,0.0,0.0,0.0,0.0,0.0,0.0,0.0,0.0,0.0,0.0,0.0,0.0,0.0,0.0,0.0,0.0,0.0,0.0,0.0,0.0,0.0,0.0,0.0,0.0,0.0,0.0,0.0,0.0,0.0,0.0,0.0,0.0,0.0,0.0,0.0,0.0,0.0,0.0,0.0,0.0,0.0,0.0,0.0,0.0,0.0,0.0,0.0,0.0,0.0,0.0,0.0,0.0,0.0,0.0,0.0,0.0,0.0,0.0,0.0,0.0,0.0,0.0,0.0,0.0,0.0,0.0,0.0,0.0,0.0,0.0,0.0,0.0,0.0,0.0,0.0,0.0,0.0,0.0,0.0,0.0,0.0,0.0,0.0,0.0,0.0,0.0,0.0,0.0,0.0,0.0,0.0,0.0,0.0,0.0,0.0,0.0,0.0,0.0,0.0,0.0,0.0,0.0,0.0,0.0,0.0,0.0,0.0,0.0,0.0,0.0,0.0,0.0,0.0,0.0,0.0,0.0,0.0,0.0,0.0,0.0,0.0,0.0,0.0,0.0,0.0,0.0,0.0,0.0,0.0,0.0,0.0,0.0,0.0,0.0,0.0,0.0,0.0,0.0,0.0,0.0,0.0,0.0,0.0,0.0,0.0,0.0,0.0,0.0,0.0,0.0,0.0,0.0,0.0,0.0,0.0,0.0,0.0,0.0,0.0,0.0,0.0,0.0,0.0,0.0,0.0,0.0,0.0,0.0,0.0,0.0,0.0,0.0,0.0,0.0,0.0,0.0,0.0,0.0,0.0,0.0,0.0,0.0,0.0,0.0,0.0,0.0,0.0,0.0,0.0,0.0,0.0,0.0,0.0,0.0,0.0,0.0,0.0,0.0,0.0,0.0,0.0,0.0,0.0,0.0,0.0,0.0,0.0,0.0,0.0,0.0,0.0,0.0,0.0,0.0,0.0,0.0,0.0,0.0,0.0,0.0,0.0,0.0,0.0,0.0,0.0,0.0,0.0,0.0,0.0,0.0,0.0,0.0,0.0,0.0,0.0,0.0,0.0,0.0,0.0,0.0,0.0,0.0,0.0,0.0,0.0,0.0,0.0,0.0,0.0,0.0,0.0,0.0,0.0,0.0,0.0,0.0,0.0,0.0,0.0,0.0,0.0,0.0,0.0,0.0,0.0,0.0,0.0,0.0,0.0,0.0,0.0,0.0,0.0,0.0,0.0,0.0,0.0,0.0,0.0,0.0,0.0,0.0,0.0,0.0,0.0,0.0,0.0,0.0,0.0,0.0,0.0,0.0,0.0,0.0,0.0,0.0,0.0,0.0,0.0,0.0,0.0,0.0,0.0,0.0,0.0,0.0,0.0,0.0,0.0,0.0,0.0,0.0,0.0,0.0,0.0,0.0,0.0,0.0,0.0,0.0,0.0,0.0,0.0,0.0,0.0,0.0,0.0,0.0,0.0,0.0,0.0,0.0,0.0,0.0,0.0,0.0,0.0,0.0,0.0,0.0,0.0,0.0,0.0,0.0,0.0,0.0,0.0,0.0,0.0,0.0,0.0,0.0,0.0,0.0,0.0,0.0,0.0,0.0,0.0,0.0,0.0,0.0,0.0,0.0,0.0,0.0,0.0,0.0,0.0,0.0,0.0,0.0,0.0,0.0,0.0,0.0,0.0,0.0,0.0,0.0,0.0,0.0,0.0,0.0,0.0,0.0,0.0,0.0,0.0,0.0,0.0,0.0,0.0,0.0,0.0,0.0,0.0,0.0,0.0,0.0,0.0,0.0,0.0,0.0,0.0,0.0,0.0,0.0,0.0,0.0,0.0,0.0,0.0,0.0,0.0,0.0,0.0,0.0,0.0,0.0,0.0,0.0,0.0,0.0,0.0,0.0,0.0,0.0,0.0,0.0,0.0,0.0,0.0,0.0,0.0,0.0,0.0,0.0,0.0,0.0,0.0,0.0,0.0,0.0,0.0,0.0,0.0,0.0,0.0,0.0,0.0,0.0,0.0,0.0,0.0,0.0,0.0,0.0,0.0,0.0,0.0,0.0,0.0,0.0,0.0,0.0,0.0,0.0,0.0,0.0,0.0,0.0,0.0,0.0,0.0,0.0,0.0,0.0,0.0,0.0,0.0,0.0,0.0,0.0,0.0,0.0,0.0,0.0,0.0,0.0,0.0,0.0,0.0,0.0,0.0,0.0,0.0,0.0,0.0,0.0,0.0,0.0,0.0,0.0,0.0,0.0,0.0,0.0,0.0,0.0,0.0,0.0,0.0,0.0,0.0,0.0,0.0,0.0,0.0,0.0,0.0,0.0,0.0,0.0,0.0,0.0,0.0,0.0,0.0,0.0,0.0,0.0,0.0,0.0,0.0,0.0,0.0,0.0,5.0026,4.8102,0.0,0.0,0.0,0.0,0.0,0.0,0.0,0.0,0.0,0.0,0.0,0.0,0.0,0.0,0.0,0.0,0.0,0.0,0.0,0.0,0.0,0.0,0.0,0.0,0.0,0.0,0.0,0.0,0.0,0.0,0.0,0.0,0.0,0.0,0.0,0.0,2.6113,2.6298,2.7764,2.9663,3.19,3.1476,3.0724,2.9674,0.0,0.0,0.0,0.0,0.0,0.0,0.0,0.0,0.0,0.0,0.0,0.0,0.0,0.0,0.0,0.0,0.0,0.0,0.0,0.0,0.0,0.0,0.0,0.0,0.0,0.0,0.0,0.0,0.0,0.0,0.0,0.0,0.0,0.0,0.0,0.0,0.0,0.0,0.0,0.0,0.0,0.0,0.0,0.0,0.0,0.0,0.0,0.0,0.0,0.0,0.0,0.0,0.0,0.0,0.0,0.0,0.0,0.0,0.0,0.0,0.0,0.0,0.0,0.0,0.0,0.0,0.0,0.0,0.0,0.0,5.3472,5.2306,0.0,0.0,0.0,0.0,0.0,0.0,0.0,0.0,0.0,0.0,0.0,0.0,0.0,0.0,0.0,0.0,0.0,0.0,0.0,0.0,0.0,0.0,0.0,2.581,2.583,2.5908,2.5908,2.5908,0.0,0.0,0.0,0.0,0.0,0.0,2.6504,2.6836,2.7263,2.7736,3.0454,3.3275,3.6168,3.7008,3.6297,3.4208,3.1629,0.0,0.0,0.0,0.0,0.0,0.0,0.0,0.0,0.0,0.0,0.0,0.0,0.0,0.0,0.0,0.0,0.0,0.0,0.0,0.0,0.0,0.0,0.0,0.0,0.0,0.0,0.0,0.0,0.0,0.0,0.0,0.0,0.0,0.0,0.0,0.0,0.0,0.0,0.0,0.0,0.0,0.0,0.0,0.0,0.0,0.0,0.0,0.0,0.0,0.0,0.0,0.0,0.0,0.0,0.0,0.0,0.0,0.0,0.0,0.0,0.0,0.0,0.0,5.2026,5.2251,5.2277,5.3247,5.4676,5.6423,5.6873,5.6714,5.6126,5.5562,0.0,0.0,0.0,0.0,0.0,0.0,0.0,0.0,0.0,0.0,0.0,0.0,0.0,0.0,0.0,0.0,0.0,0.0,0.0,0.0,0.0,2.6309,2.6445,2.6816,2.6855,2.6855,2.6855,0.0,0.0,0.0,0.0,2.6934,2.6934,2.6992,2.8244,3.0706,3.4307,3.6612,3.754,3.7675,3.8854,4.0789,3.7627,3.5821,3.5123,0.0,0.0,0.0,0.0,0.0,0.0,0.0,0.0,0.0,0.0,0.0,0.0,0.0,0.0,0.0,0.0,0.0,0.0,0.0,0.0,0.0,0.0,0.0,0.0,0.0,0.0,0.0,0.0,0.0,0.0,0.0,0.0,0.0,0.0,0.0,0.0,0.0,0.0,0.0,0.0,0.0,4.2011,4.2087,0.0,0.0,0.0,0.0,0.0,0.0,0.0,0.0,0.0,0.0,0.0,0.0,0.0,5.1021,5.1674,5.1749,5.2101,5.2703,5.2779,5.2829,5.2854,5.5511,5.7665,5.9449,6.2058,0.0,5.814,5.9939,0.0,0.0,0.0,0.0,0.0,0.0,0.0,0.0,0.0,0.0,0.0,0.0,0.0,0.0,0.0,0.0,0.0,0.0,0.0,0.0,0.0,2.7168,2.7539,2.7715,2.7949,2.7988,2.7754,2.7519,0.0,0.0,2.7246,2.75,2.7734,2.8203,2.9983,3.3078,3.5963,3.825,3.9849,4.1054,4.2323,4.3482,4.2021,4.013,3.7954,3.7786,0.0,0.0,0.0,0.0,0.0,0.0,0.0,0.0,0.0,0.0,0.0,0.0,0.0,0.0,0.0,0.0,0.0,0.0,0.0,0.0,0.0,0.0,0.0,0.0,0.0,0.0,0.0,0.0,0.0,0.0,0.0,0.0,0.0,0.0,0.0,0.0,0.0,0.0,0.0,4.2258,4.2836,4.3463,4.3765,4.4367,0.0,0.0,0.0,0.0,0.0,0.0,0.0,0.0,0.0,5.1096,5.1825,5.2477,5.3005,5.3005,5.3281,5.3858,5.416,5.431,5.4406,5.699,5.9141,6.0955,6.3313,6.3867,6.3167,6.2832,6.2102,6.0998,0.0,0.0,0.0,0.0,6.2885,6.3275,0.0,0.0,0.0,0.0,0.0,0.0,0.0,0.0,0.0,0.0,0.0,0.0,2.7461,2.8164,2.8711,2.8945,2.9043,2.9004,2.8789,2.8496,2.8164,2.7832,2.8262,2.8574,2.8769,3.0056,3.195,3.448,3.7175,3.9523,4.1435,4.3474,4.4418,4.4418,4.4418,4.3037,4.0777,4.1028,4.0676,3.9898,0.0,0.0,0.0,0.0,0.0,0.0,0.0,0.0,0.0,0.0,0.0,0.0,0.0,0.0,0.0,0.0,0.0,0.0,0.0,0.0,0.0,0.0,0.0,0.0,0.0,0.0,0.0,0.0,0.0,0.0,0.0,0.0,0.0,0.0,0.0,0.0,0.0,4.3212,4.4091,4.4769,4.5221,4.6075,0.0,0.0,0.0,0.0,0.0,0.0,5.1649,5.2226,5.2703,5.3105,5.3281,5.3607,5.4135,5.4135,5.4411,5.4988,5.539,5.5591,5.5688,5.8368,6.0333,6.173,6.4024,6.5853,6.7117,6.5198,6.443,6.4357,6.315,6.3093,6.3706,6.4602,6.4901,6.5061,0.0,0.0,0.0,0.0,0.0,0.0,0.0,0.0,0.0,0.0,0.0,2.8359,2.8769,2.9238,2.9844,3.0684,3.0019,2.9707,3.0078,3.0078,3.0059,3.0039,3.0488,3.0527,3.0117,3.2461,3.3975,3.448,3.8526,4.0772,4.1435,4.3103,4.384,4.384,4.384,4.374,4.3564,4.3062,4.2811,4.2685,4.163,0.0,0.0,0.0,0.0,0.0,0.0,0.0,0.0,0.0,0.0,0.0,0.0,0.0,0.0,0.0,0.0,0.0,0.0,0.0,0.0,0.0,0.0,0.0,0.0,0.0,0.0,0.0,0.0,0.0,0.0,0.0,0.0,0.0,0.0,0.0,0.0,0.0,0.0,4.5497,4.6803,0.0,0.0,0.0,0.0,5.185,5.2452,5.2779,5.2854,5.3331,5.3632,5.3658,5.4185,5.4737,5.529,5.529,5.5591,5.6118,5.6168,5.6168,5.6314,5.9851,6.1528,6.1797,6.5295,6.7266,6.7867,6.7147,6.7175,6.7742,6.765,6.8068,6.8601,6.8728,6.8698,6.8608,0.0,0.0,0.0,0.0,0.0,2.5791,2.6113,2.6289,2.6582,2.7129,2.7851,2.8555,2.9258,3.0234,3.1055,3.166,3.168,3.1601,3.1465,3.1191,3.0801,3.0215,3.0351,3.0625,3.1035,3.2455,3.3417,3.3797,3.6307,3.8111,3.9387,4.0993,4.2307,4.3263,4.3263,4.3263,4.3288,4.3438,4.3313,4.2961,4.2936,4.2384,0.0,0.0,0.0,0.0,0.0,0.0,0.0,0.0,0.0,0.0,0.0,0.0,0.0,0.0,0.0,0.0,0.0,0.0,0.0,0.0,0.0,0.0,0.0,0.0,0.0,0.0,0.0,0.0,0.0,0.0,0.0,0.0,0.0,0.0,0.0,0.0,0.0,4.7029,4.8209,0.0,5.0569,5.1172,5.195,5.3055,5.3306,5.3733,5.4461,5.4687,5.4938,5.5315,5.5516,5.5717,5.5917,5.5917,5.5842,5.5691,5.5691,5.6289,5.7492,5.9968,6.1901,6.3476,6.5919,6.7358,6.7956,6.7717,6.8016,6.8675,6.9093,6.9153,6.9064,6.9482,6.9093,6.8315,0.0,0.0,0.0,0.0,2.581,2.6055,2.6348,2.6641,2.7129,2.7969,2.8574,2.9375,3.0527,3.1309,3.2031,3.2754,3.2676,3.2461,3.2248,3.1894,3.1484,3.0879,3.0996,3.1406,3.2148,3.2578,3.3316,3.4435,3.5521,3.6921,3.8656,4.0328,4.1663,4.2749,4.3287,4.3539,4.3564,4.3915,4.3765,4.3313,4.3865,4.3639,4.2911,0.0,0.0,0.0,0.0,0.0,0.0,0.0,0.0,0.0,0.0,0.0,0.0,0.0,0.0,0.0,0.0,0.0,0.0,0.0,0.0,0.0,0.0,0.0,0.0,0.0,0.0,0.0,0.0,0.0,0.0,0.0,0.0,0.0,0.0,4.7154,4.8033,4.8184,4.9364,5.0594,5.1724,5.2327,5.3105,5.4185,5.4436,5.4863,5.5616,5.5666,5.5742,5.5917,5.5942,5.5767,5.5365,5.5365,5.5089,5.4561,5.4561,5.5318,5.6678,5.9112,6.1156,6.2915,6.5332,6.67,6.7298,6.7298,6.7717,6.8405,6.9303,6.9393,6.9034,6.9213,6.8734,6.7989,0.0,0.0,0.0,2.5713,2.6113,2.6406,2.6426,2.718,2.7969,2.8828,2.9687,3.0879,3.2578,3.2441,3.2695,3.3945,3.293,3.2207,3.2187,3.2207,3.2207,3.2187,3.2578,3.2988,3.3398,3.3027,3.4035,3.6415,3.6436,3.7461,3.9432,4.1173,4.1981,4.2101,4.3752,4.4502,4.4502,4.456,4.4317,4.3865,4.4418,4.4618,4.4493,0.0,0.0,0.0,0.0,0.0,0.0,0.0,0.0,0.0,0.0,0.0,0.0,0.0,0.0,0.0,0.0,0.0,0.0,0.0,0.0,0.0,0.0,0.0,0.0,0.0,0.0,0.0,0.0,0.0,0.0,0.0,0.0,0.0,4.7355,4.8586,4.9414,4.8912,5.0293,5.1724,5.2829,5.3406,5.4185,5.5315,5.5892,5.6219,5.6219,5.6219,5.5993,5.5465,5.5415,5.4888,5.3783,5.3733,5.3457,5.2955,5.298,5.3231,5.3917,5.7447,5.934,6.0116,6.3576,6.5443,6.6041,6.6041,6.64,6.7089,6.8405,6.8914,6.8824,6.8166,6.7897,6.7777,2.3822,2.434,2.4889,2.5993,2.6309,2.6602,2.7278,2.7571,2.8139,2.9238,3.0156,3.1113,3.2226,3.2793,3.3223,3.3574,3.3281,3.2949,3.2637,3.291,3.2949,3.2637,3.2734,3.2851,3.2969,3.3457,3.4083,3.4748,3.5067,3.6085,3.7784,3.8267,3.9081,4.0296,4.2041,4.2782,4.2842,4.4069,4.4543,4.4418,4.4568,4.4392,4.4041,0.0,0.0,0.0,0.0,0.0,0.0,0.0,0.0,0.0,0.0,0.0,0.0,0.0,0.0,0.0,0.0,0.0,0.0,0.0,0.0,0.0,0.0,0.0,0.0,0.0,0.0,0.0,0.0,0.0,0.0,0.0,4.9138,4.9715,4.9012,4.9314,4.9841,5.0519,5.1348,5.2151,5.2854,5.3783,5.4612,5.534,5.5892,5.6219,5.6219,5.6595,5.6746,5.6595,5.6194,5.5842,5.5516,5.4737,5.4059,5.3507,5.3909,5.4905,5.6363,5.907,6.1333,6.3186,6.545,6.655,6.6729,6.6729,6.655,6.637,6.7208,6.7238,6.6819,6.661,6.6251,6.5892,2.2503,2.3635,2.4684,2.559,2.6422,2.7141,2.765,2.7812,2.8516,3.0176,3.0684,3.1484,3.3066,3.334,3.3496,3.3672,3.3359,3.3066,3.2812,3.3027,3.3047,3.2812,3.3144,3.332,3.332,3.3984,3.4434,3.4629,3.4863,3.5587,3.6668,3.7366,3.823,3.9169,4.0933,4.2131,4.2827,4.3819,4.4497,4.4995,4.4995,4.4794,4.4543,4.4869,4.4995,4.4945,4.4719,4.4618,4.4568,4.4242,0.0,0.0,0.0,0.0,0.0,0.0,0.0,0.0,0.0,0.0,0.0,0.0,0.0,0.0,0.0,0.0,0.0,0.0,0.0,0.0,0.0,0.0,0.0,0.0,5.0569,5.1096,5.0996,5.0795,5.0896,5.1548,5.2126,5.2653,5.3206,5.3833,5.4536,5.534,5.5892,5.6319,5.6545,5.7097,5.7273,5.7047,5.6495,5.5867,5.5164,5.431,5.3482,5.2703,5.3256,5.4232,5.5511,5.7839,6.0204,6.2515,6.4289,6.5431,6.6161,6.6161,6.5772,6.5263,0.0,0.0,0.0,0.0,6.5533,6.5503,2.0885,2.2743,2.4403,2.4613,2.6147,2.7466,2.7505,2.798,2.9121,3.125,3.1269,3.2012,3.4375,3.3984,3.3672,3.3965,3.3223,3.2734,3.2734,3.2773,3.2832,3.293,3.3672,3.4101,3.4141,3.4551,3.498,3.5391,3.5449,3.5664,3.6016,3.7575,3.8287,3.842,4.0148,4.1756,4.3146,4.3333,4.417,4.5335,4.5335,4.5345,4.5497,4.5547,4.5623,4.5623,4.5146,4.4945,4.4895,4.4844,0.0,0.0,0.0,0.0,0.0,0.0,0.0,0.0,0.0,0.0,0.0,0.0,0.0,0.0,0.0,0.0,0.0,0.0,0.0,0.0,0.0,0.0,0.0,0.0,5.1975,5.2503,5.2879,5.2553,5.2277,5.2201,5.2628,5.3105,5.3557,5.3733,5.4235,5.5315,5.5968,5.6545,5.7097,5.7675,0.0,0.0,0.0,5.5591,5.4084,5.3432,5.2578,5.1574,5.2176,5.2703,5.3199,5.5559,5.7879,6.0059,6.1763,6.3509,6.5144,6.5144,6.4784,6.4306,6.5293,6.5353,6.4904,6.4904,6.5323,6.5922,2.075,2.1309,2.2033,2.3286,2.4809,2.5951,2.6334,2.7739,2.9453,3.1289,3.2051,3.2871,3.4062,3.4355,3.4199,3.3594,3.2773,3.2285,3.2285,3.2598,3.3105,3.3789,3.3984,3.4238,3.457,3.5019,3.5293,3.5391,3.5742,3.5937,3.6016,3.6336,3.6471,3.6606,3.8353,3.93,3.9693,4.1117,4.2597,4.4021,4.4021,4.4597,4.5547,4.5974,4.6426,4.6853,4.7154,4.7004,4.6516,4.615,4.5673,4.5246,4.4769,4.4543,0.0,0.0,0.0,0.0,0.0,0.0,0.0,0.0,0.0,0.0,0.0,0.0,0.0,0.0,0.0,0.0,0.0,0.0,0.0,5.2528,5.3432,5.3808,5.303,5.3206,5.3231,5.2829,5.2854,5.298,5.3055,5.3884,5.4687,5.534,5.6319,5.7123,5.77,5.8252,5.8504,5.8353,5.7399,5.6721,5.6394,5.4963,5.3909,5.3256,5.426,0.0,5.4356,5.7146,5.9463,6.1303,6.3135,6.4623,6.5832,6.5832,6.5742,6.5473,6.4156,6.3857,6.4186,6.4186,6.4635,6.5293,2.0254,2.0843,2.15,2.2283,2.3613,2.472,2.5155,2.6013,2.7146,2.8654,2.9865,3.0875,3.1621,3.2787,3.3262,3.2832,3.2793,3.2617,3.2268,3.2754,3.3398,3.4043,3.4277,3.459,3.5039,3.5488,3.5703,3.5703,3.5918,3.6016,3.6016,3.6016,3.6016,3.6016,3.6924,3.7775,3.8663,3.9518,4.0993,4.276,4.276,4.3205,4.4174,4.6006,4.7054,4.7556,4.7807,4.7732,4.7481,4.7205,4.6928,4.6652,4.6351,4.61,4.5824,0.0,0.0,0.0,0.0,0.0,0.0,0.0,0.0,0.0,0.0,0.0,0.0,0.0,0.0,5.077,5.19,0.0,5.3181,5.4009,5.4386,5.4386,5.3833,5.3708,5.3507,5.298,5.2929,5.303,5.3281,5.3808,5.4612,5.5717,5.657,5.7399,5.8252,5.8805,5.9106,5.9081,5.8027,5.7323,5.7022,5.5666,5.4687,5.4135,5.4988,5.5239,5.5085,5.6775,5.8507,6.0333,6.2131,6.3787,6.5202,6.5737,6.6191,6.637,6.5054,6.4934,6.5503,6.5503,6.5922,6.655,1.9893,2.0651,2.1291,2.1159,2.2425,2.3513,2.3804,2.4195,2.4911,2.6034,2.7323,2.8438,2.9337,3.0804,3.1786,3.1934,3.2773,3.2949,3.209,3.291,3.3652,3.418,3.4512,3.4961,3.5508,3.584,3.6016,3.6016,3.6016,3.6016,3.6016,3.6016,3.6016,3.6016,3.6016,3.6789,3.8088,3.8088,3.9314,4.1308,4.1308,4.1772,4.2904,4.5779,4.7184,4.7557,4.8058,4.8159,4.8083,4.8083,4.8008,4.7908,4.7908,4.7631,4.7179,4.6627,4.6476,0.0,0.0,0.0,0.0,0.0,0.0,0.0,0.0,4.9414,4.9741,5.082,5.1523,5.2226,5.3231,5.3758,5.4361,5.539,5.5164,5.4813,5.4587,5.416,5.3683,5.313,5.308,5.3256,5.3658,5.3909,5.4637,5.6093,5.6821,5.765,5.8679,5.9207,5.9483,5.9483,5.8453,5.7675,5.7198,5.6093,5.5265,5.4737,5.529,5.5541,5.5566,5.6018,5.721,5.9131,6.1246,6.3009,6.4554,6.5875,6.6849,6.7508,6.6999,6.7178,6.7717,6.7328,6.7597,6.8166,2.0241,2.0268,2.0199,1.9744,2.1032,2.2193,2.2238,2.3916,2.5413,2.61,2.6633,2.7727,2.9614,3.0014,3.0387,3.0976,3.2148,3.25,3.1641,3.2734,3.3789,3.459,3.4668,3.5098,3.5937,3.5996,3.6016,3.6016,3.6016,3.6016,3.6016,3.6016,3.6016,3.6016,3.6016,3.6084,3.6287,3.6287,3.7503,3.947,3.947,4.0991,4.3422,4.5395,4.6138,4.6518,4.861,4.9088,4.8686,4.8686,4.8335,4.7908,4.7908,4.7857,4.7732,4.7205,4.6993,4.6943,4.6817,4.7657,4.8636,4.9188,4.9364,4.9816,0.0,5.1724,5.2051,5.3105,5.3808,5.4386,5.4988,5.5164,5.539,5.6018,5.6068,5.5691,5.4712,5.4511,5.426,5.3683,5.3607,5.3632,5.3683,5.4612,5.5491,5.6168,5.7198,5.8077,5.8679,5.9207,5.9483,5.9483,5.8453,5.7876,5.7801,5.6696,5.5842,5.5315,5.5867,5.6118,5.6118,5.6194,5.744,5.9784,6.2715,6.4469,6.5311,6.7093,6.8495,6.9632,6.9572,6.9931,7.026,6.8495,6.8286,6.8884,2.0508,2.0347,2.016,1.9907,2.0484,2.104,2.1222,2.2054,2.2698,2.2953,2.3779,2.455,2.525,2.7372,2.9327,3.0782,3.2051,3.2539,3.1934,3.3086,3.4062,3.4668,3.4961,3.5391,3.6016,3.6016,3.6016,3.6016,3.6016,3.6016,3.6016,3.6016,3.6016,3.6016,3.6016,3.6016,3.6016,3.6016,3.6798,3.8085,3.8085,3.9097,4.0792,4.2566,4.3233,4.378,4.771,4.8962,0.0,4.8761,4.8611,4.846,4.8786,4.8661,4.836,4.8159,4.8083,4.8234,4.8862,4.9138,4.9464,5.0368,5.082,5.1322,5.2352,5.2829,5.3256,5.4034,5.4662,5.5114,5.534,5.5641,5.5942,5.6168,5.6219,5.5817,5.4712,5.4838,5.4712,5.3808,5.4285,5.4687,5.4687,5.5114,5.5742,5.662,5.7123,5.7775,5.8679,5.893,5.9182,5.9483,5.8453,5.7901,5.7901,5.6771,5.6093,5.5867,5.642,5.6696,5.6696,5.7047,5.8104,5.9747,6.1066,6.3001,6.5362,6.6131,6.785,6.9991,6.9991,7.035,7.0799,6.9991,6.9871,7.0111,2.0802,2.0615,2.0468,2.0468,2.0468,2.0521,2.0655,2.0748,2.0735,2.0575,2.132,2.1934,2.2051,2.5244,2.7845,2.9175,3.0344,3.1091,3.1367,3.2483,3.3598,3.4668,3.5137,3.5586,3.6016,3.6016,3.6016,3.6016,3.6016,3.6016,3.6016,3.6016,3.6016,3.6016,3.6016,3.6016,3.6016,3.6016,3.6504,3.7305,3.7305,3.7812,3.8793,4.0586,4.1263,4.1726,4.6401,4.8036,4.8075,4.8459,4.8535,4.8636,4.9188,4.9088,4.8761,4.8761,4.8761,4.8987,4.9941,5.0243,5.0519,5.1498,5.2251,5.2879,5.3281,5.3783,5.4285,5.4712,5.5239,5.5616,5.5616,5.5942,5.6219,5.6219,5.6219,5.5892,5.4938,5.5139,5.5089,5.426,5.4888,5.544,5.5591,5.5616,5.5942,5.6746,5.6947,5.7449,5.8453,5.8629,5.8956,5.9483,5.8453,5.7901,5.7901,5.6771,5.6219,5.6219,5.662,5.6972,5.7298,5.7851,5.8498,5.9201,5.9751,6.162,6.4296,6.4794,6.6479,6.8745,6.9263,6.9726,7.0206,7.0694,7.0889,7.0889,2.1096,2.1082,2.1082,2.1082,2.1082,2.0989,2.0722,2.0909,2.0895,2.0321,2.0241,2.0755,2.2051,2.4306,2.5544,2.5311,2.5963,2.728,2.9246,3.0233,3.1926,3.4583,3.5137,3.5586,3.6016,3.6016,3.6016,3.6016,3.6016,3.6016,3.6016,3.6016,3.6016,3.6016,3.6016,3.6016,3.6016,3.6016,3.6504,3.7305,3.7305,3.7812,3.8793,4.0586,4.1074,4.1231,4.4784,4.6085,4.6251,4.7519,4.7933,4.8033,4.8611,4.8786,4.8761,4.8761,4.8761,4.8887,4.9464,5.0795,5.2176,5.2729,5.3683,5.4486,5.4511,5.4938,5.534,5.5365,5.5792,5.6194,5.6194,5.6194,5.6219,5.6219,5.6219,5.6018,5.544,5.539,5.5365,5.534,5.5365,5.5591,5.6143,5.6194,5.6194,5.6244,5.6721,5.7298,5.7901,5.8428,5.8956,5.9483,5.8453,5.7901,5.7901,5.6771,5.6219,5.6219,5.6219,5.6821,5.7901,5.8453,5.8378,5.8076,5.9825,6.0961,6.1728,6.3543,6.4677,6.5541,6.741,6.8151,6.8383,7.0206,7.0889,7.0889,2.1109,2.1109,2.1109,2.1109,2.1109,2.1082,2.0975,2.1042,2.1042,2.0842,2.0468,0.0,0.0,0.0,0.0,0.0,2.5637,2.621,2.6944,2.8151,2.9906,3.2292,3.3177,3.438,3.5947,3.6016,3.6016,3.6016,3.6016,3.6016,3.6016,3.6016,3.6016,3.6016,3.6016,3.6016,3.6016,3.6016,3.6504,3.7305,3.7305,3.7812,3.8588,3.8624,3.8768,3.903,0.0,4.2776,4.5294,4.6873,4.7631,4.8008,4.8586,4.8761,4.8837,4.9213,4.9565,5.0142,5.1448,5.2226,5.2879,5.3783,5.4561,5.5114,5.5114,5.5541,5.5942,5.5942,5.5792,5.5666,5.5666,5.5666,5.5666,5.5666,5.5968,5.6143,5.5968,5.5942,5.5942,5.5942,5.5942,5.6018,5.6194,5.6219,5.6219,5.6219,5.6394,5.6897,5.7851,5.8077,5.8579,5.9458,5.8453,5.7901,5.7901,5.6771,5.6219,5.6219,5.6972,5.7901,5.8956,5.9156,5.8956,5.8428,5.9084,6.0157,6.1562,6.2191,6.3523,6.5285,6.5921,6.6927,6.818,6.8788,6.9847,7.0889,2.1109,2.1109,2.1109,2.1109,2.1109,0.0,0.0,0.0,0.0,0.0,0.0,0.0,0.0,0.0,0.0,0.0,0.0,2.3944,2.4725,2.5756,2.7377,2.9765,3.0773,3.1922,3.3508,3.357,3.3644,3.3644,3.4444,3.4793,3.4861,3.5665,3.6016,3.6016,3.6016,3.6016,3.6035,3.6191,3.6836,3.7734,3.7422,3.791,3.8691,3.7676,3.7363,0.0,3.8512,4.0367,4.2729,4.457,4.5914,4.6833,4.7597,4.8501,4.9464,5.0042,5.0594,5.1348,5.2804,5.3356,5.3733,5.4637,5.5265,5.5691,5.5691,5.5968,5.6219,5.6219,5.5767,5.539,5.539,5.539,5.5315,5.5139,5.5717,5.6219,5.6219,5.6394,5.652,5.652,5.652,5.642,5.6219,5.6219,5.6219,5.6219,5.6219,5.6721,5.7851,5.7901,5.8303,5.9182,5.8353,5.7801,5.76,5.6671,5.6219,5.6219,5.7349,5.8252,5.893,5.9332,5.9307,5.9006,5.9006,5.9693,6.082,6.082,6.1747,6.3219,6.3921,6.4956,6.616,6.6817,6.8287,7.0009,2.1109,2.1109,2.1109,0.0,0.0,0.0,0.0,0.0,0.0,0.0,0.0,0.0,0.0,0.0,0.0,0.0,0.0,0.0,2.2602,2.3142,2.4547,2.7244,2.8027,2.8593,2.8994,2.9242,2.9425,2.9425,3.1524,3.2607,3.2693,3.4842,3.5821,3.5957,3.5957,3.5957,3.5976,3.6387,3.7285,3.8379,3.7539,3.7949,3.8945,3.7676,3.6973,3.6897,3.8438,3.8754,3.8793,4.1023,4.3069,4.4912,4.5936,4.8199,5.0619,5.1197,5.1749,5.2427,5.3507,5.4185,5.4737,5.529,5.5817,5.6219,5.6219,5.6219,5.6194,5.6168,5.5742,5.534,5.5315,5.534,5.5164,5.4637,5.5491,5.6219,5.6294,5.6696,5.7022,5.7072,5.7022,5.6796,5.6269,5.6219,5.6219,5.6219,5.6219,5.6721,5.7851,5.7901,5.8152,5.8704,5.8177,5.7625,5.7047,5.6495,5.6244,5.6319,5.7374,5.7926,5.8027,5.9031,5.9483,5.9483,5.9483,5.9483,5.9483,5.9533,5.9533,5.9765,6.162,6.2391,6.2662,6.4409,6.6328,6.8248,0.0,0.0,0.0,0.0,0.0,0.0,0.0,0.0,0.0,0.0,0.0,0.0,0.0,0.0,0.0,0.0,0.0,0.0,2.0548,2.1313,2.2625,2.4797,2.5869,2.7137,2.8692,2.9177,2.9425,2.9425,2.9935,3.0957,3.2277,3.2857,3.3803,3.5039,3.5039,3.5039,3.5039,3.5156,3.5781,3.6621,3.6094,3.6465,3.7207,3.625,3.6016,3.6221,3.634,3.6495,3.7186,4.0628,4.3802,4.6681,4.9166,5.0764,5.1774,5.2352,5.2879,5.3532,5.4662,5.5064,5.5315,5.5867,5.6118,5.6219,5.6219,5.6219,5.6093,5.5691,5.5164,5.4637,5.421,5.4486,5.4737,5.4587,5.5491,5.652,5.7349,5.6872,5.6746,5.7575,5.6922,5.6369,5.6219,5.6219,5.6219,5.6219,5.6219,5.6721,5.7851,5.7901,5.8152,5.8704,5.8177,5.7625,5.7047,5.6495,5.6646,5.7474,5.775,5.8328,5.9106,5.9382,5.9483,5.9483,5.9483,5.9483,5.9533,5.9935,6.0111,6.0239,6.1112,6.2122,6.3046,6.3543,6.4691,6.5992,0.0,0.0,0.0,0.0,0.0,0.0,0.0,0.0,0.0,0.0,0.0,0.0,0.0,0.0,0.0,0.0,0.0,0.0,0.0,2.0147,2.0999,2.2486,2.3177,2.4195,2.5662,2.6115,2.6306,2.6306,2.7416,2.8448,2.9312,3.1216,3.26,3.3615,3.4359,3.4707,3.4726,3.5117,3.5781,0.0,0.0,3.6465,3.7109,3.6074,3.582,3.5996,3.5742,3.6172,3.7351,4.0805,4.387,4.6722,4.9204,5.1098,5.2578,5.3105,5.3833,5.4637,5.5516,5.5742,5.5817,5.6143,5.6219,5.6143,5.5917,5.5842,5.5691,5.5139,5.4787,5.4461,5.4135,5.4336,5.4561,5.4561,5.529,5.6244,5.7374,5.6972,5.6897,5.7801,5.7123,5.647,5.6244,5.6219,5.6219,5.6219,5.6219,5.6721,5.7851,5.7901,5.8052,5.8353,5.8052,5.7499,5.6671,5.6369,5.6646,5.7524,5.7775,5.8353,5.9156,5.9382,5.9483,5.9483,5.9483,5.9483,5.9533,6.0085,6.0311,6.0387,6.0964,6.1649,6.2303,6.2045,6.2971,6.43,0.0,0.0,0.0,0.0,0.0,0.0,0.0,0.0,0.0,0.0,0.0,2.0027,1.9773,1.9746,0.0,0.0,0.0,0.0,0.0,0.0,1.9867,2.0588,2.0735,2.1136,2.1857,2.2191,2.2378,2.2418,2.4592,2.5688,2.5719,2.9479,3.1483,3.1969,3.3567,3.4413,3.4668,3.5488,3.6269,3.6914,3.6504,3.6758,3.7305,0.0,3.584,3.5859,3.6035,3.6934,3.8413,4.0905,4.353,4.6062,4.8005,5.0693,5.3256,5.3783,5.4662,5.5591,5.6068,5.6219,5.6219,5.6219,5.6219,5.6068,5.5516,5.539,5.5214,5.4587,5.4511,5.4607,5.4461,5.4561,5.4637,5.4587,5.5089,5.5867,5.6897,5.7022,5.7248,5.7826,5.7399,5.6821,5.6269,5.6219,5.6219,5.6219,5.6269,5.6771,5.7851,5.7901,5.7851,5.7775,5.77,5.7198,5.6219,5.6219,5.652,5.7148,5.765,5.8227,5.883,5.9282,5.9483,5.9483,5.9483,5.9483,5.9533,6.0085,6.0311,6.0387,6.104,6.124,6.114,6.0713,6.153,6.2856,0.0,0.0,0.0,0.0,0.0,0.0,0.0,0.0,0.0,0.0,2.0,1.9492,0.0,0.0,0.0,0.0,0.0,0.0,0.0,0.0,0.0,2.0307,2.1015,2.1363,2.1269,2.179,2.2178,2.2418,2.2849,2.3916,2.5584,2.6295,2.8212,3.1071,3.1676,3.2777,3.4219,3.4726,3.5019,3.5117,3.4687,3.4609,3.4746,3.4883,3.4922,0.0,3.6172,3.7383,3.8608,3.9465,4.2658,4.6766,4.9485,5.2179,5.4386,5.4938,5.5566,5.6093,5.6194,5.6219,5.6219,5.6219,5.6219,5.6068,5.5516,5.539,5.5089,5.4059,5.4235,5.4411,5.3934,5.4612,5.5089,5.4637,5.5415,5.6294,5.6947,5.7022,5.7248,5.7826,5.7399,5.6821,5.6269,5.6219,5.6219,5.6219,5.662,5.7198,5.7851,5.7901,5.7675,5.7198,5.6746,5.642,5.6219,5.6219,5.6721,5.775,5.7851,5.8403,5.9357,5.9458,5.9483,5.9483,5.9483,5.9483,5.9533,6.0085,6.0311,6.0412,6.1466,6.1592,6.1215,6.1592,6.1655,6.1467,0.0,0.0,0.0,0.0,0.0,0.0,0.0,2.0748,2.0575,2.0869,2.0401,1.9987,1.984,1.9679,1.9653,0.0,0.0,0.0,0.0,0.0,0.0,2.0681,2.0949,2.1176,2.1336,2.1617,2.183,2.1964,0.0,2.2642,2.3539,2.5443,2.7214,2.8968,3.1185,3.2734,3.3769,3.418,3.4648,3.5019,3.457,3.4668,3.5078,3.5078,3.5332,0.0,3.6699,3.7676,3.8633,3.9062,4.1715,4.5178,4.7084,4.937,5.1723,5.3302,5.4157,5.4819,5.5901,5.6219,5.6219,5.6219,5.6219,5.5993,5.5139,5.4963,5.4637,5.3532,5.3984,5.4486,5.421,5.4838,5.529,5.5039,5.544,5.6068,5.6922,5.7022,5.7248,5.7826,5.7399,5.6821,5.6269,5.6219,5.6219,5.6219,5.6997,5.76,5.7876,5.7901,5.7625,5.7047,5.6495,5.6219,5.6219,5.6495,5.7072,5.7901,5.8177,5.873,5.9483,5.9483,5.9483,5.9483,5.9483,5.9483,5.9533,6.0085,6.0311,6.0437,6.1567,6.1843,6.1667,6.222,6.227,6.1994,0.0,0.0,0.0,0.0,0.0,0.0,0.0,2.0962,2.0895,2.1256,2.0989,2.0708,2.0535,2.0201,2.008,0.0,0.0,0.0,0.0,0.0,0.0,0.0,0.0,0.0,2.1443,0.0,0.0,2.1614,2.1777,0.0,0.0,0.0,0.0,0.0,3.0865,3.2695,3.3457,3.3984,3.4551,0.0,0.0,3.5059,3.5605,0.0,0.0,0.0,0.0,3.793,3.8633,3.9062,4.0787,4.2849,4.3663,4.6072,4.8922,5.103,5.1996,5.2798,5.4423,5.4893,5.4893,5.4893,5.4893,5.4598,5.3518,5.3656,5.3573,5.2481,5.3503,5.4561,5.4561,5.5114,5.5491,5.5239,5.5315,5.5691,5.657,5.6897,5.7198,5.765,5.7424,5.6947,5.6269,5.6319,5.6394,5.6394,5.7323,5.7901,5.7901,5.7901,5.7575,5.6872,5.6445,5.6219,5.6219,5.6746,5.7323,5.7901,5.8453,5.9006,5.9483,5.9483,5.9483,5.9483,5.9483,5.9483,5.9533,5.996,6.0211,6.0412,6.1441,6.1893,6.2094,6.2772,6.2923,6.2847,0.0,0.0,0.0,0.0,0.0,0.0,0.0,2.1256,2.1269,2.183,2.1416,2.1162,2.1467,2.0935,2.0601,0.0,0.0,0.0,0.0,0.0,0.0,0.0,0.0,0.0,0.0,0.0,0.0,2.1614,2.1641,0.0,0.0,0.0,0.0,0.0,0.0,3.1526,3.3476,3.4297,0.0,0.0,0.0,0.0,0.0,0.0,0.0,0.0,0.0,3.8164,3.8633,3.9062,3.968,4.04,4.1246,4.4712,4.8619,4.9342,4.9914,5.032,5.053,5.0552,5.0552,5.0552,5.0552,5.0281,4.9261,5.0402,5.144,5.0484,5.2583,5.4561,5.4561,5.544,5.5817,5.4813,5.5064,5.5415,5.5516,5.6394,5.7047,5.7097,5.7524,5.7399,5.6319,5.6671,5.6972,5.6972,5.7549,5.7901,5.7901,5.7901,5.7399,5.6319,5.6244,5.6219,5.6219,5.6746,5.7323,5.7901,5.8453,5.9006,5.9483,5.9483,5.9483,5.9483,5.9483,5.9483,5.9483,5.9558,5.9859,6.0387,6.1014,6.1567,6.2144,6.3224,6.3274,6.2898,0.0,0.0,0.0,0.0,0.0,0.0,2.1574,2.1296,2.1376,2.2151,2.1884,2.175,2.2044,2.171,2.1323,2.0962,0.0,0.0,0.0,0.0,0.0,0.0,0.0,0.0,0.0,0.0,2.1697,2.1817,2.1817,0.0,0.0,0.0,0.0,0.0,0.0,3.1381,3.3437,3.3789,0.0,0.0,0.0,0.0,0.0,0.0,0.0,0.0,0.0,0.0,3.8594,3.8769,3.9297,3.9961,4.0293,4.2273,4.4842,4.6862,4.7596,4.8048,4.9607,4.9986,4.9986,4.9986,4.9762,4.9359,4.8664,4.8883,4.9066,4.8354,5.0649,5.2816,5.2816,5.4692,5.5842,5.4737,5.5039,5.5265,5.4938,5.5842,5.6671,5.6997,5.7549,5.7725,5.7273,5.7424,5.7549,5.7549,5.7449,5.7374,5.7374,5.7374,5.7022,5.6244,5.6219,5.6219,5.6219,5.7097,5.7675,5.7901,5.878,5.9307,5.9483,5.9483,5.9483,5.9483,5.9483,5.9483,5.9533,5.9859,6.0111,6.0412,6.1316,6.1818,6.2144,6.3274,6.355,6.3425,0.0,0.0,0.0,0.0,0.0,2.1336,2.1695,2.1577,2.171,2.2338,2.2245,2.2191,2.2392,2.2084,2.1697,2.1269,2.1243,0.0,0.0,0.0,0.0,0.0,0.0,0.0,0.0,0.0,2.1991,2.1991,2.1991,2.2241,0.0,0.0,2.5624,2.7849,0.0,0.0,0.0,0.0,0.0,0.0,0.0,0.0,0.0,0.0,0.0,0.0,0.0,0.0,0.0,0.0,0.0,3.9902,3.9902,4.0684,4.2053,4.4231,4.5095,4.5682,4.7504,4.8014,4.8122,4.8122,4.7834,4.7359,4.6807,4.6866,4.6836,4.6255,4.8555,5.0698,5.0698,5.2684,5.3984,5.2986,5.3132,5.3205,5.267,5.4058,5.5262,5.5633,5.68,5.7575,5.7424,5.7549,5.7725,5.7901,5.7374,5.7022,5.7022,5.6872,5.662,5.6219,5.6219,5.6219,5.6219,5.7323,5.7901,5.7901,5.8981,5.9483,5.9483,5.9483,5.9483,5.9483,5.9483,5.9583,5.9759,6.0161,6.0512,6.0889,6.1692,6.2094,6.237,6.335,6.3576,6.3525,0.0,0.0,0.0,0.0,0.0,0.0,2.1937,2.2218,2.2405,2.2418,2.2418,2.2418,2.2418,2.1897,2.1614,2.1614,2.1614,0.0,0.0,0.0,0.0,0.0,0.0,0.0,0.0,0.0,2.1991,2.1991,2.1991,2.2818,2.4416,2.4401,2.6248,2.9475,0.0,0.0,0.0,0.0,0.0,0.0,0.0,0.0,3.5527,0.0,0.0,0.0,0.0,0.0,0.0,0.0,0.0,0.0,0.0,4.0488,4.1269,4.168,4.2482,4.3167,4.3167,4.3461,4.3793,4.3793,4.3461,4.303,4.26,4.3667,4.4642,4.418,4.6485,4.8507,4.8507,4.9413,4.975,4.8762,4.8605,4.8426,4.8029,5.0616,5.2512,5.2512,5.5213,5.6821,5.6294,5.6721,5.7273,5.7851,5.7374,5.7022,5.7022,5.652,5.6219,5.6219,5.6219,5.6219,5.6219,5.7323,5.7901,5.7901,5.8981,5.9483,5.9483,5.9483,5.9483,5.9483,5.9483,5.9809,6.0311,6.0311,6.0964,6.1994,6.1994,6.2345,6.2898,6.3475,6.3324,6.2998,0.0,0.0,0.0,0.0,0.0,0.0,0.0,2.1897,2.1897,2.2098,2.1951,2.1977,2.2378,2.1897,2.1856,2.2459,2.2084,0.0,0.0,0.0,0.0,0.0,0.0,0.0,0.0,2.2646,2.2646,2.2646,2.2646,2.2849,2.3375,2.3375,2.527,2.8595,2.8595,3.0291,0.0,0.0,0.0,0.0,0.0,3.5156,3.5937,0.0,0.0,0.0,0.0,0.0,0.0,0.0,0.0,0.0,0.0,0.0,0.0,4.125,4.1777,4.2266,4.2558,4.2734,4.2832,4.2832,4.2519,4.2168,4.2031,4.2112,4.2379,4.2539,4.4675,4.6631,4.6875,4.8608,4.9672,4.8687,4.8507,4.8688,4.9238,5.0528,5.2115,5.4228,5.6326,5.7549,5.7374,5.7173,5.7123,5.7298,5.6796,5.647,5.647,5.6319,5.6219,5.6219,5.6219,5.6219,5.6219,5.7323,5.7901,5.7901,5.8981,5.9483,5.9483,5.9483,5.9483,5.9508,5.9885,6.0161,6.0387,6.1165,6.1692,6.2044,6.2421,6.2672,6.2847,6.3023,6.2973,6.2873,0.0,0.0,0.0,0.0,0.0,0.0,0.0,2.1991,2.1911,2.1977,2.183,2.1897,2.2365,2.1991,2.1977,2.2632,2.2365,0.0,0.0,0.0,0.0,0.0,0.0,0.0,2.2928,2.2928,2.2928,2.2928,2.2928,2.2928,2.2928,2.3597,2.545,2.8246,2.8886,3.0725,0.0,0.0,0.0,0.0,3.5137,3.5781,3.6348,0.0,0.0,0.0,0.0,0.0,0.0,0.0,0.0,0.0,0.0,0.0,0.0,0.0,4.123,4.166,4.207,4.2305,4.2422,4.2422,4.2109,4.1797,4.1797,4.1484,4.1289,4.1719,4.3198,4.455,4.4921,4.6472,4.7325,4.6308,4.6236,4.6583,4.7603,4.8872,5.115,5.4952,5.6495,5.7273,5.7273,5.6947,5.6721,5.6721,5.642,5.6219,5.6219,5.6219,5.6219,5.6219,5.6219,5.6319,5.652,5.7449,5.8001,5.8227,5.9081,5.9483,5.9483,5.9483,5.9483,5.9533,6.0085,6.0437,0.0,6.1617,6.2119,6.2345,6.2697,6.2822,6.2822,6.2822,6.2822,6.2822,0.0,0.0,0.0,0.0,0.0,0.0,0.0,2.2418,2.2311,2.2031,2.1991,2.2098,2.2392,2.2164,2.2111,2.2418,0.0,0.0,0.0,0.0,0.0,0.0,0.0,0.0,2.2928,2.2928,2.2928,2.2928,2.2928,2.2928,2.2928,2.4655,2.6439,2.8295,2.9995,3.1771,3.3496,0.0,0.0,0.0,3.6113,3.666,0.0,0.0,0.0,0.0,0.0,0.0,0.0,0.0,0.0,0.0,0.0,0.0,0.0,0.0,0.0,0.0,0.0,4.2031,4.2344,4.2344,4.2051,4.1758,4.1758,4.1484,0.0,4.1758,4.2187,4.2598,4.3008,4.3418,4.3418,4.2558,4.2422,4.2902,4.4188,4.6704,5.0126,5.483,5.5842,5.6219,5.6219,5.6219,5.6219,5.6219,5.6219,5.6219,5.6219,5.6219,5.6219,5.6219,5.6244,5.652,5.7022,5.76,5.8177,5.873,5.9257,5.9483,5.9483,5.9483,5.9483,5.9533,6.0111,6.0688,6.124,6.1818,6.237,6.2822,6.2822,6.2822,6.2822,6.2822,6.2822,6.2822,0.0,0.0,0.0,0.0,0.0,0.0,0.0,0.0,0.0,0.0,2.1991,2.2098,2.2392,2.2164,2.2191,0.0,0.0,0.0,0.0,0.0,0.0,0.0,0.0,0.0,2.2928,2.2928,2.2928,2.2928,2.2928,2.2928,2.2928,2.4655,2.6439,2.8295,2.9995,3.1771,3.3457,3.4101,0.0,0.0,3.5781,3.6562,0.0,0.0,0.0,0.0,3.8535,3.8574,0.0,0.0,0.0,0.0,0.0,0.0,0.0,0.0,4.0586,4.0762,4.1211,0.0,4.1465,4.1465,4.1387,4.1328,0.0,4.1484,4.1777,4.2187,4.2617,4.2949,4.3066,4.3418,4.3418,4.2558,4.2422,4.3456,4.6429,5.0425,5.3486,5.4641,5.5616,5.6219,5.6219,5.6219,5.6219,5.6219,5.6219,5.6219,5.6219,5.6219,5.6219,5.6219,5.662,5.6897,5.7022,5.76,5.8177,5.873,5.9257,5.9483,5.9483,5.9483,5.9483,5.9558,6.0537,6.1065,6.1266,6.2245,6.2722,6.2822,6.2822,6.2822,6.2822,6.2822,6.2822,6.2822,0.0,0.0,0.0,0.0,0.0,0.0,0.0,0.0,0.0,0.0,0.0,0.0,0.0,0.0,0.0,0.0,0.0,0.0,0.0,0.0,0.0,0.0,0.0,2.3073,2.3073,2.3207,2.3273,2.3273,2.3273,2.3273,2.3343,2.5089,2.6904,2.8726,3.0522,3.1439,3.1721,3.3532,3.4226,3.4338,3.6391,0.0,0.0,0.0,0.0,0.0,3.8574,3.8574,0.0,3.8574,3.8574,3.8613,0.0,0.0,0.0,0.0,4.0215,4.0586,4.082,4.1016,4.1172,4.1172,4.1172,4.1172,4.1172,4.1504,4.1914,4.2344,4.2773,4.3144,4.332,4.3398,4.3262,4.2793,4.3141,4.4381,4.698,4.9936,5.2139,5.3129,5.4157,5.5115,5.6146,5.6219,5.6219,5.6219,5.6219,5.6219,5.6219,5.6219,5.6319,5.657,5.6872,5.7173,5.7424,5.8001,5.8554,5.9081,5.9357,5.9483,5.9483,5.9483,5.9633,5.9935,6.0788,6.1316,6.1617,6.2471,6.2822,6.2822,6.2822,6.2822,6.2822,6.2822,6.2822,6.2822,0.0,0.0,0.0,0.0,0.0,0.0,0.0,0.0,0.0,0.0,0.0,0.0,0.0,0.0,0.0,0.0,0.0,0.0,0.0,0.0,0.0,0.0,0.0,2.3354,2.3394,2.3647,2.3768,2.3768,2.3768,2.3768,2.3839,2.5608,2.7547,2.9798,3.1311,3.1404,3.0698,3.3589,3.4571,3.4351,3.7302,0.0,0.0,0.0,0.0,0.0,0.0,0.0,0.0,3.8574,3.8574,3.8574,3.8574,0.0,0.0,0.0,0.0,0.0,4.0508,4.0879,4.125,4.1191,4.1172,4.1172,4.1172,4.1543,4.1992,4.2344,4.2832,4.3242,4.3457,4.3281,4.3047,4.291,4.3929,4.5133,4.6359,4.7656,4.926,5.1384,5.2458,5.3951,5.5974,5.6219,5.6219,5.6219,5.6219,5.6219,5.6219,5.6294,5.6545,5.7022,5.7198,5.7524,5.8027,5.8478,5.8981,5.9483,5.9483,5.9483,5.9483,5.9483,5.9809,6.0362,6.0939,6.1492,6.2044,6.2596,6.2822,6.2822,6.2822,6.2822,6.2822,6.2822,6.2822,6.2847,0.0,0.0,0.0,0.0,0.0,0.0,0.0,0.0,0.0,0.0,0.0,0.0,0.0,0.0,0.0,0.0,0.0,0.0,0.0,0.0,0.0,2.326,2.33,2.3447,2.3701,2.3754,2.3768,2.3768,2.3768,2.3768,2.3839,2.5608,2.8435,3.1989,3.228,3.3403,3.5032,3.5951,3.6282,3.6302,3.7514,0.0,0.0,0.0,0.0,0.0,0.0,0.0,0.0,3.8574,3.8574,3.8574,3.8574,0.0,0.0,0.0,0.0,0.0,4.043,4.1094,4.1621,4.1269,4.1172,4.1172,4.1172,4.1777,4.2344,4.2422,4.3047,4.3398,4.2754,4.2871,4.2832,4.2109,4.3522,4.4676,4.4515,4.6852,4.926,5.1384,5.2458,5.3951,5.5974,5.6219,5.6219,5.6219,5.6219,5.6219,5.6219,5.6646,5.6947,5.7022,5.7976,5.8504,5.8604,5.8679,5.8981,5.9483,5.9483,5.9483,5.9483,5.9483,5.9809,6.0362,6.0939,6.1492,6.2044,6.2596,6.2822,6.2822,6.2822,6.2822,6.2822,6.2822,6.2822,6.2898,0.0,0.0,0.0,0.0,0.0,0.0,0.0,0.0,0.0,0.0,0.0,0.0,0.0,0.0,0.0,0.0,0.0,0.0,0.0,0.0,2.3394,2.3554,2.3714,2.3861,2.3995,2.4155,2.4235,2.4235,2.4235,2.4235,2.4308,2.7421,2.936,3.0233,3.2579,3.3677,3.3929,3.5275,3.5927,3.6152,0.0,0.0,0.0,0.0,0.0,0.0,0.0,0.0,0.0,0.0,3.8574,3.8574,3.8574,0.0,0.0,0.0,0.0,0.0,4.0137,4.0801,4.1465,4.1504,4.168,4.1855,4.1855,4.2324,4.2715,4.248,4.293,4.3183,4.2539,4.2402,4.2566,4.2964,4.3045,4.3355,4.4008,4.474,4.6004,4.8129,4.915,5.053,5.2622,5.2873,5.3326,5.4423,5.4497,5.5041,5.6146,5.5558,5.5901,5.7424,5.7161,5.7626,5.9131,5.9131,5.9257,5.9483,5.9483,5.9483,5.9483,5.9483,5.996,6.0788,6.1065,6.1667,6.2471,6.2722,6.2822,6.2822,6.2822,6.2822,6.2822,6.2822,6.3023,6.3375,0.0,0.0,0.0,0.0,0.0,0.0,0.0,0.0,0.0,0.0,0.0,0.0,0.0,0.0,0.0,0.0,0.0,0.0,0.0,2.326,2.3567,2.3861,2.4155,2.4302,2.4302,2.4516,2.4636,2.4636,2.4703,2.4952,2.5469,2.8784,3.0034,2.9781,3.3134,3.4248,3.3643,3.5211,3.6073,3.6349,0.0,0.0,0.0,0.0,0.0,0.0,0.0,0.0,0.0,0.0,0.0,0.0,0.0,0.0,0.0,3.8574,3.9199,3.9902,3.9902,4.0586,4.1387,4.1719,4.2031,4.2305,4.2402,4.2754,4.2949,4.2519,4.2773,4.291,4.2383,4.1933,4.2071,4.3192,4.2399,4.2091,4.3413,4.2919,4.3221,4.5472,4.6363,4.7645,4.9752,4.9986,5.0685,5.2242,5.2395,5.31,5.4646,5.3771,5.4164,5.6336,5.5366,5.6049,5.8656,5.8759,5.8993,5.9483,5.9483,5.9483,5.9508,5.9633,6.0236,6.119,6.1316,6.1918,6.2822,6.2822,6.2822,6.2822,6.2822,6.2822,6.2847,6.2973,6.34,6.3952,0.0,0.0,0.0,0.0,0.0,0.0,0.0,0.0,0.0,0.0,0.0,0.0,0.0,0.0,0.0,0.0,0.0,0.0,2.3273,2.3567,2.3875,2.4155,2.4449,2.4609,2.4609,2.4623,2.4636,2.4636,2.4917,2.5996,2.7659,2.8116,3.0397,3.4091,3.4776,3.6236,3.8151,3.8297,3.8389,3.8409,3.8574,0.0,0.0,0.0,0.0,0.0,0.0,0.0,0.0,0.0,0.0,0.0,0.0,0.0,3.8574,3.8574,3.9199,3.9902,3.9902,4.0801,4.1758,4.1797,4.1816,4.1953,4.2344,4.2754,4.2949,4.2519,4.2773,4.2832,4.1992,4.1504,4.1289,4.1405,4.1347,4.1426,4.1935,4.2228,4.334,4.589,4.6573,4.7746,4.9752,4.9986,5.0064,5.022,5.022,5.032,5.0452,5.1199,5.1638,5.1842,5.2628,5.4186,5.6431,5.6431,5.751,5.9483,5.9483,5.9483,5.9508,6.0035,6.0588,6.1215,6.1718,6.2295,6.2822,6.2822,6.2822,6.2822,6.2822,6.2822,6.2898,6.3425,6.3952,6.4479,0.0,0.0,0.0,0.0,0.0,0.0,0.0,0.0,0.0,0.0,0.0,0.0,0.0,0.0,0.0,0.0,0.0,0.0,2.3313,2.3768,2.4088,2.4195,2.4476,2.4636,2.4636,2.4636,2.473,2.4917,2.6523,2.764,2.8372,3.1138,3.3305,3.4939,3.6546,3.7744,3.8574,3.8574,3.8574,3.8574,3.8574,3.8574,0.0,0.0,0.0,0.0,0.0,0.0,0.0,0.0,3.8574,3.8574,3.8574,3.8574,3.8633,3.8887,3.9414,4.0019,4.0547,4.123,4.1855,4.2129,4.2402,4.2637,4.2793,4.2949,4.3027,4.2871,4.2754,4.25,4.1914,4.1465,4.125,4.1523,4.1562,4.1621,4.1777,4.2402,4.3195,4.414,4.4622,4.521,4.6001,4.6061,4.6626,4.7884,4.8043,4.8706,5.0277,4.9722,5.0143,5.181,5.1184,5.1927,5.4151,5.4151,5.4557,5.547,5.8187,5.9483,5.9508,6.006,6.0638,6.1215,6.1768,6.232,6.2822,6.2822,6.2822,6.2822,6.2822,6.3048,6.34,6.3626,6.4228,6.5007,0.0,0.0,0.0,0.0,0.0,0.0,0.0,0.0,0.0,0.0,0.0,0.0,0.0,0.0,0.0,0.0,0.0,0.0,2.3594,2.3981,2.4249,2.4342,2.4529,2.4636,2.4636,2.4636,2.4783,2.5077,2.7444,2.921,3.0473,3.3625,3.5449,3.6068,3.7851,3.8574,3.8555,3.8418,3.8359,3.8359,3.8223,3.8184,0.0,0.0,0.0,0.0,0.0,0.0,0.0,0.0,3.8262,3.8359,3.8359,3.8457,3.8652,3.9082,3.9629,4.0254,4.0976,4.1582,4.207,4.2344,4.2558,4.2715,4.2851,4.3086,4.3242,4.3105,4.2832,4.2461,4.1894,4.168,4.1621,4.1777,4.1797,4.1894,4.2168,4.2715,4.3125,4.3262,4.3535,4.3711,4.3711,4.3711,4.4248,4.5677,4.5839,4.6673,4.8549,4.7671,4.8046,4.9986,4.9047,4.9616,5.1844,5.1844,5.2177,5.2921,5.5951,5.7528,5.7618,5.8152,5.9113,6.0347,6.089,6.1794,6.2822,6.2822,6.2822,6.2822,6.2822,6.3174,6.3701,6.3877,6.4505,6.5308,0.0,0.0,0.0,0.0,0.0,0.0,0.0,0.0,0.0,0.0,0.0,0.0,0.0,0.0,0.0,0.0,2.3327,2.3581,2.4155,2.4209,2.4342,2.4623,2.4636,2.4636,2.4636,2.4649,2.4783,2.5077,2.7444,3.0531,3.4198,3.4812,3.6122,3.7949,3.8379,3.8574,3.8535,3.8105,3.791,3.7891,3.7461,3.7305,3.7305,0.0,0.0,0.0,0.0,0.0,0.0,0.0,3.7578,3.793,3.793,3.8223,3.8652,3.9082,3.9824,4.0625,4.1074,4.1797,4.2441,4.2441,4.2129,4.1933,4.2344,4.3086,4.3574,4.3164,4.3086,4.2812,4.1973,4.2148,4.2285,4.1875,4.1816,4.2109,4.2949,4.3086,4.3242,4.3652,4.3711,4.3711,4.3711,4.3711,4.3711,4.3711,4.3711,4.3906,4.4375,4.4805,4.5234,4.5664,4.6094,4.7381,4.9531,4.9531,5.0694,5.2839,5.2839,5.3107,5.3599,5.4176,5.5855,5.8486,5.9093,6.0636,6.2741,6.2822,6.2822,6.2822,6.2847,6.3199,6.3751,6.4279,6.4831,6.5383,0.0,0.0,0.0,0.0,0.0,0.0,0.0,0.0,0.0,0.0,0.0,0.0,0.0,0.0,0.0,0.0,0.0,2.3714,2.3888,2.4289,2.4543,2.4636,2.4636,2.4636,2.4636,2.5037,2.5291,2.5384,2.9412,3.1874,3.3075,3.6128,3.7851,3.8379,3.8203,3.8125,3.8086,3.7656,3.748,3.75,3.7676,3.7734,3.7734,0.0,0.0,0.0,0.0,0.0,0.0,0.0,0.0,0.0,3.793,3.8223,3.873,3.9473,4.0098,4.0742,4.1777,4.2461,4.2891,4.2891,4.3008,4.3008,4.2539,4.2871,4.3301,4.3476,4.3281,4.3008,4.2754,4.2539,4.248,4.2676,4.2695,4.2793,4.3047,4.334,4.3555,4.3691,4.3711,4.3711,4.3711,4.3711,4.3711,4.3711,4.3711,4.4043,4.4805,4.4961,4.5351,4.6094,4.623,4.6638,4.7295,4.7295,4.7641,4.829,4.853,5.0419,5.3599,5.4176,5.5009,5.6165,5.8395,5.9667,6.0445,6.2117,6.2822,6.2873,6.3274,6.3751,6.4304,6.4831,6.5383,6.5886,0.0,0.0,0.0,0.0,0.0,0.0,0.0,0.0,2.2928,2.2928,2.2928,2.2928,0.0,0.0,0.0,2.3033,2.338,2.3688,2.3928,2.4262,2.4516,2.4636,2.4756,2.4863,2.4983,2.5451,2.5692,2.5692,3.0252,3.2801,3.3552,3.6807,3.832,3.8301,3.7871,3.7676,3.7656,3.7226,3.7148,3.7305,3.7402,3.7519,3.7676,0.0,0.0,0.0,0.0,0.0,0.0,0.0,0.0,0.0,3.7617,3.7969,3.8555,3.9785,4.0449,4.1055,4.2344,4.3008,4.3281,4.3125,4.3144,4.3105,4.2754,4.2891,4.3144,4.3398,4.3672,4.3691,4.3183,4.3144,4.3183,4.3086,4.3086,4.3144,4.3301,4.3555,4.3711,4.3711,4.3711,4.3711,4.3711,4.3711,4.3711,4.3711,4.3711,4.4082,4.498,4.5019,4.541,4.6269,4.6308,4.6308,4.6308,4.6308,4.6387,4.6562,4.6816,4.8466,5.1462,5.1826,5.2712,5.4128,5.7786,5.9835,6.0803,6.2224,6.2973,6.3199,6.355,6.4153,6.4831,6.5157,6.5634,6.6112,0.0,0.0,0.0,0.0,0.0,0.0,0.0,2.2968,2.2968,2.2928,2.2928,2.2928,0.0,0.0,0.0,2.326,2.3313,2.3554,2.4088,2.4168,2.4329,2.4623,2.4943,2.5251,2.5545,2.5825,2.6114,2.6297,3.0453,3.3228,3.4754,3.6884,3.793,3.791,3.7441,3.7266,3.7266,3.6855,3.6914,3.7266,3.6973,3.7051,3.7363,3.7402,0.0,0.0,0.0,0.0,0.0,0.0,0.0,0.0,3.7168,3.7598,3.8262,3.9922,4.0762,4.1426,4.2637,4.332,4.3613,4.3223,4.2773,4.2539,4.293,4.3027,4.3047,4.3183,4.4141,4.459,4.3359,4.3828,4.4121,4.3281,4.3125,4.3262,4.3652,4.3711,4.3711,4.3711,4.3711,4.3711,4.3711,4.3711,4.373,4.3769,4.3769,4.416,4.5039,4.5078,4.5469,4.6269,4.6308,4.6308,4.6308,4.6308,4.6504,4.6933,4.6973,4.7422,4.8203,4.8203,4.9763,5.2634,5.6873,6.0111,6.247,6.247,6.2984,6.3701,6.3751,6.4295,6.4943,6.4993,6.5318,6.5742,0.0,0.0,0.0,0.0,0.0,0.0,2.326,2.322,2.314,2.2968,2.2928,2.2928,2.2928,2.2928,0.0,2.2953,2.3193,2.338,2.35,2.3955,2.4329,2.4623,2.5144,2.5558,2.5852,2.5919,2.6895,2.8662,3.1236,3.2683,3.3053,3.6363,3.793,3.7891,3.7148,3.6992,3.7266,3.6855,3.6914,3.7344,3.793,3.8008,3.7832,3.8164,3.8027,0.0,0.0,0.0,0.0,0.0,0.0,0.0,3.7168,3.7598,3.8125,3.918,4.0293,4.1308,4.1914,4.2871,4.3691,4.3594,4.2988,4.2461,4.2539,4.2558,4.2851,4.3906,4.4336,4.4336,4.3691,4.4023,4.4219,4.3652,4.3574,4.3594,4.3691,4.3711,4.3711,4.3711,4.3711,4.3711,4.3711,4.3711,4.3848,4.4219,4.4258,4.4629,4.5488,4.5527,4.5762,4.6289,4.6308,4.6308,4.6308,4.6308,4.6504,4.6933,4.7285,4.7715,4.8203,4.8203,4.9763,5.2455,5.3416,5.6204,6.0003,6.0003,6.1478,6.3726,6.4128,6.3531,6.2432,6.2952,6.3193,6.3025,0.0,0.0,0.0,0.0,0.0,0.0,0.0,0.0,2.338,2.2995,2.2928,2.2928,2.2928,2.2928,0.0,0.0,2.3006,2.3166,2.3313,2.3754,2.4249,2.4823,2.5144,2.5438,2.5732,2.6641,2.7693,2.8909,3.1902,3.3495,3.3724,3.6409,3.7519,3.7305,3.6641,3.6601,3.6992,3.6758,3.7148,3.7949,3.8398,3.8691,3.8887,3.9121,3.8809,3.8184,3.7734,0.0,0.0,0.0,0.0,0.0,0.0,0.0,3.7832,3.8887,3.998,4.1035,4.1875,4.2734,4.3398,4.3398,4.2754,4.2226,4.2656,4.2578,4.2734,4.3828,4.4394,4.4492,4.3828,4.4258,4.4473,4.3808,4.3711,4.3711,4.3711,4.3711,4.3711,4.3711,4.3711,4.3711,4.3711,4.3711,4.3887,4.4355,4.4394,4.4766,4.5625,4.5683,4.5859,4.6289,4.6308,4.6308,4.6308,4.6504,4.6816,4.7246,4.7676,4.8105,4.8516,4.8516,4.9964,5.2387,5.2387,5.4368,5.7692,5.7837,5.9054,6.0653,6.1153,6.0951,6.0263,6.063,6.0722,6.0542,0.0,0.0,0.0,0.0,0.0,0.0,0.0,0.0,0.0,2.3008,2.2928,2.2928,2.2928,2.2928,2.2928,0.0,0.0,0.0,2.33,2.3701,2.4262,2.505,2.513,2.5415,2.6025,2.7589,2.8702,2.9434,3.266,3.4613,3.5248,3.6546,3.7012,3.666,3.6289,3.6367,3.6797,3.6934,3.7656,3.8691,3.8848,3.9297,3.9902,3.998,3.9512,3.8789,3.8711,3.7949,3.6973,3.6836,0.0,0.0,0.0,0.0,3.7539,3.873,3.9766,4.0762,4.1894,4.2695,4.3144,4.3008,4.2441,4.207,4.2715,4.2637,4.2656,4.3437,4.4355,4.4746,4.3867,4.4433,4.4726,4.3848,4.3711,4.3711,4.3711,4.3711,4.3711,4.3711,4.3711,4.3711,4.3711,4.3711,4.3887,4.4355,4.4473,4.4844,4.5644,4.5742,4.5937,4.6289,4.6308,4.6328,4.6406,4.6758,4.7187,4.7695,4.8125,4.8516,4.8867,4.8867,5.0002,5.1757,5.1757,5.3123,5.5313,5.5711,5.6488,5.7492,5.7827,5.8115,5.8171,5.8171,5.8171,5.8079,0.0,0.0,0.0,0.0,0.0,0.0,0.0,0.0,0.0,0.0,2.2928,2.2928,2.2928,2.2928,2.2928,2.2928,2.2928,2.2993,2.33,0.0,0.0,2.5064,2.5317,2.6212,2.7966,2.8267,3.0013,3.3441,3.3964,3.5002,3.6468,3.6708,3.6719,3.668,3.6601,3.6816,3.7266,3.8008,3.8633,3.918,3.9961,4.0117,3.9941,4.0293,4.0137,3.9668,3.9258,3.8769,3.8203,3.7461,3.6934,0.0,0.0,0.0,3.748,3.8398,3.9551,4.0644,4.1191,4.2461,4.3437,4.2695,4.2422,4.2285,4.2031,4.2207,4.2558,4.3066,4.416,4.4746,4.3867,4.4433,4.4726,4.3848,4.3711,4.3711,4.3711,4.3711,4.3711,4.3711,4.3711,4.3711,4.3711,4.3711,4.3887,4.4355,4.4726,4.5156,4.5644,4.6016,4.625,4.6308,4.6308,4.6484,4.6836,4.6894,4.7324,4.8125,4.8555,4.8808,4.8867,4.8867,4.9032,4.938,4.938,5.0915,5.3406,5.3469,5.5271,5.7894,5.7962,5.6994,5.5565,5.5565,5.5565,5.5304,0.0,0.0,0.0,0.0,0.0,0.0,0.0,0.0,0.0,0.0,0.0,2.2928,2.2928,2.2928,2.2939,2.3113,2.3126,2.3313,2.3781,2.4182,2.4529,2.4823,2.4957,2.5894,2.7865,2.8935,3.0877,3.3605,3.4696,3.573,3.668,3.668,3.668,3.668,3.668,3.7031,3.7695,3.832,3.8965,3.9648,4.0273,4.0566,4.0664,4.1074,4.0976,4.0625,4.0644,4.0078,3.9258,3.8887,3.8301,3.7734,3.7656,0.0,0.0,0.0,3.8965,4.0039,4.1211,4.2422,4.332,4.3183,4.2969,4.2812,4.2851,4.2832,4.2988,4.3672,4.4453,4.4746,4.3867,4.4433,4.4726,4.3848,4.3711,4.3711,4.3711,4.3711,4.3711,4.3711,4.3711,4.3711,4.3711,4.3711,4.4004,4.4687,4.4707,4.5078,4.5976,4.5976,4.6055,4.6289,4.6523,4.6738,4.6933,4.7402,4.7949,4.8574,4.8769,4.8867,4.8867,4.8867,4.8867,4.8867,4.9121,4.9967,5.1033,5.1295,5.2413,5.3997,5.3997,5.3628,5.2988,5.2988,5.2988,5.2932,0.0,0.0,0.0,0.0,0.0,0.0,0.0,0.0,0.0,0.0,0.0,2.2979,2.2979,0.0,0.0,0.0,2.3367,2.3581,2.4168,2.4275,2.4409,2.4623,2.4636,2.5712,2.8141,2.9615,3.1527,3.3882,3.5314,3.625,3.668,3.668,3.6719,3.6836,3.6953,3.7402,3.8125,3.8672,3.9355,4.0098,4.0508,4.0879,4.1211,4.1523,4.1445,4.123,4.166,4.1113,4.0195,4.0098,3.9551,3.8809,3.8262,3.832,0.0,0.0,0.0,3.9707,4.123,4.2187,4.2851,4.3281,4.3144,4.2988,4.3301,4.3223,4.3262,4.3926,4.457,4.4746,4.3867,4.4433,4.4726,4.3848,4.3711,4.3711,4.3711,4.3711,4.3711,4.3711,4.3711,4.3711,4.3711,4.3711,4.3984,4.4648,4.4609,4.498,4.5918,4.5996,4.6133,4.6445,4.6875,4.7148,4.7246,4.8008,4.8535,4.8867,4.8867,4.8867,4.8867,4.8867,4.8926,4.9043,4.9375,4.9531,4.957,5.0,5.0371,5.0664,5.0762,5.0996,5.1289,5.1387,5.1504,5.1641,0.0,0.0,0.0,0.0,0.0,0.0,0.0,0.0,0.0,0.0,0.0,2.33,2.33,2.3033,2.3169,2.3688,2.3487,2.3581,2.4168,2.4462,2.4623,2.4636,2.4636,0.0,3.0097,3.0239,3.2088,3.5879,3.5947,3.625,3.668,3.668,3.6875,3.7285,3.7676,3.8105,3.8594,3.9453,4.0078,4.0527,4.0976,4.1152,4.1172,4.1191,4.1191,4.123,4.166,4.1504,4.1035,4.0625,4.0195,3.9668,3.8809,3.8555,3.8574,0.0,0.0,0.0,4.0957,4.1523,4.1973,4.2383,4.248,4.2461,4.248,4.2793,4.3086,4.3144,4.4141,4.4746,4.3867,4.4433,4.4726,4.3848,4.3711,4.3711,4.3711,4.3711,4.3711,4.3711,4.3711,4.3711,4.3711,4.3711,4.373,4.3769,4.4531,4.5019,4.5078,4.6211,4.6875,4.6894,4.7324,4.7734,4.8144,4.8594,4.8828,4.8867,4.8867,4.8867,4.8867,4.8867,4.9101,4.9492,4.9512,4.9531,4.957,5.0,5.0195,5.0254,5.0644,5.082,5.0879,5.1289,5.1699,5.2051,0.0,0.0,0.0,0.0,0.0,0.0,0.0,0.0,0.0,0.0,0.0,0.0,0.0,2.3514,2.3607,2.4008,2.4115,2.4262,2.4462,2.4583,2.4636,2.4636,2.4636,2.6415,3.0239,3.031,3.2351,3.6445,3.6445,3.6797,3.7461,3.7207,3.7305,3.7715,3.7851,3.8164,3.8633,3.9531,4.0137,4.0566,4.0996,4.1172,4.1211,4.1484,4.1582,4.1621,4.2051,4.2109,4.1953,4.1797,4.1465,4.1016,4.043,4.0039,3.9707,3.9141,3.9414,4.0019,4.0605,4.1074,4.1562,4.2266,4.2637,4.2851,4.2851,4.3183,4.3555,4.3867,4.4297,4.4531,4.4199,4.4629,4.4726,4.3848,4.3711,4.3711,4.3711,4.3711,4.3711,4.3711,4.3711,4.3711,4.3711,4.3711,4.3828,4.4121,4.416,4.4668,4.5781,4.6016,4.6504,4.7324,4.7754,4.8183,4.8613,4.8789,4.8867,4.8867,4.8867,4.8867,4.8867,4.916,4.9219,4.9121,4.9707,4.9941,4.9941,4.9805,4.9922,5.0195,5.0351,5.0566,5.0898,5.1582,5.1953,5.2168,0.0,0.0,0.0,0.0,0.0,0.0,0.0,0.0,0.0,2.3955,0.0,0.0,0.0,0.0,2.4957,2.508,2.4815,2.4636,2.4636,2.5212,2.5566,2.5566,2.621,2.7981,3.1175,3.1228,3.3071,3.668,3.668,3.709,3.791,3.75,3.7441,3.7734,3.8008,3.8379,3.8848,3.9726,4.043,4.0957,4.1113,4.1348,4.1621,4.1894,4.2109,4.2285,4.2695,4.2851,4.2812,4.2519,4.2246,4.1914,4.1348,4.0879,4.041,3.9824,3.9648,3.9785,4.0371,4.0508,4.082,4.2109,4.2539,4.2773,4.3183,4.3496,4.3789,4.4101,4.416,4.4121,4.3984,4.418,4.4219,4.3769,4.3711,4.3711,4.3711,4.3711,4.3711,4.3711,4.3711,4.3711,4.3711,4.3711,4.3828,4.4141,4.416,4.4707,4.6016,4.623,4.6836,4.7969,4.8281,4.8555,4.8867,4.8867,4.8867,4.8867,4.8867,4.8867,4.8867,4.916,4.9219,4.9101,4.9551,4.9726,4.9726,4.959,4.9609,4.9746,4.9902,5.0215,5.0703,5.1543,5.2051,5.2402,0.0,0.0,0.0,0.0,0.0,0.0,0.0,0.0,2.469,2.4407,0.0,0.0,0.0,0.0,0.0,2.7139,2.5676,2.4784,2.4784,2.6502,2.7578,2.7578,0.0,0.0,3.3188,3.3258,3.4381,3.6699,3.6699,3.7129,3.791,3.75,3.7305,3.7324,3.8184,3.8809,3.9258,4.0156,4.1035,4.1758,4.1367,4.1699,4.2402,4.2422,4.2676,4.3086,4.3516,4.3672,4.3555,4.2734,4.2461,4.2324,4.1484,0.0,0.0,0.0,0.0,3.9453,0.0,0.0,0.0,4.1836,4.209,4.2148,4.3379,4.3691,4.3691,4.3691,4.3691,4.3555,4.3125,4.3066,4.3183,4.3594,4.3672,4.3691,4.3711,4.3711,4.3711,4.3711,4.3711,4.3711,4.3711,4.3711,4.3711,4.3711,4.4512,4.5195,4.5644,4.6894,4.7988,4.8808,4.8848,4.8867,4.8867,4.8867,4.8867,4.8867,4.8867,4.8867,4.8887,4.8887,4.9121,4.9512,4.9062,4.8867,4.8887,4.9336,4.9258,4.8906,4.9375,4.9824,5.0293,5.1172,5.2012,5.2773,0.0,0.0,0.0,0.0,0.0,2.8757,2.8757,2.9033,2.9231,0.0,0.0,0.0,3.0244,3.0316,3.0203,2.9929,2.9504,2.9095,2.8772,2.9258,2.9544,2.9544,3.0026,3.1364,3.3585,3.3655,3.4938,3.7578,3.7578,3.7695,3.791,3.75,3.7305,3.7324,3.8184,3.8809,3.9277,4.0488,4.1308,4.1816,4.2012,4.2031,4.2012,4.2305,4.2324,4.2207,4.2637,4.2988,4.3223,4.2969,4.3105,4.3262,4.2715,0.0,0.0,0.0,0.0,0.0,4.0176,0.0,0.0,0.0,0.0,0.0,4.2695,4.3262,4.3613,4.332,4.3242,4.3125,4.2695,4.2598,4.2637,4.2754,4.3047,4.3359,4.3652,4.3711,4.3711,4.3711,4.3711,4.3711,4.3711,4.3711,4.3711,4.3711,4.4238,4.4902,4.5644,4.7168,4.8144,4.8379,4.8691,4.8867,4.8867,4.8867,4.8867,4.8867,4.8867,4.9023,4.9336,4.9336,4.9414,4.9512,4.9394,4.916,4.8867,4.8984,4.8965,4.8965,5.0039,5.0332,5.0391,5.2168,5.2773,5.2812,0.0,0.0,3.0562,3.0326,3.031,3.0359,3.0579,3.0794,3.1048,0.0,0.0,0.0,3.29,3.2909,3.2719,3.2478,3.1738,3.1082,3.0629,3.1324,3.1681,3.1527,3.2456,3.3583,3.4981,3.5149,3.6148,3.793,3.793,3.793,3.791,3.7676,3.7461,3.7344,3.8379,3.8965,3.9316,4.1191,4.2012,4.207,4.2129,4.2344,4.2598,4.2676,4.2773,4.291,4.3164,4.3516,4.3808,4.3262,4.3359,4.3633,4.3203,0.0,0.0,0.0,0.0,0.0,0.0,0.0,4.0137,4.0879,0.0,0.0,4.2578,4.3086,4.3418,4.3359,4.3203,4.3008,4.2754,4.2558,4.248,4.2676,4.2754,4.2949,4.3379,4.3437,4.3516,4.3691,4.3711,4.3711,4.3711,4.3711,4.3711,4.3711,4.4297,4.5117,4.6152,4.748,4.8203,4.8203,4.8633,4.8867,4.8867,4.8672,4.8672,4.8867,4.8672,4.8828,4.9258,4.9258,4.9258,4.9258,4.9258,4.9101,4.8867,4.9062,4.9141,4.9219,4.998,5.0351,5.0625,5.2226,5.2773,5.2832,0.0,0.0,3.154,3.1132,3.1081,3.1182,3.1663,3.1748,3.19,0.0,3.2537,3.3352,3.5138,3.5121,3.4901,3.4847,3.3311,3.2137,3.1798,3.3251,3.4046,3.3736,3.5692,3.6758,3.6816,3.7168,3.7578,3.7988,3.7949,3.793,3.793,3.7871,3.7676,3.7422,3.8711,3.9297,3.9512,4.207,4.2871,4.2402,4.2187,4.2734,4.3672,4.3281,4.3613,4.4258,4.4316,4.4531,4.4648,4.3516,4.3398,4.3652,0.0,0.0,0.0,0.0,4.1406,0.0,0.0,0.0,0.0,0.0,4.1445,0.0,4.2676,4.3008,4.3164,4.3496,4.3301,4.3066,4.3008,4.2695,4.2558,4.2949,4.2676,4.2598,4.3086,4.3144,4.3281,4.3652,4.375,4.3789,4.3789,4.373,4.373,4.3769,4.4551,4.5566,4.6797,4.7617,4.8086,4.8144,4.8555,4.8808,4.8867,4.8418,4.8418,4.8848,4.8418,4.8457,4.8926,4.8887,4.8887,4.8926,4.8887,4.8867,4.8887,4.9336,4.9531,4.9531,4.9687,5.0176,5.0918,5.1816,5.2383,5.2832,3.6656,3.6284,3.6034,3.5958,3.5939,3.5977,3.6053,3.6337,3.6584,3.6679,3.7058,3.7451,3.7836,3.7832,3.7658,3.7311,3.6914,3.6641,3.6565,3.6617,3.6701,3.6951,3.7093,3.7324,3.7676,3.7754,3.8008,3.8457,3.8105,3.793,3.791,3.7578,3.7559,3.7851,3.918,3.9941,4.041,4.2637,4.3144,4.2519,4.3496,4.3808,4.3691,4.3613,4.3476,4.3379,4.3711,4.3672,4.3476,4.3555,4.3633,4.3808,0.0,0.0,0.0,4.3066,0.0,0.0,0.0,0.0,0.0,4.0781,4.123,0.0,4.1992,4.2578,4.3008,4.2734,4.2891,4.2969,4.2617,4.248,4.2461,4.2539,4.248,4.2695,4.3476,4.3574,4.3613,4.3691,4.4043,4.4258,4.4258,4.3926,4.3867,4.4238,4.4726,4.543,4.6367,4.6914,4.7344,4.7695,4.8105,4.8496,4.894,4.8418,4.8418,4.8848,4.8418,4.8633,4.9375,4.9023,4.9062,4.9375,4.9023,4.8867,4.8887,4.9336,4.9531,4.9629,5.0664,5.0957,5.0957,5.2148,5.2637,5.2793,3.7617,3.7617,3.7539,3.7324,3.7305,3.7363,3.7578,3.7793,3.8086,3.8496,3.8965,3.9238,3.9238,3.9238,3.9062,0.0,0.0,0.0,3.8262,3.8047,3.793,3.793,3.793,3.793,3.793,3.8144,3.8457,3.8887,3.8457,3.8242,3.8242,3.8027,3.8164,3.8613,3.9726,4.0684,4.1582,4.332,4.4043,4.4043,4.4043,4.3789,4.3398,4.3398,4.3398,4.3398,4.3398,4.3125,4.2851,4.3496,4.3711,0.0,4.4219,4.4062,4.3574,0.0,4.2305,4.166,0.0,0.0,0.0,4.084,4.1172,0.0,0.0,4.2129,4.2441,4.2422,4.2773,4.3008,4.2793,4.293,4.3066,4.3066,4.2891,4.2969,4.3613,4.3516,4.3476,4.3691,4.4121,4.4394,4.4394,4.4199,4.4238,4.4687,4.4902,4.5391,4.625,4.6699,4.7031,4.7246,4.7676,4.8008,4.8223,4.8008,4.8105,4.8535,4.832,4.8555,4.918,4.8965,4.8984,4.918,4.8965,4.8984,4.9219,4.9668,4.998,5.0234,5.0879,5.1113,5.123,5.209,5.2519,5.2773,3.8047,3.8047,3.7949,3.7598,3.7539,3.7676,3.8105,3.8164,3.8457,3.9238,3.9726,4.0019,4.0019,4.0176,4.0117,0.0,0.0,0.0,3.9219,3.9043,3.8789,3.8437,3.8691,3.8652,3.832,3.8652,3.8984,3.9336,3.8828,3.8672,3.8828,3.8652,3.8848,3.9375,4.0332,4.1387,4.2519,4.3926,4.4824,4.5215,4.4316,4.3906,4.3789,4.3555,4.3613,4.375,4.3066,4.2656,4.2539,4.332,4.3633,4.375,4.4004,4.3965,0.0,0.0,0.0,0.0,0.0,0.0,0.0,4.1113,4.1172,4.1269,0.0,0.0,0.0,4.2246,4.2656,4.2969,4.3066,4.3359,4.3574,4.3574,4.3359,4.3281,4.3555,4.3359,4.332,4.3672,4.4121,4.4433,4.4512,4.4668,4.4844,4.5019,4.5176,4.5527,4.6152,4.6582,4.6836,4.6933,4.7266,4.7539,4.7695,4.7617,4.7832,4.832,4.8242,4.8437,4.8867,4.8867,4.8867,4.8867,4.8945,4.9199,4.957,5.0078,5.0508,5.082,5.0898,5.1133,5.1465,5.1836,5.2266,5.2754,3.8496,3.8496,3.8496,3.8437,3.8437,3.8574,3.8984,3.9062,3.9238,0.0,0.0,4.0449,4.0449,4.1133,4.1562,0.0,0.0,0.0,4.1445,4.0723,4.0273,4.0234,3.9922,3.9726,3.9668,3.9726,3.9766,3.9824,3.8984,3.8984,3.9726,3.8945,3.9023,3.9863,4.1113,4.1933,4.2539,4.4238,4.4551,4.3984,4.4609,4.5527,0.0,4.5234,4.4609,4.4101,4.2519,4.2148,4.25,0.0,4.3398,4.3906,0.0,4.4941,4.4297,4.4199,0.0,0.0,0.0,0.0,0.0,0.0,4.1172,4.1191,4.123,0.0,4.1816,4.1855,0.0,4.2617,4.3008,0.0,0.0,4.3144,4.3418,4.3516,4.3203,4.3437,4.3652,4.3691,4.4121,4.4551,4.4922,4.5644,4.5801,4.5078,4.5723,4.6035,4.5762,4.6152,4.6543,4.6914,4.6973,4.7363,4.8125,4.7773,4.7988,4.8789,4.8398,4.8437,4.8867,4.8867,4.8867,4.8887,4.9277,4.9492,4.959,5.0391,5.0762,5.084,5.1211,5.1387,5.1445,5.1484,5.2012,5.2715,3.8574,3.8574,3.8574,3.8574,3.8769,3.9004,3.918,3.9629,4.0039,0.0,0.0,0.0,0.0,4.1445,4.1699,4.1465,4.166,4.1797,4.1797,0.0,0.0,4.0918,4.0957,4.0644,3.9922,4.0137,4.0254,4.0254,3.9648,0.0,4.0254,0.0,0.0,4.0684,4.1445,4.2305,4.3262,4.4766,4.5469,4.5605,0.0,4.6601,0.0,4.4766,4.3476,4.2793,4.2051,4.1758,4.1758,0.0,4.2793,0.0,0.0,0.0,0.0,0.0,0.0,0.0,0.0,0.0,0.0,0.0,0.0,0.0,4.1601,0.0,4.1738,0.0,0.0,0.0,0.0,0.0,0.0,0.0,4.3437,4.3633,4.3457,0.0,4.3711,4.3711,4.4121,4.457,4.498,4.5801,4.5957,4.5098,4.582,4.6113,4.5703,4.6074,4.6387,4.6562,4.6562,4.6855,4.7461,4.7539,4.7891,4.8476,4.8555,4.8672,4.8867,4.8867,4.9004,4.9258,4.9453,4.9805,5.0293,5.0664,5.0957,5.1191,5.1367,5.1426,5.1426,5.1426,5.1816,5.2383,3.8574,0.0,3.8574,3.8574,3.8926,3.9277,3.9531,4.0215,4.0703,4.0703,0.0,0.0,4.1504,4.1894,0.0,0.0,4.2148,4.2266,4.2168,0.0,4.209,4.1543,4.1914,4.166,4.0605,4.0781,4.0879,4.0879,4.0332,4.0293,0.0,0.0,0.0,0.0,4.1914,4.2734,4.3789,4.498,4.5781,4.625,4.6367,4.6308,4.5957,4.3984,4.2715,4.1953,4.1836,4.168,4.1601,4.2148,4.2656,0.0,4.2988,0.0,0.0,0.0,0.0,0.0,4.2637,0.0,0.0,0.0,0.0,0.0,0.0,0.0,0.0,0.0,0.0,0.0,0.0,0.0,0.0,0.0,0.0,4.3359,0.0,4.3457,0.0,0.0,0.0,4.457,4.498,4.5801,4.5996,4.5254,4.5996,4.623,4.5703,4.6074,4.6308,4.6308,4.6426,4.668,4.7109,4.7539,4.7969,4.8398,4.8711,4.8867,4.8867,4.8984,4.9219,4.9531,4.9785,5.0234,5.082,5.0937,5.1152,5.1426,5.1426,5.1426,5.1426,5.1426,5.1777,5.2305,3.8574,3.8574,3.8574,3.8574,3.8926,3.9492,4.0351,4.0859,4.1152,4.1152,4.1523,0.0,0.0,0.0,0.0,0.0,0.0,4.3476,4.3066,4.3418,4.3262,4.2422,4.2812,4.2812,4.2363,4.1953,4.1758,4.1758,4.0918,4.0723,0.0,0.0,0.0,0.0,4.2656,4.3281,4.3769,4.4668,4.4824,4.4512,4.4922,4.4082,4.2676,0.0,4.3144,4.2344,4.1953,0.0,0.0,4.3359,4.3398,0.0,0.0,0.0,0.0,0.0,0.0,0.0,0.0,0.0,0.0,4.3047,0.0,0.0,0.0,0.0,4.2793,0.0,0.0,0.0,0.0,0.0,0.0,0.0,0.0,0.0,0.0,0.0,0.0,0.0,0.0,0.0,0.0,4.5801,4.6113,0.0,4.6426,4.6543,4.5723,4.6074,4.6308,4.6308,4.6699,4.7129,4.7558,4.7969,4.8398,4.8848,4.8848,4.8867,4.8867,4.9316,4.9512,4.957,5.041,5.0781,5.084,5.125,5.1426,5.1426,5.1426,5.1426,5.1426,5.1426,5.1973,5.2695,3.8633,0.0,3.8652,3.8945,3.9355,3.9961,4.082,4.1074,4.1269,4.1543,4.1465,0.0,0.0,4.2148,4.2285,0.0,0.0,4.293,4.3066,4.3476,4.3457,4.2891,4.3828,4.375,4.2461,4.2832,4.2656,4.1797,4.1504,0.0,0.0,0.0,0.0,0.0,0.0,4.3301,4.3789,4.4961,0.0,0.0,0.0,4.4512,4.3691,0.0,4.2754,4.2031,4.2168,4.2305,0.0,4.2754,4.3144,4.3437,4.3183,4.3496,4.3789,4.291,4.2851,4.3047,0.0,0.0,4.3144,4.3418,0.0,0.0,0.0,0.0,0.0,0.0,0.0,0.0,0.0,0.0,0.0,0.0,0.0,0.0,0.0,0.0,0.0,0.0,0.0,0.0,0.0,0.0,0.0,0.0,4.6289,0.0,4.5723,4.6074,4.6308,4.6308,4.6719,4.7129,4.7578,4.7988,4.8418,4.8867,4.8867,4.8867,4.8867,4.9316,4.9687,4.998,5.0566,5.0957,5.123,5.1367,5.1426,5.1426,5.1426,5.1426,5.1426,5.1426,5.1797,5.2383,3.9101,3.9043,3.9082,3.918,3.9707,4.0351,4.1055,4.1308,4.1445,0.0,4.1465,0.0,4.1777,0.0,4.1641,0.0,4.2051,4.2461,4.3047,4.3476,0.0,4.3555,4.4355,4.4277,0.0,0.0,4.3086,4.2246,0.0,4.1582,0.0,0.0,0.0,0.0,0.0,4.3633,4.4219,4.4922,4.5215,0.0,0.0,4.4394,0.0,0.0,4.3066,4.2715,0.0,4.2754,4.2871,4.2871,4.3144,4.3379,4.2832,4.3144,4.3535,4.2676,4.2734,4.3047,4.2891,4.3066,0.0,4.3633,4.4043,0.0,4.4219,0.0,4.4004,0.0,0.0,0.0,0.0,0.0,0.0,0.0,0.0,0.0,0.0,4.2124,0.0,0.0,0.0,0.0,0.0,0.0,0.0,0.0,0.0,0.0,0.0,4.6289,4.6465,4.6308,4.6855,4.7285,4.7578,4.8144,4.8574,4.8867,4.8867,4.8945,4.9101,4.9551,5.0,5.043,5.084,5.1172,5.1426,5.1426,5.1426,5.1426,5.1426,5.1426,5.1426,5.1426,5.1719,5.2207,3.9902,3.9922,3.9785,3.9336,4.0,4.0723,4.1113,4.1523,4.166,0.0,4.1543,4.1777,4.1797,4.1426,4.1328,4.1738,4.1777,4.2129,4.2969,4.3437,0.0,0.0,4.4394,4.4414,4.4355,0.0,0.0,0.0,0.0,0.0,0.0,0.0,0.0,0.0,4.3535,0.0,4.5019,4.459,4.4394,4.4355,4.3926,4.3769,4.3789,4.3769,4.4062,4.4336,4.3437,4.3359,4.3711,4.3711,4.3437,4.3105,4.3105,4.2812,4.2461,4.2461,4.2734,4.2949,4.2558,4.3047,4.3691,4.373,4.4062,4.4512,0.0,0.0,4.4766,0.0,0.0,0.0,0.0,0.0,0.0,0.0,0.0,0.0,0.0,0.0,0.0,0.0,0.0,0.0,0.0,0.0,0.0,0.0,0.0,0.0,0.0,4.6699,4.6738,4.6308,4.7129,4.7578,4.7578,4.8418,4.8867,4.8867,4.8887,4.9121,4.9551,5.0,5.043,5.082,5.125,5.1426,5.1426,5.1426,5.1426,5.1426,5.1426,5.1426,5.1426,5.1465,5.1738,5.2226,3.9961,4.0156,4.0332,4.0215,4.0898,4.1406,4.1211,4.1523,0.0,0.0,4.1465,4.1445,4.1758,4.1426,4.1211,4.1328,4.1328,0.0,0.0,0.0,0.0,4.3418,4.4336,4.4551,4.3887,4.4004,4.373,4.3086,0.0,0.0,4.166,0.0,0.0,0.0,0.0,4.4707,4.5449,4.4726,4.4394,4.4394,4.4277,4.4609,4.5137,0.0,4.4961,4.5195,4.3984,4.3613,4.3711,4.3711,4.3633,4.3555,4.3555,4.3262,4.291,4.291,4.2754,4.2637,4.2851,4.3066,4.3398,4.4062,4.4316,4.4512,4.4922,4.4785,0.0,0.0,0.0,0.0,0.0,0.0,0.0,0.0,0.0,0.0,0.0,0.0,0.0,3.8703,0.0,0.0,0.0,0.0,0.0,0.0,0.0,0.0,4.6328,4.6699,4.6738,4.6308,4.7129,4.7578,4.7578,4.8418,4.8867,4.8867,4.9199,4.9414,4.9551,5.0312,5.0703,5.082,5.125,5.1426,5.1426,5.1426,5.1426,5.1426,5.1426,5.1426,5.1465,5.1797,5.2187,5.2578,4.0547,4.0644,4.0801,4.0801,4.1348,4.166,4.123,4.168,0.0,4.207,4.2031,0.0,4.2324,4.1973,4.1719,4.1719,4.1719,0.0,4.2598,0.0,0.0,4.3633,4.416,4.4316,4.4023,4.4062,0.0,4.3359,0.0,0.0,4.209,0.0,0.0,0.0,0.0,4.498,4.5898,4.5039,4.457,4.4394,4.4394,4.4805,0.0,4.5117,4.5176,4.5273,4.4336,4.3867,4.3711,4.3711,4.3711,4.3711,4.3711,4.3535,4.3359,4.3359,4.3183,4.3008,4.3066,4.3223,4.3418,4.375,4.3965,4.4258,4.4883,4.4844,4.4726,4.4922,4.459,4.4316,0.0,0.0,0.0,0.0,0.0,0.0,0.0,0.0,0.0,0.0,3.5996,0.0,0.0,0.0,0.0,0.0,0.0,0.0,0.0,0.0,4.5713,4.6582,4.7402,4.7773,4.7578,4.8633,4.9043,4.8867,4.9316,4.9629,4.9844,5.0508,5.0898,5.1094,5.1328,5.1426,5.1426,5.1426,5.1426,5.1426,5.1426,5.1426,5.1465,5.1719,5.207,5.2461,0.0,0.0,0.0,0.0,4.1484,0.0,0.0,4.1875,0.0,4.2344,0.0,4.293,4.2988,4.2656,4.2422,4.2422,4.2422,4.2773,4.3574,4.334,4.3496,4.4277,4.3984,4.3965,4.4297,4.3906,4.373,0.0,0.0,0.0,0.0,0.0,0.0,0.0,0.0,0.0,0.0,4.541,4.4824,4.4394,4.4453,4.4726,4.5117,4.5117,4.5078,4.498,4.4609,4.418,4.3789,4.3789,4.3828,4.3867,4.3867,4.3867,4.3867,4.3867,4.3867,4.3789,4.3359,4.3516,4.3711,4.334,4.3476,4.3926,4.4746,4.4941,4.5058,4.543,4.5254,4.4922,4.4629,0.0,0.0,0.0,0.0,0.0,0.0,0.0,0.0,0.0,0.0,0.0,0.0,0.0,0.0,0.0,0.0,0.0,0.0,0.0,4.4427,4.6845,4.7715,4.8008,4.7754,4.8867,4.9297,4.9043,4.9433,4.9844,5.0273,5.0703,5.1094,5.1426,5.1426,5.1426,5.1426,5.1426,5.1426,5.1426,5.1426,5.1426,5.1426,5.1426,5.1719,5.2129,0.0,0.0,0.0,0.0,0.0,4.1367,4.1641,4.1816,4.1914,4.1914,4.1973,4.2148,4.25,4.248,4.2422,4.2422,4.2422,0.0,0.0,0.0,0.0,4.3828,4.4121,4.4141,4.3828,4.375,4.3887,0.0,0.0,0.0,0.0,0.0,0.0,0.0,0.0,0.0,4.5254,4.5469,0.0,4.4433,4.4766,4.5176,4.5566,4.5566,4.5332,4.5019,4.4941,4.4648,4.4277,4.4277,4.4512,4.4785,4.4785,4.4785,4.4785,4.4785,4.4785,4.4707,4.4277,4.4219,4.4258,4.418,4.3926,4.3848,4.4394,4.4512,4.4531,4.4609,4.4844,4.5117,4.5391,0.0,0.0,0.0,0.0,0.0,0.0,0.0,0.0,0.0,0.0,3.6936,0.0,0.0,0.0,0.0,0.0,0.0,0.0,0.0,4.4427,0.0,4.7422,4.7988,4.8633,4.8867,4.9297,4.9941,5.0019,5.0293,5.0703,5.1133,5.1367,5.1426,5.1426,5.1426,5.1426,5.1426,5.1426,5.1426,5.1426,5.1426,5.1426,5.1426,5.1719,5.2031,0.0,0.0,0.0,0.0,0.0,0.0,0.0,4.2129,4.2285,4.2734,4.2793,4.2949,4.3398,4.3242,4.3086,4.3086,4.3301,4.3535,4.375,4.416,4.4394,4.4394,4.4394,4.4297,4.4062,4.3828,4.4043,4.4726,0.0,0.0,0.0,0.0,0.0,0.0,0.0,4.6074,0.0,0.0,0.0,4.4766,4.5195,4.5488,4.5683,4.5683,4.5547,4.5332,4.5117,4.5039,4.5019,4.4805,4.4863,4.5019,4.5019,4.5019,4.5019,4.5019,4.5019,4.498,4.4785,4.4726,4.4726,4.4726,4.4551,4.4512,4.4961,4.4883,4.4844,4.5293,4.5195,4.5156,4.5586,4.6016,4.6367,0.0,0.0,0.0,0.0,0.0,0.0,0.0,0.0,0.0,0.0,0.0,0.0,0.0,0.0,0.0,0.0,0.0,4.4519,0.0,0.0,0.0,4.8516,4.8984,4.9414,4.9844,5.0078,5.0391,5.082,5.123,5.1426,5.1426,5.1426,5.1426,5.1426,5.1426,5.1426,5.1426,5.1426,5.1426,5.1426,5.1426,5.1562,5.1738,0.0,4.1699,0.0,0.0,4.2266,4.2461,4.2558,4.2558,4.2812,4.3476,4.3574,4.375,4.4199,4.3926,4.375,4.3848,4.418,4.4473,4.4668,4.498,4.5156,4.5156,4.4844,4.459,4.4394,4.4043,4.4199,0.0,0.0,0.0,0.0,0.0,0.0,0.0,0.0,0.0,0.0,0.0,4.5156,4.5195,4.5547,4.5723,4.5801,4.5703,4.5683,4.5625,4.5293,4.5391,4.5644,4.5391,4.5293,4.5293,4.5293,4.5293,4.5293,4.5293,4.5293,4.5273,4.5195,4.5156,4.5137,4.5039,4.5019,4.5117,4.5449,4.541,4.5488,4.6172,4.5918,4.5703,4.6133,4.6328,4.6523,0.0,0.0,0.0,0.0,0.0,0.0,0.0,0.0,0.0,0.0,0.0,0.0,0.0,0.0,0.0,4.2309,0.0,0.0,0.0,0.0,4.7477,4.7746,0.0,4.9629,4.9805,5.0156,5.0527,5.0957,5.1289,5.1426,5.1426,5.1426,5.1426,5.1426,5.1426,5.1426,5.1426,5.1426,5.1426,5.1426,5.1426,5.1426,5.1484,0.0,0.0,0.0,0.0,0.0,4.2558,4.2949,4.3008,4.3047,4.3125,4.3144,4.3301,4.373,4.373,4.3867,4.4297,4.4375,4.4726,4.5508,4.5586,4.5625,4.5625,4.5586,4.5195,4.4414,4.4355,4.4375,0.0,0.0,4.4648,0.0,0.0,0.0,0.0,0.0,0.0,0.0,4.5644,4.5625,4.5625,4.5664,4.5898,4.6191,4.582,4.5683,4.5664,4.5625,4.5644,4.5723,4.6074,4.6191,4.6191,4.6191,4.6191,4.6191,4.6191,4.6191,4.6094,4.5723,4.5625,4.5527,4.5117,4.5019,4.5039,4.5078,4.5644,4.6211,4.6289,4.6855,4.7461,4.7891,4.7363,4.7246,4.8418,0.0,0.0,0.0,0.0,0.0,0.0,0.0,0.0,0.0,3.9288,0.0,0.0,3.757,0.0,0.0,0.0,0.0,4.4428,4.4668,4.5212,4.632,4.8405,4.9922,5.0683,5.0723,5.0957,5.1367,5.1406,5.1426,5.1426,5.1426,5.1426,5.1426,5.1426,5.1426,5.1426,5.1426,5.1426,5.1426,5.1426,5.1426,5.1445,0.0,0.0,0.0,0.0,0.0,0.0,0.0,4.3457,4.3457,4.3457,4.3457,4.3516,4.3691,4.3711,4.3887,4.4355,4.4629,4.5039,4.5644,4.5918,4.6055,4.6055,4.582,4.5508,4.5176,4.4902,4.4902,0.0,0.0,0.0,4.6055,4.6914,4.7051,4.6543,0.0,4.6152,4.5683,4.5683,4.5683,4.5703,4.5957,4.6152,4.625,4.584,4.584,4.6016,4.5762,4.584,4.6074,4.625,4.6308,4.6308,4.6308,4.6308,4.6308,4.6308,4.6308,4.6269,4.6094,4.6055,4.6016,4.584,4.5801,4.5801,4.5801,4.5859,4.5996,4.625,4.6777,4.7324,4.7754,4.7754,4.7793,4.8047,0.0,0.0,0.0,0.0,0.0,0.0,0.0,0.0,0.0,0.0,0.0,0.0,0.0,0.0,0.0,0.0,0.0,4.2505,0.0,4.6411,4.5754,4.8234,4.9824,5.043,5.0683,5.1035,5.1426,5.1426,5.1426,5.1426,5.1426,5.1426,5.1426,5.1426,5.1426,5.1426,5.1426,5.1426,5.1426,5.1426,5.1426,5.1426,4.3242,0.0,4.3652,0.0,4.3594,4.3711,4.3711,4.3711,4.375,4.3887,4.3906,4.3906,4.3906,4.4023,4.4336,4.4902,4.5332,4.5762,4.6211,4.6387,4.6484,4.6484,4.6094,0.0,4.5683,4.5371,4.5312,4.5488,4.6328,0.0,4.6445,4.6699,4.6641,4.6289,4.5996,4.5781,4.5683,4.5683,4.5742,4.5898,4.6308,4.6484,4.6465,4.6152,4.623,4.6426,4.6016,4.6055,4.6308,4.6308,4.6308,4.6308,4.6308,4.6308,4.6308,4.6308,4.6308,4.6308,4.6308,4.6308,4.6308,4.6308,4.6308,4.6308,4.6308,4.6172,4.6211,4.6758,4.7207,4.7598,4.7891,4.8086,4.8203,4.8164,4.8086,0.0,0.0,4.7851,0.0,0.0,0.0,4.8301,4.8164,4.6336,0.0,0.0,0.0,0.0,0.0,4.3054,0.0,0.0,0.0,0.0,4.5682,4.8348,4.9941,5.0371,5.0781,5.1152,5.1426,5.1426,5.1426,5.1426,5.1426,5.1426,5.1426,5.1426,5.1426,5.1426,5.1426,5.1426,5.1426,5.1426,5.1426,5.1426,4.3613,4.3691,4.3848,4.4297,4.4004,4.3711,4.3711,4.3711,4.3867,4.4336,4.4394,4.4394,4.4394,4.4766,4.5351,4.6211,4.666,4.709,4.7519,4.7168,4.6914,0.0,0.0,4.6113,4.5683,4.5664,4.5449,4.5039,0.0,0.0,4.3769,4.4648,4.5508,4.6308,4.6289,4.6055,4.5683,4.5683,4.5918,4.6328,4.6758,4.6914,4.6914,4.6914,4.6914,4.6875,4.6445,4.6289,4.6308,4.6308,4.6308,4.6308,4.6308,4.6308,4.6308,4.6308,4.6308,4.6308,4.6308,4.6308,4.6308,4.6308,4.6308,4.6308,4.6308,4.6621,4.7148,4.8008,4.8535,4.8828,4.8848,4.8496,4.8496,4.9355,4.8437,0.0,0.0,0.0,0.0,0.0,4.9609,4.998,4.9551,4.7529,0.0,0.0,4.3078,4.2521,4.4814,4.2369,4.2099,4.4701,4.4984,4.5363,4.6096,4.8786,5.0391,5.0801,5.123,5.1426,5.1426,5.1426,5.1426,5.1426,5.1426,5.1426,5.1426,5.1426,5.1426,5.1426,5.1426,5.1426,5.1426,5.1426,5.1426,5.1426,4.3807,4.418,4.4121,4.3945,4.4062,4.418,4.418,4.4414,4.4648,4.4805,4.4824,4.5039,4.5625,4.5293,4.5371,0.0,4.6426,4.6816,0.0,4.7441,4.7383,4.7383,4.6953,4.666,4.6523,4.625,4.5898,4.5469,0.0,0.0,4.5488,4.5762,4.5723,4.5449,4.5742,4.5801,4.5703,4.5976,4.6348,4.6738,4.6875,4.6933,4.6933,4.6933,4.6758,4.6484,4.6348,4.6308,4.6308,4.6308,4.6308,4.6308,4.6308,4.6308,4.6308,4.6308,4.6308,4.6308,4.6308,4.6308,4.6308,4.6308,4.6308,4.6308,4.6308,4.6855,4.7617,4.8476,4.9004,4.9316,4.9316,4.9199,4.9101,4.9082,4.873,4.8535,4.8808,0.0,0.0,0.0,4.9101,4.9336,4.9512,4.9127,0.0,0.0,4.7256,4.5096,4.3008,4.3607,4.3686,4.2957,4.6228,4.7421,4.6096,4.9071,5.0664,5.0801,5.123,5.1426,5.1426,5.1426,5.1426,5.1426,5.1426,5.1426,5.1426,5.1426,5.1426,5.1426,5.1426,5.1426,5.1426,5.1426,5.1426,5.1426,4.4356,4.4629,4.4531,4.4258,4.4433,4.4629,4.4629,4.4863,4.5137,4.5469,4.5508,4.584,4.6699,4.6308,0.0,4.6953,4.7168,4.748,4.8027,4.791,4.7812,4.7812,4.7402,4.7168,4.7168,4.6758,0.0,4.6152,4.6504,4.6562,4.6308,4.6308,4.6016,4.5527,4.5781,4.5996,4.6172,4.6426,4.6777,4.7168,4.7168,4.7168,4.7148,4.6992,4.6758,4.6523,4.6367,4.6308,4.6308,4.6308,4.6308,4.6308,4.6308,4.6308,4.6308,4.6308,4.6308,4.6308,4.6308,4.6308,4.6348,4.6504,4.666,4.6855,4.7187,4.7812,4.8457,4.9004,4.9473,4.9766,4.9766,4.9766,4.9687,4.9394,4.9355,4.9355,4.9355,0.0,4.9473,0.0,0.0,4.9941,5.0215,5.0351,5.0508,0.0,0.0,4.7217,4.4702,4.5458,4.5573,4.457,4.7799,4.8954,4.7676,4.9685,5.0879,5.1035,5.1308,5.1426,5.1426,5.1426,5.1426,5.1426,5.1426,5.1426,5.1426,5.1426,5.1426,5.1426,5.1426,5.1426,5.1426,5.1426,5.1426,5.1426,4.4934,4.5019,4.5019,0.0,4.5058,4.5078,4.5078,4.5117,4.5449,4.625,4.6367,4.6699,4.7539,4.7617,4.7793,4.8223,0.0,0.0,4.8867,4.8476,4.8262,4.8262,4.7851,4.7617,4.7617,4.7187,4.6973,4.6973,4.6582,4.6387,4.6387,4.6387,4.6387,4.6387,4.6387,4.6601,4.6973,4.6973,4.7226,4.7617,4.7598,4.7578,4.7539,4.709,4.6914,4.6836,4.6445,4.6308,4.6308,4.6308,4.6308,4.6308,4.6308,4.6308,4.6308,4.6308,4.6308,4.6308,4.6328,4.6348,4.6445,4.6875,4.7305,4.7851,4.8711,4.9258,4.959,4.9609,4.9961,5.0254,5.0234,5.0215,5.0215,5.0176,5.0176,5.0176,5.0176,5.0176,5.0469,5.125,5.1348,5.1367,5.1387,5.1016,5.0449,4.9707,4.9238,4.9004,4.9004,4.7753,4.7635,4.8945,4.9336,4.9785,5.0215,5.0644,5.1035,5.1426,5.1426,5.1426,5.1426,5.1426,5.1426,5.1426,5.1426,5.1426,5.1426,5.1426,5.1426,5.1426,5.1426,5.1426,5.1426,5.1426,5.1426,5.1426,0.0,0.0,4.5019,4.5019,4.5312,4.5527,4.5527,4.6074,4.6543,4.6758,4.707,4.748,4.8008,4.8066,4.8242,4.8672,4.8496,4.8496,4.8828,4.8769,4.8711,4.8711,4.8281,4.8066,4.8066,4.7637,4.7422,4.7422,4.7324,4.7285,4.7285,4.7285,4.7285,4.7285,4.7285,4.7344,4.7422,4.7422,4.7676,4.8027,4.7715,4.7578,4.7539,4.709,4.6738,4.6445,4.6328,4.6308,4.6308,4.6308,4.6308,4.6308,4.6308,4.6308,4.6308,4.6308,4.6308,4.6367,4.6699,4.6777,4.6894,4.7324,4.7734,4.8281,4.916,4.9707,5.0117,5.043,5.084,5.1035,5.0723,5.0664,5.0547,5.0234,5.0176,5.0176,5.0176,5.0176,5.0254,5.0449,5.0469,5.0605,5.0918,5.0566,5.0508,5.0957,5.0586,5.0351,5.0351,5.0031,4.9665,4.9394,4.9805,5.0234,5.0644,5.1074,5.1328,5.1426,5.1426,5.1426,5.1426,5.1426,5.1426,5.1426,5.1426,5.1426,5.1426,5.1426,5.1426,5.1426,5.1426,5.1426,5.1426,5.1426,5.1426,5.1426,4.3429,4.4789,4.5605,4.5605,4.5801,4.5957,4.5957,4.6348,4.6777,4.7168,4.7441,4.7812,4.8437,4.8496,4.8594,4.8848,4.8633,4.8613,4.8848,4.8867,4.8867,4.8867,4.8633,4.8496,4.8496,4.8086,4.7773,4.7578,4.7578,4.7578,4.7578,4.7578,4.7578,4.7578,4.7578,4.7695,4.7871,4.7871,4.7988,4.8164,4.7754,4.7461,4.7246,4.6797,4.6504,4.6308,4.6308,4.6308,4.6308,4.6308,4.6308,4.6328,4.6523,4.6582,4.6621,4.6836,4.6738,4.668,4.7109,4.7226,4.7422,4.8262,4.8789,4.9336,5.0195,5.0586,5.082,5.1035,5.1269,5.1367,5.1133,5.1094,5.1016,5.0781,5.0762,5.0762,5.0762,5.0762,5.0762,5.0762,5.0762,5.084,5.1074,5.0723,5.0644,5.1113,5.0762,5.0527,5.0527,5.0527,5.0312,4.9844,5.0234,5.0586,5.0801,5.123,5.1426,5.1426,5.1426,5.1426,5.1426,5.1426,5.1426,5.1426,5.1426,5.1426,5.1426,5.1426,5.1426,5.1426,5.1426,5.1426,5.1426,5.1426,5.1426,5.1426,4.3086,4.4826,4.6308,4.6308,4.6308,4.6308,4.6308,4.6348,4.666,4.7383,4.7598,4.7949,4.8672,4.8808,4.8867,4.8867,4.8867,4.8867,4.8867,4.8867,4.8867,4.8867,4.8867,4.8867,4.8867,4.8496,4.8125,4.7773,4.7773,4.7773,4.7773,4.7773,4.7773,4.7773,4.7773,4.7969,4.8301,4.8301,4.8262,4.8164,4.7754,4.7324,4.6875,4.6465,4.6308,4.6308,4.6308,4.6308,4.6308,4.6367,4.6406,4.6465,4.6894,4.7031,4.7109,4.7539,4.7402,4.7207,4.7578,4.7773,4.8144,4.9336,4.9961,5.0469,5.125,5.1426,5.1426,5.1426,5.1426,5.1426,5.1426,5.1426,5.1465,5.1601,5.1523,5.1484,5.1601,5.1504,5.1426,5.1426,5.1426,5.1465,5.1523,5.1152,5.0918,5.0996,5.0547,5.0293,5.0371,5.0312,5.0312,5.0371,5.0644,5.084,5.0898,5.125,5.1426,5.1426,5.1426,5.1426,5.1426,5.1426,5.1426,5.1426,5.1426,5.1426,5.1426,5.1426,5.1426,5.1426,5.1426,5.1426,5.1426,5.1426,5.1426,5.1426,4.5285,4.6026,4.6308,4.6308,4.6308,4.6308,4.6308,4.6601,4.6875,4.7012,4.7656,4.8164,4.8301,4.8633,4.8867,4.8867,4.8867,4.8867,4.8867,4.8867,4.8867,4.8867,4.8867,4.8867,4.8867,4.8789,4.873,4.8652,4.8652,4.8652,4.8652,4.8652,4.8652,4.8652,4.8652,4.8691,4.875,4.875,4.8535,4.8164,4.7754,4.7324,4.6875,4.6465,4.6308,4.6308,4.6308,4.6308,4.6367,4.6719,4.6836,4.6914,4.7344,4.748,4.7558,4.7988,4.8066,4.8027,4.8086,4.8652,4.9355,4.9941,5.0391,5.084,5.1328,5.1426,5.1426,5.1426,5.1426,5.1426,5.1426,5.1426,5.166,5.2402,5.1894,5.168,5.2402,5.1894,5.1426,5.1426,5.1426,5.1582,5.1953,5.1582,5.1484,5.1855,5.1152,5.0859,5.123,5.0898,5.0859,5.123,5.0957,5.0976,5.1328,5.1406,5.1426,5.1426,5.1426,5.1426,5.1426,5.1426,5.1426,5.1426,5.1426,5.1426,5.1426,5.1426,5.1426,5.1426,5.1426,5.1426,5.1426,5.1426,5.1426,5.1426,4.3815,4.5373,4.6308,4.6308,4.6308,4.6308,4.6308,4.6465,4.668,4.6894,4.748,4.7949,4.8183,4.8594,4.8867,4.8867,4.8867,4.8867,4.8867,4.8867,4.8867,4.8867,4.8867,4.8867,4.8867,4.8867,4.8867,4.8867,4.8867,4.8867,4.8867,4.8867,4.8867,4.8867,4.8867,4.8867,4.8867,4.8867,4.8476,4.7851,4.7656,4.7187,4.6562,4.6367,4.6308,4.6328,4.6562,4.6641,4.6699,4.7129,4.7285,4.7344,4.7793,4.791,4.8008,4.8437,4.8555,4.8555,4.8555,4.9043,4.9629,5.0078,5.0488,5.0918,5.1328,5.1426,5.1426,5.1426,5.1426,5.1426,5.1426,5.1426,5.1562,5.1953,5.168,5.1562,5.1973,5.168,5.1523,5.1758,5.1777,5.1953,5.2383,5.2246,5.2207,5.2402,5.2051,5.1816,5.1777,5.1601,5.1484,5.1426,5.125,5.123,5.1426,5.1426,5.1426,5.1426,5.1426,5.1426,5.1426,5.1426,5.1426,5.1426,5.1426,5.1426,5.1426,5.1426,5.1426,5.1426,5.1426,5.1426,5.1426,5.1426,5.1426,5.1426,4.3015,4.5021,4.6308,4.6308,4.6308,4.6308,4.6308,4.6308,4.6426,4.6738,4.7246,4.7715,4.8027,4.8535,4.8867,4.8867,4.8867,4.8867,4.8867,4.8965,4.8965,4.8867,4.8867,4.8867,4.8867,4.8867,4.8867,4.8867,4.8867,4.8867,4.8867,4.8867,4.8867,4.8867,4.8867,4.8867,4.8848,4.875,4.8262,4.7578,4.7578,4.7129,4.6465,4.6562,4.6601,4.6641,4.6973,4.709,4.7148,4.7578,4.7734,4.7793,4.8223,4.8359,4.8418,4.875,4.8867,4.8867,4.8867,4.918,4.9629,5.0078,5.0488,5.0918,5.1328,5.1426,5.1426,5.1426,5.1426,5.1426,5.1426,5.1426,5.1504,5.1699,5.1562,5.1504,5.1699,5.1641,5.1719,5.2051,5.2168,5.2402,5.2812,5.2871,5.291,5.3008,5.293,5.2715,5.2402,5.2285,5.2031,5.1601,5.1484,5.1426,5.1426,5.1426,5.1426,5.1426,5.1426,5.1426,5.1426,5.1426,5.1426,5.1426,5.1426,5.1426,5.1426,5.1426,5.1426,5.1426,5.1426,5.1426,5.1426,5.1426,5.1426,5.1426,4.5645,4.6201,4.6308,4.6308,4.6308,4.6308,4.6308,4.6308,4.6308,4.6348,4.707,4.7598,4.7617,4.8359,4.8867,4.8867,4.8867,4.8867,4.8867,4.9258,4.9297,4.8867,4.8867,4.8867,4.8867,4.8867,4.8867,4.8867,4.8867,4.8867,4.8867,4.8867,4.8867,4.8867,4.8867,4.8867,4.8828,4.8418,4.7988,4.7578,4.7578,4.7305,4.6933,4.7324,4.748,4.75,4.7519,4.7539,4.7598,4.8027,4.8164,4.8242,4.8672,4.8808,4.8808,4.8848,4.8867,4.8867,4.8867,4.918,4.9629,5.0078,5.0488,5.0918,5.1328,5.1426,5.1426,5.1426,5.1426,5.1426,5.1426,5.1426,5.1699,5.248,5.1953,5.1719,5.25,5.2285,5.2051,5.207,5.2422,5.2832,5.3262,5.332,5.3476,5.3906,5.3555,5.3301,5.3262,5.2891,5.2461,5.2051,5.1641,5.1426,5.1426,5.1426,5.1426,5.1426,5.1426,5.1426,5.1426,5.1426,5.1426,5.1426,5.1426,5.1426,5.1426,5.1426,5.1426,5.1426,5.1426,5.1426,5.1426,5.1426,5.1426,5.1426,4.5557,4.6308,4.6308,4.6308,4.6308,4.6308,4.6308,4.6308,4.6308,4.6308,4.7051,4.7578,4.7578,4.8594,4.9277,4.9277,4.9512,4.9687,4.9687,4.9844,4.9863,4.9687,4.9687,4.9687,4.9687,4.9687,4.9687,4.9687,4.9687,4.9687,4.9687,4.9687,4.9687,4.9687,4.9687,4.9687,4.9648,4.9219,4.8769,4.834,4.8086,4.7715,4.7344,4.7519,4.7578,4.7617,4.7871,4.7969,4.8027,4.8457,4.8613,4.8633,4.8808,4.8867,4.8867,4.8867,4.8867,4.8867,4.8867,4.9375,4.998,5.0137,5.0683,5.123,5.1406,5.1426,5.1426,5.1426,5.1426,5.1426,5.1426,5.1426,5.1543,5.1855,5.1875,5.1953,5.2266,5.2402,5.2578,5.2851,5.3008,5.3281,5.373,5.3769,5.3848,5.4023,5.3867,5.3652,5.3379,5.2949,5.2519,5.209,5.1914,5.1699,5.1426,5.1426,5.1426,5.1426,5.1426,5.1426,5.1426,5.1426,5.1426,5.1426,5.1426,5.1426,5.1426,5.1426,5.1426,5.1426,5.1426,5.1426,5.1426,5.1426,5.1426,5.1426,4.54,4.6308,4.6308,4.6308,4.6308,4.6308,4.6308,4.6308,4.6348,4.6484,4.7246,4.7832,4.7969,4.9043,4.9726,4.9726,5.0,5.0176,5.0176,5.0312,5.0312,5.0195,5.0176,5.0176,5.0176,5.0176,5.0176,5.0176,5.0176,5.0176,5.0176,5.0176,5.0176,5.0176,5.0176,5.0098,4.9941,4.9512,4.9062,4.8633,4.832,4.8027,4.7793,4.793,4.7988,4.8027,4.8301,4.8418,4.8457,4.875,4.8867,4.8867,4.8867,4.8867,4.8867,4.8867,4.8867,4.8867,4.8867,4.9414,5.0,5.0137,5.0703,5.1269,5.1406,5.1426,5.1426,5.1426,5.1426,5.1426,5.1426,5.1426,5.1484,5.1621,5.1894,5.2129,5.2266,5.2637,5.3027,5.332,5.3476,5.3691,5.4004,5.4023,5.4023,5.4023,5.4023,5.3887,5.3594,5.3144,5.2773,5.25,5.2363,5.2129,5.1836,5.1562,5.1426,5.1426,5.1426,5.1426,5.1426,5.1426,5.1426,5.1426,5.1426,5.1426,5.1426,5.1426,5.1426,5.1426,5.1426,5.1426,5.1426,5.1426,5.1426,5.1426,4.5477,4.6308,4.6308,4.6308,4.6308,4.6308,4.6308,4.6308,4.6465,4.6875,4.7676,4.8379,4.8848,4.9668,5.0176,5.0176,5.0195,5.0195,5.0195,5.0586,5.0625,5.0215,5.0195,5.0195,5.0195,5.0195,5.0195,5.0195,5.0195,5.0195,5.0195,5.0195,5.0195,5.0176,5.0176,4.9941,4.9512,4.9062,4.8613,4.8223,4.8223,4.8223,4.8262,4.8691,4.8867,4.8867,4.8867,4.8867,4.8867,4.8867,4.8867,4.8867,4.8867,4.8867,4.8867,4.8867,4.8867,4.8867,4.8867,4.918,4.9629,5.0078,5.0488,5.0918,5.1328,5.1426,5.1426,5.1426,5.1426,5.1426,5.1445,5.1445,5.1582,5.2012,5.209,5.2246,5.2656,5.3086,5.3359,5.3359,5.375,5.4023,5.4023,5.4023,5.4023,5.4023,5.4023,5.4023,5.4023,5.3613,5.3359,5.3359,5.2949,5.2715,5.2715,5.1855,5.1328,5.1445,5.1328,5.1328,5.1426,5.1426,5.1426,5.1426,5.1426,5.1426,5.1426,5.1426,5.1426,5.1426,5.1426,5.1426,5.1426,5.1426,5.1426,5.1426,4.6701,4.7402,4.7187,4.7187,4.7187,4.7187,4.7187,4.7187,4.7246,4.7363,4.8125,4.8711,4.8848,4.9922,5.0625,5.0625,5.0898,5.1055,5.1055,5.1172,5.1191,5.1055,5.1055,5.1055,5.1055,5.1055,5.1055,5.1055,5.1055,5.1055,5.1055,5.1055,5.0898,5.0625,5.0625,5.0391,4.9961,4.9512,4.9258,4.9101,4.8789,4.8672,4.8672,4.8808,4.8867,4.8867,4.8867,4.8867,4.8867,4.8867,4.8867,4.8867,4.8867,4.8867,4.8867,4.8867,4.8867,4.8867,4.8867,4.918,4.9629,5.0078,5.0488,5.0918,5.1328,5.1426,5.1426,5.1426,5.1426,5.1523,5.1836,5.1894,5.2031,5.2461,5.2773,5.3027,5.3144,5.3555,5.3828,5.3828,5.3945,5.4023,5.4023,5.4023,5.4023,5.4023,5.4023,5.4023,5.4023,5.3906,5.3691,5.3379,5.3242,5.3008,5.2715,5.0209,4.9926,5.1875,4.9644,4.961,5.1426,5.1426,5.1426,5.1426,5.1426,5.1426,5.1426,5.1426,5.1426,5.1426,5.1426,5.1426,5.1426,5.1426,5.1426,5.1426,4.7236,4.8008,4.7773,4.7617,4.7578,4.7578,4.7578,4.7578,4.7637,4.7812,4.8437,4.8984,4.9336,5.0234,5.0879,5.1035,5.1289,5.1426,5.1426,5.1426,5.1426,5.1426,5.1426,5.1426,5.1426,5.1426,5.1426,5.1426,5.1426,5.1426,5.1426,5.1426,5.1211,5.0801,5.0801,5.0469,4.9902,4.9648,4.9433,4.9238,4.8965,4.8867,4.8867,4.8867,4.8867,4.8867,4.8867,4.8867,4.8867,4.8867,4.8867,4.8867,4.8867,4.8867,4.8867,4.8867,4.8867,4.8867,4.8867,4.918,4.9668,5.0273,5.0625,5.0918,5.1328,5.1562,5.1699,5.1699,5.1816,5.2012,5.2285,5.2324,5.248,5.2891,5.3183,5.3418,5.3594,5.3867,5.4023,5.4023,5.4023,5.4023,5.4023,5.4023,5.4023,5.4023,5.4023,5.4023,5.4023,5.4023,5.3906,5.3633,5.3633,5.2951,5.153,4.9561,4.9714,5.207,4.8892,4.8786,5.1426,5.1426,5.1426,5.1426,5.1426,5.1426,5.1426,5.1426,5.1426,5.1426,5.1426,5.1426,5.1426,5.1426,5.1426,5.1426,4.75,4.8359,4.8183,4.7773,4.7695,4.7695,4.7695,4.7695,4.7851,4.8262,4.8711,4.9297,5.0137,5.0605,5.1016,5.1406,5.1426,5.1426,5.1426,5.1426,5.1426,5.1426,5.1426,5.1426,5.1426,5.1426,5.1426,5.1426,5.1426,5.1426,5.1426,5.1387,5.1152,5.0742,5.0703,5.0234,4.9473,4.9473,4.9238,4.8867,4.8867,4.8867,4.8867,4.8867,4.8867,4.8867,4.8867,4.8867,4.8867,4.8867,4.8867,4.8867,4.8906,4.8926,4.8926,4.8965,4.8984,4.8984,4.8984,4.9277,4.9785,5.0644,5.0859,5.0976,5.1445,5.1855,5.2129,5.2129,5.2441,5.2715,5.2754,5.2773,5.291,5.3359,5.3418,5.3555,5.3965,5.4023,5.4023,5.4023,5.4023,5.4023,5.4023,5.4023,5.4023,5.4023,5.4023,5.4023,5.4023,5.4023,5.4023,5.4023,5.4023,5.2737,5.0144,4.9502,5.0077,5.1715,4.8848,4.8823,5.1426,5.1426,5.1426,5.1426,5.1426,5.1426,5.1426,5.1426,5.1426,5.1426,5.1426,5.1426,5.1426,5.1426,5.1426,5.1426,4.9181,4.9473,4.9101,4.8652,4.8574,4.8574,4.8574,4.8574,4.875,4.918,4.9629,5.0098,5.0605,5.1035,5.1328,5.1426,5.1426,5.1426,5.1426,5.1426,5.1426,5.1426,5.1426,5.1426,5.1426,5.1426,5.1426,5.1426,5.1426,5.1426,5.1426,5.1094,5.0723,5.0293,4.9961,4.9512,4.9004,4.9004,4.8945,4.8867,4.8867,4.8867,4.8867,4.8867,4.8867,4.8867,4.8867,4.8867,4.8867,4.8867,4.8867,4.8926,4.9277,4.9375,4.9453,4.9785,4.9883,4.9883,4.9883,4.9961,5.0234,5.1094,5.1289,5.1504,5.2266,5.25,5.2578,5.2578,5.2637,5.2812,5.3164,5.3223,5.3359,5.3808,5.3887,5.3926,5.4023,5.4023,5.4023,5.4023,5.4023,5.4023,5.4023,5.4023,5.4023,5.4023,5.4023,5.4023,5.4023,5.4023,5.4023,5.4023,5.4023,5.3697,5.3064,5.029,4.9017,4.9258,4.8334,4.9102,5.1426,5.1426,5.1426,5.1426,5.1426,5.1426,5.1426,5.1426,5.1426,5.1426,5.1426,5.1426,5.1426,5.1426,5.1426,5.1426,4.9933,5.0137,4.9707,4.9258,4.9004,4.8867,4.8867,4.9043,4.9258,4.9492,4.9902,5.0332,5.0762,5.0996,5.1211,5.1406,5.1426,5.1426,5.1426,5.1426,5.1426,5.1426,5.1426,5.1426,5.1426,5.1426,5.1426,5.1426,5.1426,5.1328,5.1133,5.0898,5.0469,4.9863,4.9629,4.9277,4.8867,4.8867,4.8867,4.8867,4.8867,4.8867,4.8867,4.8867,4.8867,4.8867,4.8867,4.9004,4.9219,4.9414,4.9492,4.9531,4.9766,4.9844,4.9883,5.0117,5.0176,5.0176,5.0176,5.0332,5.0683,5.1523,5.1894,5.2148,5.2598,5.2871,5.3008,5.3008,5.3183,5.3418,5.3633,5.3672,5.375,5.3984,5.4023,5.4023,5.4023,5.4023,5.4023,5.4023,5.4023,5.4023,5.4023,5.4023,5.4023,5.4023,5.4023,5.4023,5.4023,5.4023,5.4023,5.4023,5.3828,5.3062,5.1696,5.0955,4.9799,4.8166,4.787,4.899,5.1426,5.1426,5.1426,5.1426,5.1426,5.1426,5.1426,5.1426,5.1426,5.1426,5.1426,5.1426,5.1426,5.1426,5.1426,5.1426,5.0339,5.0469,5.0039,4.9609,4.916,4.8867,4.8867,4.918,4.9433,4.9512,4.9844,5.0254,5.0762,5.0859,5.1055,5.1406,5.1426,5.1426,5.1426,5.1504,5.1543,5.1543,5.1621,5.166,5.166,5.166,5.1582,5.1426,5.1367,5.1152,5.0801,5.0664,5.0215,4.9531,4.9453,4.9199,4.8867,4.8945,4.8965,4.8984,4.9043,4.9082,4.9082,4.9082,4.9082,4.9082,4.9082,4.9316,4.9687,5.0058,5.0176,5.0195,5.0273,5.0293,5.0293,5.0371,5.0391,5.0391,5.0391,5.0644,5.1113,5.1973,5.2461,5.2754,5.2891,5.3223,5.3476,5.3476,5.3769,5.4023,5.4023,5.4023,5.4023,5.4023,5.4023,5.4023,5.4023,5.4023,5.4023,5.4023,5.4023,5.4023,5.4023,5.4023,5.4023,5.4023,5.4023,5.4023,5.4023,5.3965,5.3906,5.3906,5.3476,5.2093,4.9761,5.1673,5.1271,4.8562,4.8278,4.9297,5.1426,5.1426,5.1426,5.1426,5.1426,5.1426,5.1426,5.1426,5.1426,5.1426,5.1426,5.1426,5.1426,5.1426,5.1426,5.1426,5.0685,5.0469,5.0039,4.9609,4.916,4.8867,4.8867,4.8906,4.9082,4.9473,4.959,4.9922,5.0723,5.1133,5.1367,5.1426,5.1426,5.1426,5.1426,5.1777,5.1992,5.1992,5.2344,5.2539,5.2539,5.2539,5.2168,5.1426,5.1074,5.0859,5.0781,5.0039,4.9629,4.9512,4.9121,4.8906,4.8887,4.9277,4.9433,4.9473,4.9844,5.0,5.0,5.0,5.0,5.0,5.0,5.0039,5.0098,5.0156,5.0176,5.0234,5.0605,5.0723,5.0801,5.1152,5.1269,5.1269,5.1269,5.1308,5.1562,5.2402,5.2676,5.291,5.3672,5.3906,5.3945,5.3945,5.3984,5.4023,5.4023,5.4023,5.4023,5.4023,5.4023,5.4023,5.4023,5.4023,5.4023,5.4023,5.4023,5.4023,5.4023,5.4023,5.4023,5.4023,5.4023,5.4023,5.4023,5.3652,5.3457,5.3457,5.3027,5.2593,5.2174,5.2165,5.1932,5.1558,5.1035,5.1037,5.1426,5.1426,5.1426,5.1426,5.1426,5.1426,5.1426,5.1426,5.1426,5.1426,5.1426,5.1426,5.1426,5.1426,5.1426,5.1426,5.0804,5.082,5.0391,4.9961,4.9531,4.9141,4.8887,4.9062,4.9297,4.9492,4.9941,5.0391,5.0762,5.1172,5.1523,5.1777,5.1797,5.1894,5.2129,5.2324,5.2324,5.209,5.248,5.248,5.2012,5.2226,5.2051,5.1426,5.1484,5.1387,5.1133,5.0527,5.0117,4.9883,4.9687,4.959,4.9609,4.9805,4.9883,4.9902,5.0098,5.0176,5.0176,5.0176,5.0176,5.0215,5.0449,5.0527,5.0566,5.0801,5.0879,5.0918,5.1094,5.1152,5.1191,5.1367,5.1426,5.1426,5.1426,5.1426,5.1641,5.25,5.2715,5.2949,5.3828,5.4023,5.4023,5.4023,5.4023,5.4023,5.4023,5.4023,5.4023,5.4023,5.4023,5.4023,5.4023,5.4023,5.4023,5.4023,5.4023,5.4023,5.4023,5.4023,5.4023,5.4023,5.4023,5.4023,5.4023,5.3613,5.3359,5.3359,5.2715,5.2363,5.2363,5.1933,5.1719,5.1719,5.1523,5.1426,5.1426,5.1426,5.1426,5.1426,5.1426,5.1426,5.1426,5.1426,5.1426,5.1426,5.1426,5.1426,5.1426,5.1426,5.1426,5.1426]}]]